[[[{"header":{"parameterUnit":"kt","parameterCategory":2,"dx":1,"dy":1,"la1":29.285339999999998,"la2":30.599998999999997,"lo1":-89.70041500000002,"lo2":-87.6738589999976,"nx":112,"ny":82,"refTime":"2022-09-29T06:00:00:Z","depth":0,"parameterNumber":1,"parameterNumberName":"U-component_of_WINDS"},"data":[13.0222,13.25,13.2728,12.0123,11.8529,11.6479,10.2659,10.0381,10.0989,9.985,9.9926,10.152,10.5772,10.0305,9.499,9.4383,8.9429,8.4576,0.0,8.0881,8.0805,8.0805,8.9385,9.6969,10.1065,10.5039,11.4645,13.2369,13.0418,13.4335,14.7828,14.8505,14.8505,14.8505,14.8505,14.8505,14.8505,14.8505,14.8505,14.8505,14.8505,14.8505,14.8505,14.8505,14.8505,14.8505,14.8505,14.8505,14.858,14.858,14.858,14.8655,14.873,14.8882,14.8882,14.8922,14.9,14.9067,14.9067,14.9067,14.9067,14.9067,14.9067,14.9067,14.9067,14.9067,14.9067,14.9067,14.9067,14.9067,14.9067,14.9067,14.9067,14.9067,14.9067,14.9067,14.9067,14.9067,14.9067,14.9067,14.9067,14.9067,14.9067,14.9067,14.9067,14.9067,14.9067,14.9067,14.9067,14.9067,14.9067,14.9067,14.9067,14.9067,14.9067,14.9067,14.9067,14.9067,14.9067,14.9067,14.9067,14.9067,14.8841,14.8312,14.8841,14.8841,14.8237,14.8841,14.9067,14.9067,14.9067,14.9067,12.3692,12.5666,12.5666,11.1771,10.9873,10.8278,9.6129,9.3775,9.4079,9.3471,9.5597,9.7268,9.6129,9.4534,9.2408,8.9447,8.7473,8.5318,0.0,8.2711,8.3764,8.4868,9.5763,10.4249,10.7074,11.1243,11.9335,13.2749,13.0537,13.4485,14.7828,14.8505,14.8505,14.8505,14.8505,14.8505,14.8505,14.8505,14.8505,14.8505,14.8505,14.8505,14.8505,14.8505,14.8505,14.8505,14.8505,14.8505,14.8505,14.8505,14.8505,14.8505,14.8655,14.8681,14.8774,14.8789,14.8874,14.8963,14.9033,14.9067,14.9067,14.9067,14.9067,14.9067,14.9067,14.9067,14.9067,14.9067,14.9067,14.9067,14.9067,14.9067,14.9067,14.9067,14.9067,14.9067,14.9067,14.9067,14.9067,14.9067,14.9067,14.9067,14.9067,14.9067,14.9067,14.9067,14.9067,14.9067,14.9067,14.9067,14.9067,14.9067,14.9067,14.9067,14.9067,14.9067,14.9067,14.9067,14.9067,14.9067,14.9067,14.9067,14.9067,14.9067,14.9067,14.9067,14.9067,14.9067,14.9067,14.9067,14.9067,14.9067,11.9668,11.701,11.4428,10.2811,9.9926,9.8179,9.1649,9.1269,9.2788,9.461,9.6129,9.7268,9.742,9.5977,9.3168,8.8232,8.885,0.0,0.0,8.5294,8.8782,9.2016,10.0962,11.018,11.8388,11.0601,11.309,13.2721,12.4894,12.7779,14.7452,14.8505,14.8505,14.8505,14.8505,14.8505,14.8505,14.8505,14.8505,14.8505,14.8505,14.8505,14.8505,14.8505,14.8505,14.8505,14.8505,14.8505,14.8505,14.8505,14.8505,14.8505,14.8655,14.8655,14.8655,14.8655,14.8655,14.8745,14.9,14.9108,14.9067,14.9067,14.9067,14.9067,14.9067,14.9067,14.9067,14.9067,14.9067,14.9067,14.9067,14.9067,14.9067,14.9067,14.9067,14.9067,14.9067,14.9067,14.9067,14.9067,14.9067,14.9067,14.9067,14.9067,14.9067,14.9067,14.9067,14.9067,14.9067,14.9067,14.9067,14.9067,14.9067,14.9067,14.9067,14.9067,14.9067,14.9067,14.9067,14.9067,14.9067,14.9067,14.9067,14.9067,14.9067,14.9067,14.9067,14.9067,14.9067,14.9067,14.9067,14.9067,10.8961,10.9265,11.01,10.1976,9.9926,9.8862,9.461,9.0206,8.8232,9.2408,9.0662,0.0,0.0,0.0,8.9675,9.051,0.0,9.6116,8.9799,9.8976,10.7638,11.0917,11.3759,11.9129,12.8694,12.718,13.0835,14.3541,13.5244,13.5161,14.7828,14.8505,14.8505,14.8505,14.8505,14.8505,14.8505,14.8505,14.8505,14.8505,14.8505,14.8505,14.8505,14.8505,14.8505,14.8505,14.8505,14.8505,14.8505,14.8505,14.8505,14.8505,14.8505,14.858,14.858,14.858,14.858,14.87,14.8832,14.8886,14.9067,14.9067,14.9067,14.9067,14.9067,14.9067,14.9067,14.9067,14.9067,14.9067,14.9067,14.9067,14.9067,14.9067,14.9067,14.9067,14.9067,14.9067,14.9067,14.9067,14.9067,14.9067,14.9067,14.9067,14.9067,14.9067,14.9067,14.9067,14.9067,14.9067,14.9067,14.9067,14.9067,14.9067,14.9067,14.9067,14.9067,14.9067,14.9067,14.9067,14.9067,14.9067,14.9067,14.9067,14.9067,14.9067,14.9067,14.9067,14.9067,14.9067,14.9067,14.9067,10.6,10.562,10.6456,10.0457,10.0533,10.0457,9.4307,9.0966,8.9599,9.1117,0.0,0.0,0.0,0.0,0.0,0.0,9.8138,10.2173,9.7471,10.8418,11.7958,12.0573,12.7071,13.2117,13.453,13.414,13.7827,14.779,13.934,13.8058,14.7978,14.8505,14.8505,14.8505,14.8505,14.8505,14.8505,14.8505,14.8505,14.8505,14.8505,14.8505,14.8505,14.8505,14.8505,14.8505,14.8505,14.8505,14.8505,14.8505,14.8505,14.8505,14.8505,14.8505,14.8505,14.8505,14.8505,14.858,14.8655,14.8757,14.8925,14.8997,14.9067,14.9067,14.9067,14.9067,14.9067,14.9067,14.9067,14.9067,14.9067,14.9067,14.9067,14.9067,14.9067,14.9067,14.9067,14.9067,14.9067,14.9067,14.9067,14.9067,14.9067,14.9067,14.9067,14.9067,14.9067,14.9067,14.9067,14.9067,14.9067,14.9067,14.9067,14.9067,14.9067,14.9067,14.9067,14.9067,14.9067,14.9067,14.9067,14.9067,14.9067,14.9067,14.9067,14.9067,14.9067,14.9067,14.9067,14.9067,14.9067,14.9067,10.6456,10.3722,10.2583,9.8559,10.0305,10.1064,9.3623,0.0,9.4838,9.3395,0.0,9.2484,9.3084,0.0,0.0,9.3295,10.2756,10.9231,10.69,11.6889,12.4928,12.6475,13.9606,14.5602,13.8254,13.6257,13.908,14.7828,14.0402,13.923,14.8054,14.8505,14.8505,14.8505,14.8505,14.8505,14.8505,14.8505,14.8505,14.8505,14.8505,14.8505,14.8505,14.8505,14.8505,14.8505,14.8505,14.8505,14.8505,14.8505,14.8505,14.8505,14.8505,14.8505,14.8505,14.8505,14.8505,14.8505,14.8655,14.8655,14.8745,14.8812,14.8922,14.9073,14.9108,14.9067,14.9067,14.9067,14.9067,14.9067,14.9067,14.9067,14.9067,14.9067,14.9067,14.9067,14.9067,14.9067,14.9067,14.9067,14.9067,14.9067,14.9067,14.9067,14.9067,14.9067,14.9067,14.9067,14.9067,14.9067,14.9067,14.9067,14.9067,14.9067,14.9067,14.9067,14.9067,14.9067,14.9067,14.9067,14.9067,14.9067,14.9067,14.9067,14.9067,14.9067,14.9067,14.9067,14.9067,14.9067,14.9067,14.9067,9.8938,9.5977,9.537,9.7116,9.4155,9.3092,0.0,0.0,0.0,10.9569,10.9493,10.8789,11.2864,11.3463,11.4204,11.6908,12.4708,12.8422,12.2789,13.4274,14.336,14.3678,14.658,14.7903,14.6279,14.5828,14.6429,14.8354,14.673,14.6504,14.843,14.8505,14.8505,14.8505,14.8505,14.8505,14.8505,14.8505,14.8505,14.8505,14.8505,14.8505,14.8505,14.8505,14.8505,14.8505,14.8505,14.8505,14.8505,14.8505,14.8505,14.8505,14.8505,14.8505,14.8505,14.8505,14.8505,14.8505,14.8505,14.858,14.87,14.8789,14.8789,14.895,14.9037,14.9067,14.9067,14.9067,14.9067,14.9067,14.9067,14.9067,14.9067,14.9067,14.9067,14.9067,14.9067,14.9067,14.9067,14.9067,14.9067,14.9067,14.9067,14.9067,14.9067,14.9067,14.9067,14.9067,14.9067,14.9067,14.9067,14.9067,14.9067,14.9067,14.9067,14.9067,14.9067,14.9067,14.9067,14.9067,14.9067,14.9067,14.9067,14.9067,14.9067,14.9067,14.9067,14.9067,14.9067,14.9067,14.9067,14.9067,9.537,9.3168,9.2712,9.3547,9.2484,0.0,0.0,9.6604,9.8009,10.9585,10.9811,11.0226,11.7782,11.9667,12.072,12.2413,13.02,13.6371,13.7353,14.3828,14.8505,14.8505,14.8505,14.8505,14.8505,14.8505,14.8505,14.8505,14.8505,14.8505,14.8505,14.8505,14.8505,14.8505,14.8505,14.8505,14.8505,14.8505,14.8505,14.8505,14.8505,14.8505,14.8505,14.8505,14.8505,14.8505,14.8505,14.8505,14.8505,14.8505,14.8505,14.8505,14.8505,14.8505,14.8505,14.8505,14.8505,14.8505,14.8505,14.8505,14.858,14.858,14.8655,14.8776,14.8916,14.9076,14.9067,14.9067,14.9067,14.9067,14.9067,14.9067,14.9294,15.0124,14.9747,14.9294,15.02,14.9671,14.9067,14.9067,14.9067,14.9067,14.9067,14.9067,14.9067,14.9067,14.9067,14.9067,14.9067,14.9067,14.9067,14.9067,14.9067,14.9067,14.9067,14.9067,14.9067,14.9067,14.9067,14.9067,14.9067,14.9067,14.9067,14.9067,14.9067,14.9067,14.9067,14.9067,14.9067,14.9067,14.9067,14.9067,9.2636,9.1573,9.1421,9.1117,9.2256,0.0,9.537,9.648,10.031,11.1445,11.3009,11.4753,12.2819,12.5561,12.661,12.661,13.3314,14.0853,14.7602,14.8505,14.8505,14.8505,14.8505,14.8505,14.8505,14.8505,14.8505,14.8505,14.8505,14.8505,14.8505,14.8505,14.8505,14.8505,14.8505,14.8505,14.8505,14.8505,14.8505,14.8505,14.8505,14.8505,14.8505,14.8505,14.8505,14.8505,14.8505,14.8505,14.8505,14.8505,14.8505,14.8505,14.8505,14.8505,14.8505,14.8505,14.8505,14.8505,14.8505,14.8505,14.8505,14.8505,14.858,14.8655,14.8806,14.8997,14.9067,14.9067,14.9294,14.9596,14.9596,14.9822,15.0426,15.182,15.1106,15.0426,15.182,15.0804,14.9596,14.9596,14.9596,14.9445,14.9143,14.9067,14.9067,14.9067,14.9067,14.9067,14.9067,14.9067,14.9067,14.9067,14.9067,14.9067,14.9067,14.9067,14.9067,14.9067,14.9067,14.9067,14.9067,14.9067,14.9067,14.9067,14.9067,14.9067,14.9067,14.9067,14.9067,14.9067,14.9067,14.9067,8.8156,8.8004,8.9067,9.3395,9.1345,0.0,11.1847,11.5031,11.8532,13.4114,13.9501,14.1724,14.2776,14.4354,14.5527,14.5527,14.6429,14.7452,14.8354,14.8505,14.8505,14.8505,14.8505,14.8505,14.8505,14.8505,14.8505,14.8505,14.8505,14.8505,14.8505,14.8505,14.8505,14.8505,14.8505,14.8505,14.8505,14.8505,14.8505,14.8505,14.8505,14.8505,14.8505,14.8505,14.8505,14.8505,14.8505,14.8505,14.8505,14.8505,14.8505,14.8505,14.8505,14.8505,14.8505,14.8505,14.8505,14.8505,14.8505,14.8505,14.8505,14.8505,14.8505,14.858,14.8806,14.8922,14.8916,14.9067,15.02,15.1333,15.1333,15.2424,15.3633,15.3784,15.3749,15.3638,15.3784,15.2576,15.1333,15.1333,15.1257,15.0729,14.9294,14.8992,14.8992,14.9067,14.9067,14.9067,14.9067,14.9067,14.9067,14.9067,14.9067,14.9067,14.9067,14.9067,14.9067,14.9067,14.9067,14.9067,14.9067,14.9067,14.9067,14.9067,14.9067,14.9067,14.9067,14.9067,14.9067,14.9067,14.9067,14.9067,8.603,8.6713,8.8232,9.1345,0.0,0.0,10.805,11.23,11.8181,13.3773,13.7151,13.9456,14.6204,14.8054,14.8505,14.8505,14.8505,14.8505,14.8505,14.8505,14.8505,14.8505,14.8505,14.8505,14.8505,14.8505,14.8505,14.8505,14.8505,14.8505,14.8505,14.8505,14.8505,14.8505,14.8505,14.8505,14.8505,14.8505,14.8505,14.8505,14.8505,14.8505,14.8505,14.8505,14.8505,14.8505,14.8505,14.8505,14.8505,14.8505,14.8505,14.8505,14.8505,14.8505,14.8505,14.8505,14.8505,14.8505,14.8505,14.8505,14.8505,14.8505,14.8505,14.8505,14.873,14.8731,14.8992,15.0124,15.0955,15.171,15.2843,15.3674,15.4429,15.541,15.4846,15.4393,15.541,15.4278,15.3336,15.4353,15.2843,15.1222,15.058,14.9679,14.8997,14.8997,14.9,14.9067,14.9067,14.9067,14.9067,14.9067,14.9067,14.9067,14.9067,14.9067,14.9067,14.9067,14.9067,14.9067,14.9067,14.9067,14.9067,14.9067,14.9067,14.9067,14.9067,14.9067,14.9067,14.9067,14.9067,14.9067,8.4967,0.0,0.0,0.0,0.0,0.0,11.0157,11.4325,12.021,13.3779,13.5881,13.7983,14.6926,14.8505,14.8505,14.8505,14.8505,14.8505,14.8505,14.8505,14.8505,14.8505,14.8505,14.8505,14.8505,14.8505,14.8505,14.8505,14.8505,14.8505,14.8505,14.8505,14.8505,14.8505,14.8505,14.8505,14.8505,14.8505,14.8505,14.8505,14.8505,14.8505,14.8505,14.8505,14.8505,14.8505,14.8505,14.8505,14.8505,14.8505,14.8505,14.8505,14.8505,14.8505,14.8505,14.8505,14.8505,14.8505,14.8505,14.8505,14.8505,14.8505,14.8505,14.858,14.9227,14.9443,14.9755,15.1565,15.2093,15.2546,15.4281,15.5072,15.5752,15.7035,15.6431,15.5827,15.7111,15.6356,15.564,15.643,15.4507,15.2469,15.1594,15.0469,14.9489,14.8971,14.8957,14.9037,14.9108,14.9067,14.9067,14.9067,14.9067,14.9067,14.9067,14.9067,14.9067,14.9067,14.9067,14.9067,14.9067,14.9067,14.9067,14.9067,14.9067,14.9067,14.9067,14.9067,14.9067,14.9067,14.9067,14.9067,0.0,0.0,0.0,10.4557,10.5696,10.9062,12.6956,12.966,13.1237,14.1254,14.452,14.6129,14.8129,14.8505,14.8505,14.8505,14.8505,14.8505,14.8505,14.8505,14.8505,14.8505,14.8505,14.8505,14.8505,14.8505,14.8505,14.8505,14.8505,14.8505,14.8505,14.8505,14.8505,14.8505,14.8505,14.8505,14.8505,14.8505,14.8505,14.8505,14.8505,14.8505,14.8505,14.8505,14.8505,14.8505,14.8505,14.8505,14.8505,14.8505,14.8505,14.8505,14.8505,14.8505,14.8505,14.8505,14.8505,14.8505,14.8505,14.8505,14.8505,14.8505,14.8505,14.8806,15.0581,15.1153,15.1529,15.3229,15.3815,15.4266,15.579,15.7449,15.8733,15.9035,15.896,15.8884,15.9111,15.8884,15.8243,15.6645,15.6081,15.4997,15.1937,15.1183,15.0506,14.9152,14.8926,14.8907,14.9073,14.9067,14.9067,14.9067,14.9067,14.9067,14.9067,14.9067,14.9067,14.9067,14.9067,14.9067,14.9067,14.9067,14.9067,14.9067,14.9067,14.9067,14.9067,14.9067,14.9067,14.9067,14.9067,14.9067,9.1801,9.6129,10.152,11.1543,11.6858,12.1441,12.8503,13.2965,13.7108,14.2575,14.4068,14.5302,14.7978,14.8505,14.8129,14.7001,14.7753,14.8505,14.8505,14.8505,14.8505,14.8505,14.8505,14.8505,14.8505,14.8505,14.8505,14.8505,14.8505,14.8505,14.8505,14.8505,14.8505,14.8505,14.8505,14.8505,14.8505,14.8505,14.8505,14.8505,14.8505,14.8505,14.8505,14.8505,14.8505,14.8505,14.8505,14.8505,14.8505,14.8505,14.8505,14.8505,14.8505,14.8505,14.8505,14.8505,14.8505,14.8505,14.8505,14.8505,14.8655,14.9829,15.0205,15.0506,15.2281,15.2837,15.3119,15.4746,15.5299,15.5771,15.7413,15.8275,15.8814,15.889,15.8919,15.8884,15.896,15.8803,15.8543,15.8054,15.6946,15.5457,15.3349,15.2853,15.2206,15.0581,15.1333,15.1736,15.0769,15.0729,15.0351,14.9218,14.9067,14.9067,14.9067,14.9067,14.9067,14.9067,14.9067,14.9067,14.9067,14.9067,14.9067,14.9067,14.9067,14.9067,14.9067,14.9067,14.9067,14.9067,14.9067,14.9067,9.6736,10.1748,10.7139,11.8984,12.5438,12.9671,13.2296,13.6106,13.99,14.3027,14.3692,14.443,14.7151,14.8099,14.8174,14.7076,14.7828,14.8505,14.8505,14.8505,14.8505,14.8505,14.8505,14.8505,14.8505,14.8505,14.8505,14.8505,14.8505,14.8505,14.8505,14.8505,14.8505,14.8505,14.8505,14.8505,14.8505,14.8505,14.8505,14.8505,14.8505,14.8505,14.8505,14.8505,14.8505,14.8505,14.8505,14.8505,14.8505,14.8505,14.8505,14.8505,14.8505,14.8505,14.8505,14.8505,14.8505,14.8505,14.8505,14.8881,14.9603,15.0656,15.1483,15.2264,15.389,15.4445,15.4725,15.6352,15.6878,15.7275,15.8267,15.8664,15.8806,15.8731,15.8739,15.8803,15.8727,15.8588,15.8581,15.8656,15.7705,15.6427,15.48,15.4492,15.3861,15.2189,15.2941,15.3349,15.2394,15.1861,15.1106,15.0124,14.9445,14.9067,14.9067,14.9067,14.9067,14.9067,14.9067,14.9067,14.9067,14.9067,14.9067,14.9067,14.9067,14.9067,14.9067,14.9067,14.9067,14.9067,14.9067,14.9067,9.9774,10.5696,11.1999,12.6881,13.1589,13.3791,13.8499,13.9318,13.9908,14.3219,14.3768,14.4129,14.5678,14.7391,14.8488,14.84,14.843,14.843,14.8354,14.843,14.843,14.8354,14.843,14.8505,14.8505,14.8505,14.8505,14.8505,14.8505,14.8505,14.8505,14.8505,14.8505,14.8505,14.8505,14.8505,14.8505,14.8505,14.8505,14.8505,14.8505,14.8505,14.8505,14.8505,14.8505,14.8505,14.8505,14.8505,14.8505,14.8505,14.8505,14.8505,14.8505,14.8505,14.8505,14.8505,14.8505,14.8505,14.8505,14.9603,15.0957,15.1107,15.2264,15.3898,15.5525,15.6051,15.6352,15.7979,15.8505,15.8581,15.8505,15.8581,15.8731,15.8505,15.8656,15.8731,15.8505,15.843,15.843,15.843,15.843,15.7904,15.6201,15.5996,15.5516,15.3898,15.3748,15.3861,15.3904,15.2581,15.1635,15.1669,15.02,14.9218,14.9067,14.9067,14.9067,14.9067,14.9067,14.9067,14.9067,14.9067,14.9067,14.9067,14.9067,14.9067,14.9067,14.9067,14.9067,14.9067,14.9067,14.9067,10.6986,11.6099,12.3236,13.4626,13.7739,13.8271,13.9334,13.9389,14.0188,14.3194,14.3768,14.4129,14.5678,14.7377,14.8099,14.6851,14.7678,14.8054,14.6805,14.7753,14.8054,14.673,14.7753,14.8505,14.8505,14.8505,14.8505,14.8505,14.8505,14.8505,14.8505,14.8505,14.8505,14.8505,14.8505,14.8505,14.8505,14.8505,14.8505,14.8505,14.8505,14.8505,14.8505,14.8505,14.8505,14.8505,14.8505,14.8505,14.8505,14.8505,14.8505,14.8505,14.8505,14.8505,14.8505,14.8505,14.8505,14.8505,14.8505,14.8806,14.9557,15.2142,15.3222,15.4123,15.6953,15.778,15.7904,15.8355,15.843,15.8505,15.843,15.8505,15.8505,15.843,15.8505,15.8505,15.843,15.843,15.843,15.843,15.843,15.7904,15.6201,15.6926,15.7227,15.5525,15.6427,15.6926,15.5742,15.5259,15.4202,15.1861,15.1106,15.0351,14.9218,14.9067,14.9067,14.9067,14.9067,14.9067,14.9067,14.9067,14.9067,14.9067,14.9067,14.9067,14.9067,14.9067,14.9067,14.9067,14.9067,14.9067,10.4101,11.6023,12.7261,13.6524,13.941,13.9941,13.9789,13.9562,14.0349,14.3381,14.3843,14.443,14.6851,14.7377,14.7302,14.7151,14.7302,14.7302,14.7151,14.7873,14.8174,14.7227,14.7903,14.8505,14.8505,14.8505,14.8505,14.8505,14.8505,14.8505,14.8505,14.8505,14.8505,14.8505,14.8505,14.8505,14.8505,14.8505,14.8505,14.8505,14.8505,14.8505,14.8505,14.8505,14.8505,14.8505,14.8505,14.8505,14.8505,14.8505,14.8505,14.8505,14.8505,14.8505,14.8505,14.8505,14.8505,14.8505,14.8505,14.9528,15.1032,15.2941,15.4548,15.6051,15.7904,15.843,15.843,15.843,15.843,15.843,15.843,15.843,15.843,15.843,15.843,15.843,15.843,15.843,15.843,15.843,15.843,15.8129,15.7178,15.778,15.8129,15.7178,15.7904,15.828,15.7404,15.6006,15.447,15.2806,15.1301,15.0049,14.9143,14.9067,14.9067,14.9067,14.9067,14.9067,14.9067,14.9067,14.9067,14.9067,14.9067,14.9067,14.9067,14.9067,14.9067,14.9067,14.9067,14.9067,9.9849,11.2682,12.6957,13.5385,13.8726,13.9941,13.9941,13.9789,14.0439,14.3619,14.4061,14.4808,14.7948,14.7302,14.6775,14.7978,14.7151,14.658,14.7377,14.8068,14.8262,14.7602,14.8129,14.843,14.8204,14.8354,14.8505,14.8505,14.8505,14.8505,14.8505,14.8505,14.8505,14.8505,14.8505,14.8505,14.8505,14.8505,14.8505,14.8505,14.8505,14.8505,14.8505,14.8505,14.8505,14.8505,14.8505,14.8505,14.8505,14.8505,14.8505,14.8505,14.8505,14.8505,14.8505,14.8505,14.8354,14.8204,14.843,15.043,15.2958,15.341,15.562,15.8129,15.8355,15.843,15.843,15.843,15.843,15.843,15.843,15.843,15.843,15.843,15.843,15.843,15.843,15.843,15.843,15.843,15.843,15.843,15.843,15.843,15.843,15.843,15.843,15.8505,15.8581,15.5813,15.3937,15.3871,15.1223,14.9294,14.9143,14.9067,14.9067,14.9067,14.9067,14.9067,14.9067,14.9067,14.9067,14.9067,14.9067,14.9067,14.9067,14.9067,14.9067,14.9067,14.9067,14.9067,11.3973,12.149,12.6957,13.5385,13.8726,13.9941,13.9941,13.9789,14.0547,14.3862,14.438,14.4694,14.6506,14.7527,14.7723,14.6606,14.7347,14.673,14.2927,14.5948,14.7001,14.2927,14.5978,14.7978,14.655,14.7678,14.8505,14.8505,14.8505,14.8505,14.8505,14.8505,14.8505,14.8505,14.8505,14.8505,14.8505,14.8505,14.8505,14.8505,14.8505,14.8505,14.8505,14.8505,14.8505,14.8505,14.8505,14.8505,14.8505,14.8505,14.8505,14.8505,14.8505,14.8505,14.8505,14.8505,14.7602,14.658,14.8054,14.8881,14.9858,15.2668,15.4848,15.6577,15.7979,15.843,15.843,15.843,15.843,15.843,15.843,15.843,15.843,15.843,15.843,15.843,15.843,15.843,15.843,15.843,15.843,15.843,15.843,15.843,15.843,15.843,15.843,15.8505,15.8581,15.6824,15.5018,15.3936,15.2092,15.0502,14.9218,14.9067,14.9067,14.9067,14.9067,14.9067,14.9067,14.9067,14.9067,14.9067,14.9067,14.9067,14.9067,14.9067,14.9067,14.9067,14.9067,14.9067,10.9417,11.7086,12.3996,13.0602,13.6145,13.9941,13.9941,13.9865,14.0473,14.2979,14.3282,14.3823,14.6169,14.6279,14.6099,14.5993,14.6713,14.6068,14.2927,14.5151,14.6023,14.2776,14.5227,14.6851,14.6023,14.7527,14.8505,14.8505,14.8505,14.8505,14.8505,14.8505,14.8505,14.8505,14.8505,14.8505,14.8505,14.8505,14.8505,14.8505,14.8505,14.8505,14.8505,14.8505,14.8505,14.8505,14.8505,14.8505,14.8505,14.8505,14.8505,14.8505,14.8505,14.8505,14.8505,14.8505,14.7978,14.7452,14.8218,14.9121,15.0234,15.2696,15.4574,15.6201,15.7904,15.843,15.843,15.843,15.843,15.843,15.843,15.843,15.843,15.843,15.843,15.843,15.843,15.843,15.843,15.843,15.843,15.843,15.843,15.843,15.843,15.843,15.843,15.843,15.8505,15.6953,15.5723,15.5186,15.2833,15.115,15.0502,14.9596,14.9067,14.9067,14.9067,14.9067,14.9067,14.9067,14.9067,14.9067,14.9067,14.9067,14.9067,14.9067,14.9067,14.9067,14.9067,14.9067,10.5696,11.3745,12.2249,12.7337,13.3259,13.8195,13.9638,13.9941,14.0321,14.1688,14.1991,14.2937,14.5766,14.526,14.4625,14.5452,14.5767,14.5209,14.2852,14.4249,14.4745,14.279,14.4294,14.5347,14.4971,14.6475,14.7602,14.7903,14.7978,14.8129,14.8505,14.8505,14.8505,14.8505,14.8505,14.8505,14.8505,14.8505,14.8505,14.8505,14.8505,14.8505,14.8505,14.8505,14.8505,14.8505,14.8505,14.8505,14.8505,14.8505,14.8505,14.8505,14.8505,14.8505,14.8505,14.8505,14.8054,14.7527,14.8262,14.9121,15.0355,15.2744,15.4623,15.6201,15.7904,15.843,15.843,15.843,15.843,15.843,15.843,15.843,15.843,15.843,15.843,15.843,15.843,15.843,15.843,15.843,15.843,15.843,15.843,15.843,15.843,15.843,15.843,15.843,15.843,15.6953,15.5874,15.5742,15.3154,15.1293,15.1031,14.9822,14.9067,14.9067,14.9067,14.9067,14.9067,14.9067,14.9067,14.9067,14.9067,14.9067,14.9067,14.9067,14.9067,14.9067,14.9067,14.9067,11.7692,12.2553,12.5742,13.083,13.1513,13.25,13.8575,13.9941,14.0017,14.0169,14.1232,14.2674,14.4489,14.5488,14.5678,14.443,14.5165,14.4381,13.9695,14.1844,14.264,13.9407,14.1888,14.3241,14.1737,14.3091,14.467,14.6143,14.6249,14.6926,14.843,14.8505,14.8505,14.8505,14.8505,14.8505,14.8505,14.8505,14.8505,14.8505,14.8505,14.8505,14.8505,14.8505,14.8505,14.8505,14.8505,14.8505,14.8505,14.8505,14.8505,14.8505,14.8505,14.8505,14.8505,14.8505,14.6655,14.455,14.7452,14.7602,14.7227,15.201,15.4595,15.6201,15.7904,15.843,15.843,15.843,15.843,15.843,15.843,15.843,15.843,15.843,15.843,15.843,15.843,15.843,15.843,15.843,15.843,15.843,15.843,15.843,15.843,15.843,15.843,15.843,15.843,15.6953,15.5374,15.3973,15.2423,15.0773,14.9294,14.9143,14.9067,14.9067,14.9067,14.9067,14.9067,14.9067,14.9067,14.9067,14.9067,14.9067,14.9067,14.9067,14.9067,14.9067,14.9067,14.9067,10.4404,11.086,11.6479,11.8453,12.4527,13.0981,13.4702,13.6221,13.7511,13.9562,14.0397,14.1308,14.2827,14.4278,14.4682,14.2801,14.455,14.4369,13.9288,14.0685,14.1211,13.888,14.0685,14.1888,14.1211,14.264,14.4338,14.5886,14.5948,14.673,14.843,14.8505,14.8505,14.8505,14.8505,14.8505,14.8505,14.8505,14.8505,14.8505,14.8505,14.8505,14.8505,14.8505,14.8505,14.8505,14.8505,14.8505,14.8505,14.8505,14.8505,14.8505,14.8505,14.8505,14.8354,14.7377,14.6204,14.5076,14.5466,14.5723,14.6504,14.9528,15.234,15.48,15.6427,15.7554,15.843,15.843,15.843,15.843,15.843,15.843,15.843,15.843,15.843,15.843,15.843,15.843,15.843,15.843,15.843,15.843,15.843,15.843,15.843,15.843,15.843,15.843,15.843,15.7829,15.7178,15.6652,15.5231,15.3675,15.2088,15.1106,15.02,14.9143,14.9067,14.9067,14.9067,14.9067,14.9067,14.9067,14.9067,14.9067,14.9067,14.9067,14.9067,14.9067,14.9067,14.9067,9.6956,10.3493,11.0252,11.1239,11.9364,12.7868,13.1057,13.2272,13.4095,13.8954,13.9941,14.0397,14.1916,14.313,14.3385,14.1902,14.3521,14.3467,13.9181,13.9632,13.9933,13.873,13.9632,14.0384,14.0384,14.1437,14.2834,14.4424,14.452,14.5452,14.7678,14.7753,14.7978,14.8505,14.8505,14.8505,14.8505,14.8505,14.8505,14.8505,14.8505,14.8505,14.8505,14.8505,14.8505,14.8505,14.8505,14.8505,14.8505,14.8505,14.8505,14.8505,14.8505,14.8505,14.8354,14.7151,14.6399,14.5842,14.4682,14.4714,14.5647,14.7828,15.0113,15.2593,15.5149,15.6727,15.778,15.828,15.843,15.843,15.843,15.843,15.843,15.843,15.843,15.843,15.843,15.843,15.843,15.843,15.843,15.843,15.843,15.843,15.843,15.843,15.843,15.843,15.843,15.843,15.8129,15.7178,15.6147,15.4716,15.2657,15.1484,15.0351,14.9143,14.9067,14.9067,14.9067,14.9067,14.9067,14.9067,14.9067,14.9067,14.9067,14.9067,14.9067,14.9067,14.9067,14.9067,10.2383,10.614,11.0784,11.4201,11.7542,12.1794,12.8552,12.8779,12.9918,13.8271,13.9941,14.0473,14.2143,14.2295,14.2051,14.1954,14.1709,14.0878,13.888,13.8579,13.8579,13.8579,13.8579,13.8579,13.8579,13.8655,13.9331,14.1028,14.1167,14.2626,14.5828,14.5978,14.673,14.843,14.8505,14.8505,14.8505,14.8505,14.8505,14.8505,14.8505,14.8505,14.8505,14.8505,14.8505,14.8505,14.8505,14.8505,14.8505,14.8505,14.8505,14.8505,14.8505,14.8505,14.8505,14.8505,14.7422,14.6004,14.5929,14.495,14.4231,14.7497,14.8505,14.9482,15.4397,15.5901,15.6276,15.7979,15.843,15.843,15.843,15.843,15.843,15.843,15.843,15.843,15.843,15.843,15.843,15.843,15.843,15.843,15.843,15.843,15.843,15.843,15.843,15.843,15.843,15.843,15.7178,15.3973,15.3748,15.2507,14.9227,14.9033,14.9143,14.9067,14.9067,14.9067,14.9067,14.9067,14.9067,14.9067,14.9067,14.9067,14.9067,14.9067,14.9067,14.9067,14.9067,14.9067,9.5319,10.103,10.6819,10.7897,11.3213,12.0275,12.8248,13.0526,13.2044,13.5841,13.6524,13.6676,13.7208,14.0093,14.1914,14.0522,14.1149,14.1104,13.9106,13.873,13.8579,13.8579,13.8579,13.8579,13.8579,13.8579,13.9256,14.0953,14.1136,14.2533,14.5811,14.5948,14.673,14.843,14.8505,14.8505,14.8505,14.8505,14.8505,14.8505,14.8505,14.8505,14.8505,14.8505,14.8505,14.8505,14.8505,14.8505,14.8505,14.8505,14.8505,14.8505,14.8505,14.8505,14.8354,14.7227,14.6475,14.5647,14.3423,14.3091,14.4005,14.6112,14.8369,15.0957,15.4764,15.6748,15.7705,15.828,15.843,15.843,15.843,15.843,15.843,15.843,15.843,15.843,15.843,15.843,15.843,15.843,15.843,15.843,15.843,15.843,15.843,15.843,15.843,15.843,15.843,15.7404,15.6276,15.5251,15.4295,15.2941,15.0809,15.0729,15.0351,14.9143,14.9067,14.9067,14.9067,14.9067,14.9067,14.9067,14.9067,14.9067,14.9067,14.9067,14.9067,14.9067,14.9067,14.9067,9.456,10.0031,10.5438,10.7366,11.1239,11.6858,12.5287,12.6957,12.764,13.0678,13.1209,13.1741,13.3639,13.8119,14.1072,13.9794,14.037,14.0577,13.9181,13.888,13.8805,13.8579,13.8655,13.873,13.8579,13.8579,13.9031,14.0126,14.0201,14.1555,14.495,14.5121,14.6129,14.843,14.8505,14.8505,14.8505,14.8505,14.8505,14.8505,14.8505,14.8505,14.8505,14.8505,14.8505,14.8505,14.8505,14.8505,14.8505,14.8505,14.8505,14.8505,14.8505,14.8505,14.8354,14.7302,14.6926,14.658,14.3904,14.3241,14.3854,14.5477,14.7422,14.9887,15.3815,15.6174,15.7554,15.828,15.843,15.843,15.843,15.843,15.843,15.843,15.843,15.843,15.843,15.843,15.843,15.843,15.843,15.843,15.843,15.843,15.843,15.843,15.843,15.843,15.843,15.7479,15.6577,15.5949,15.4613,15.2833,15.0694,15.0577,15.02,14.9143,14.9671,15.0049,15.0049,15.0049,14.9747,14.9143,14.9067,14.9067,14.9067,14.9067,14.9067,14.9067,14.9143,14.9143,9.7982,10.1859,10.5823,11.0783,11.1239,11.2606,12.0503,11.9744,11.8681,12.3312,12.4299,12.5742,13.0602,13.5537,13.905,13.9459,13.9532,13.9331,13.9181,13.9407,13.9374,13.8889,13.8998,13.9031,13.8655,13.8579,13.8579,13.8579,13.8579,14.0051,14.3328,14.3617,14.5076,14.8204,14.843,14.8505,14.8505,14.8505,14.8505,14.8505,14.8505,14.8505,14.8505,14.8505,14.8505,14.8505,14.8505,14.8505,14.8505,14.8505,14.8505,14.8505,14.8505,14.8505,14.8505,14.8505,14.8505,14.8279,14.658,14.4971,14.393,14.5628,14.6053,14.6917,15.2121,15.4725,15.6276,15.7979,15.843,15.843,15.843,15.843,15.843,15.843,15.843,15.843,15.843,15.843,15.843,15.843,15.843,15.843,15.843,15.843,15.843,15.843,15.843,15.843,15.843,15.8355,15.7528,15.5938,15.4312,15.223,14.9335,14.9218,14.9218,14.9067,15.0653,15.1559,15.1408,15.1559,15.0804,14.9143,14.9067,14.9143,14.9143,14.9143,14.9143,14.9143,14.9218,14.9328,9.2025,9.6582,10.2049,10.5772,11.1239,11.6554,11.9744,11.8908,11.739,11.739,11.739,11.8149,12.0503,12.5059,13.0979,13.8671,13.8646,13.8579,14.1028,14.1329,14.1272,14.1121,14.1043,14.0352,13.9031,13.873,13.8579,13.8579,13.8579,13.9524,14.1555,14.2972,14.4505,14.6504,14.7828,14.8505,14.8505,14.8505,14.8505,14.8505,14.8505,14.8505,14.8505,14.8505,14.8505,14.8505,14.8505,14.8505,14.8505,14.8505,14.8505,14.8505,14.8505,14.8505,14.8505,14.8505,14.8505,14.8279,14.658,14.4926,14.4144,14.6982,14.7046,14.7135,15.3447,15.56,15.6276,15.7979,15.843,15.843,15.843,15.843,15.843,15.843,15.843,15.843,15.843,15.843,15.843,15.843,15.843,15.843,15.843,15.843,15.843,15.843,15.843,15.843,15.843,15.7254,15.5901,15.4247,15.2762,15.0983,14.9108,15.0124,15.0351,14.9143,15.0694,15.1035,14.9752,15.0955,15.0804,14.9143,14.9218,14.9218,14.9218,14.9369,14.9369,14.9369,14.9445,14.947,9.3699,9.8331,10.2279,10.2583,10.7215,11.1923,11.2834,11.2378,11.1467,11.0632,11.0404,11.1847,11.6554,11.906,12.3464,13.2728,13.4726,13.6481,14.04,14.0975,14.1472,14.2803,14.1548,14.0791,14.1263,13.975,13.873,13.8579,13.8579,13.9331,14.1028,14.1963,14.3573,14.5903,14.6926,14.7753,14.8505,14.8505,14.8505,14.8505,14.8505,14.8505,14.8505,14.8505,14.8505,14.8505,14.8505,14.8505,14.8505,14.8505,14.8505,14.8505,14.8505,14.8505,14.8505,14.8505,14.8505,14.8354,14.7452,14.6053,14.5001,14.6757,14.724,14.7828,15.139,15.4097,15.6126,15.7028,15.7829,15.843,15.843,15.843,15.843,15.843,15.843,15.843,15.843,15.843,15.843,15.843,15.843,15.843,15.843,15.843,15.843,15.843,15.843,15.843,15.843,15.763,15.6201,15.3823,15.2866,15.1467,14.9073,14.9792,14.9973,14.9148,15.1373,15.2053,15.032,15.1147,15.088,14.9218,14.9294,14.9374,14.938,14.9456,14.9456,14.9456,14.9532,14.9572,9.7572,10.1976,10.433,10.1748,10.3266,10.5241,10.5013,10.4785,10.4481,10.4254,10.4405,10.6835,11.4125,11.5264,11.739,12.4451,12.9083,13.3509,13.8538,13.9841,14.1216,14.3693,14.1571,14.0863,14.3144,14.0666,13.888,13.8579,13.8579,13.9181,14.0652,14.0953,14.2382,14.5151,14.5753,14.6655,14.8129,14.8129,14.8279,14.8505,14.8505,14.8505,14.8505,14.8505,14.8505,14.8505,14.8505,14.8505,14.8505,14.8505,14.8505,14.8505,14.8505,14.8505,14.8505,14.8505,14.8505,14.8505,14.8505,14.7377,14.6023,14.6262,14.7165,14.8324,14.9076,15.2189,15.5525,15.5675,15.7028,15.8505,15.8505,15.8505,15.843,15.843,15.843,15.843,15.843,15.843,15.843,15.843,15.843,15.843,15.843,15.843,15.843,15.843,15.843,15.843,15.843,15.843,15.7178,15.3898,15.3665,15.2432,14.9165,14.9265,14.9335,14.9037,15.1786,15.2843,15.1639,15.1484,15.0753,14.9374,14.9449,14.9518,14.9493,14.9569,14.9569,14.9569,14.9645,14.9721,9.5142,10.0305,10.5165,10.6152,10.6683,10.6759,10.5317,10.3874,10.2431,10.0989,10.1824,10.3646,10.638,11.1391,11.5491,11.6782,12.3312,13.0525,13.6878,14.024,14.2295,14.2669,14.2142,14.1305,14.0218,13.943,13.888,13.8579,13.8579,13.873,13.8955,14.0352,14.1329,14.1856,14.452,14.6053,14.6354,14.6354,14.7076,14.8505,14.8505,14.8505,14.8505,14.8505,14.8505,14.8505,14.8505,14.8505,14.8505,14.8505,14.8505,14.8505,14.8505,14.8505,14.8505,14.8505,14.8505,14.8505,14.8505,14.7377,14.6204,14.7602,14.7315,14.7208,15.1453,15.3334,15.3965,15.4472,15.6577,15.8731,15.8731,15.8581,15.843,15.843,15.843,15.843,15.843,15.843,15.843,15.843,15.843,15.843,15.843,15.843,15.843,15.843,15.843,15.843,15.843,15.843,15.7178,15.3898,15.3543,15.2338,14.9188,15.0241,15.0426,14.9033,14.952,15.0426,15.1559,15.0351,14.9621,14.9496,14.9572,14.9632,14.9645,14.9721,14.9797,14.9797,14.9797,14.9797,9.7268,10.19,10.6304,10.6152,10.6152,10.5924,10.5165,10.433,10.357,10.2811,10.3266,10.4633,10.7215,10.9493,11.2454,11.701,12.2477,12.8172,13.4019,13.8423,14.184,14.3662,14.2143,14.1308,14.2143,14.0444,13.9106,13.8805,13.8805,13.873,13.8579,14.0201,14.1104,14.1104,14.3435,14.509,14.5993,14.6851,14.7753,14.8505,14.8505,14.8505,14.8505,14.8505,14.8505,14.8505,14.8505,14.8505,14.8505,14.8505,14.8505,14.8505,14.8505,14.8505,14.8505,14.8505,14.8505,14.8505,14.8505,14.7978,14.7377,14.7377,14.7422,14.7842,14.9377,15.114,15.2998,15.5023,15.6462,15.7704,15.8557,15.8656,15.843,15.843,15.843,15.843,15.843,15.843,15.843,15.843,15.843,15.843,15.843,15.843,15.843,15.843,15.843,15.843,15.843,15.763,15.6201,15.3823,15.2791,15.1359,14.9033,14.9642,14.9902,14.9108,14.9223,14.9603,15.0426,14.9799,14.9427,14.9569,14.9721,14.9797,14.9797,14.9797,14.9873,14.9873,14.9873,14.9873,10.3191,0.0,10.9645,10.8734,10.8202,10.7671,0.0,10.6456,10.5924,10.5089,10.5241,10.638,10.8961,10.8734,11.0176,11.6554,12.0427,12.4527,12.9994,13.4702,13.9182,14.3282,14.1536,14.0852,14.3206,14.1101,13.9369,13.8991,13.8973,13.888,13.8579,14.0201,14.1104,14.1136,14.3134,14.4757,14.5961,14.7271,14.8129,14.8505,14.8505,14.8505,14.8505,14.8505,14.8505,14.8505,14.8505,14.8505,14.8505,14.8505,14.8505,14.8505,14.8505,14.8505,14.8505,14.8505,14.8505,14.8505,14.8505,14.8505,14.843,14.7302,14.7902,14.8882,14.8127,15.0102,15.3077,15.5583,15.657,15.7292,15.8542,15.8656,15.843,15.843,15.843,15.843,15.843,15.843,15.843,15.843,15.843,15.843,15.843,15.843,15.843,15.843,15.843,15.843,15.843,15.6953,15.5299,15.3721,15.2114,15.0563,14.8812,14.895,14.9196,14.9284,14.9299,14.9365,14.95,14.9508,14.9569,14.9721,14.9797,14.9873,14.9873,14.9873,14.9873,14.9873,14.9873,14.9873,0.0,11.6403,11.7086,11.8529,11.7693,11.5719,11.2682,11.0784,0.0,10.562,10.6228,10.7367,10.7595,10.8885,11.0024,11.0632,11.3593,11.8073,12.4603,12.8552,13.3107,13.9562,14.0093,13.9941,13.9941,13.9711,13.9401,13.9022,13.9004,13.888,13.8579,14.0201,14.1136,14.1078,14.4174,14.5828,14.5978,14.6053,14.7001,14.8505,14.8505,14.8505,14.8505,14.8505,14.8505,14.8505,14.8505,14.8505,14.8505,14.8505,14.8505,14.8505,14.8505,14.8505,14.8505,14.8505,14.8505,14.8505,14.8505,14.8655,14.8806,14.873,14.8946,14.9576,15.1022,15.3,15.4748,15.4976,15.695,15.9038,15.9145,15.8806,15.843,15.843,15.843,15.843,15.843,15.843,15.843,15.843,15.843,15.843,15.843,15.843,15.843,15.843,15.843,15.843,15.843,15.6953,15.5347,15.3786,15.2206,15.0506,14.8851,14.9076,14.9251,14.9299,14.9306,14.9314,14.9466,14.9591,14.9721,14.9873,14.9873,14.9873,14.9873,14.9873,14.9873,14.9873,14.9873,14.9873,11.6554,11.8149,11.9136,11.9744,11.8681,11.6858,11.4656,11.2834,11.0936,10.8582,10.8658,10.9037,10.9037,10.9569,11.1391,11.5491,11.7238,12.0427,12.7185,13.0981,13.4019,13.66,13.8726,13.9941,13.9789,13.9789,13.9713,13.941,13.9257,13.9599,14.0352,14.1898,14.321,14.4354,14.6429,14.7602,14.7602,14.7602,14.7903,14.8505,14.8505,14.8505,14.8505,14.8505,14.8505,14.8505,14.8505,14.8505,0.0,14.8505,14.8505,14.8505,14.8505,14.8505,14.8505,14.8505,14.858,14.873,14.873,14.8881,14.9175,14.9121,14.9297,14.966,15.0268,15.1179,15.2318,15.4368,15.6342,15.8051,15.8994,15.8957,15.8656,15.8505,15.843,15.843,15.843,15.843,15.843,15.843,15.843,15.843,15.843,15.843,15.843,15.843,15.843,15.843,15.843,15.6126,15.4247,15.3635,15.1258,14.9601,14.9102,14.9211,14.9306,14.941,14.9491,14.9569,14.9721,14.9797,14.9797,14.9873,14.9873,14.9873,14.9873,14.9873,14.9873,14.9873,14.9873,14.9873,12.0047,12.1034,12.1794,12.2857,12.187,11.9895,11.7238,11.534,11.3289,11.0556,11.0024,11.0024,11.0024,11.0024,11.1695,11.6782,11.8908,12.2097,12.84,13.2576,13.5385,13.6524,13.8575,13.9941,13.9941,13.9941,13.9865,13.9562,14.0002,14.0652,14.1597,14.3435,14.5165,14.6429,14.7978,14.873,14.858,14.858,14.858,14.8505,14.8505,14.8505,14.8505,14.8505,14.8505,14.8505,14.8505,14.8505,14.8505,14.8505,14.8505,14.8505,14.8505,14.858,14.858,14.858,14.8806,14.8971,14.8992,14.9198,14.9422,14.9397,14.9585,14.9812,14.9812,14.9964,15.0648,15.3381,15.5583,15.7311,15.8283,15.8727,15.8881,15.8731,15.8581,15.8581,15.8581,15.8505,15.843,15.843,15.843,15.843,15.843,15.843,15.843,15.843,15.843,15.8505,15.8581,15.575,15.3721,15.3711,15.0882,14.9108,14.9306,14.9418,14.9493,14.9569,14.9721,14.9797,14.9873,14.9873,14.9873,14.9873,14.9873,14.9873,14.9873,14.9873,14.9873,14.9873,14.9873,14.9873,12.5666,12.6274,12.5818,12.9159,12.8779,12.6198,12.111,11.8605,11.6023,11.1087,11.0024,11.0024,11.0024,11.0024,11.0556,11.2302,11.6706,12.1718,12.6805,13.1893,13.6297,13.9562,13.9941,13.9941,13.9941,13.9941,13.9865,13.9562,14.1156,14.2034,14.1906,14.4714,14.6475,14.6775,14.84,14.9152,14.8926,14.8926,14.873,14.8505,14.8505,14.8505,14.8505,14.8505,14.8505,14.8505,14.8505,14.8505,14.8505,14.8505,14.8505,14.8505,14.8505,14.8655,14.8881,14.8926,14.9076,14.9258,14.9277,14.9433,14.966,14.966,14.9888,15.004,15.004,15.004,15.042,15.209,15.4748,15.7026,15.7026,15.8083,15.9231,15.9231,15.9005,15.8806,15.8806,15.8656,15.843,15.843,15.843,15.843,15.843,15.843,15.843,15.843,15.843,15.8505,15.8731,15.5976,15.3994,15.4132,15.1228,14.9365,14.9457,14.9721,14.9873,14.9873,14.9873,14.9873,14.9873,14.9873,14.9873,14.9873,14.9873,14.9873,14.9873,14.9873,14.9873,14.9873,14.9873,14.9873,12.4527,12.5362,12.5818,12.9159,12.8779,12.6198,12.111,11.8605,11.6023,11.1087,11.0024,11.0024,11.0024,11.0024,11.1315,11.534,11.8225,12.1718,12.6805,13.1817,13.5309,13.6297,13.8499,13.9941,13.9941,13.9941,13.9941,13.9865,14.0169,14.0844,14.1958,14.3994,14.5739,14.7028,14.7332,14.8015,14.9153,14.9184,14.9106,14.9031,14.8881,14.873,14.873,14.858,14.8505,14.8505,14.8505,14.858,14.873,14.873,14.8881,14.9031,14.9031,14.9106,14.9133,14.9189,14.938,14.9558,14.9579,14.9736,14.9964,14.9964,15.004,15.004,15.004,15.004,15.042,15.209,15.3229,15.414,15.5279,15.6609,15.765,15.7498,15.8257,15.9103,15.9085,15.9032,15.8881,15.8731,15.8731,15.8656,15.8505,15.843,15.8505,15.8656,15.763,15.7028,15.7254,15.4423,15.2426,15.2352,15.0748,14.9736,14.9732,14.9797,14.9873,14.9873,14.9873,14.9873,14.9873,14.9873,14.9873,14.9873,14.9873,14.9873,14.9873,14.9873,14.9873,14.9873,14.9873,14.9873,12.4072,12.4983,12.5818,12.9159,12.9311,12.7185,12.2097,11.9592,11.701,11.2075,11.048,11.0024,11.0024,11.1163,11.3441,11.7693,12.1566,12.5514,12.9918,13.4246,13.6904,13.6904,13.8726,13.9941,13.9941,13.9941,13.9941,13.9941,14.0473,14.0852,14.1232,14.2827,14.4269,14.5256,14.6471,14.7534,14.8446,14.9117,14.9374,14.9298,14.9146,14.9025,14.9031,14.8881,14.8806,14.8806,14.8806,14.8881,14.9046,14.9091,14.9146,14.9298,14.9298,14.9374,14.9452,14.948,14.9585,14.9812,14.9812,14.9964,15.004,15.004,15.004,15.004,15.004,15.004,15.0268,15.1255,15.1559,15.1938,15.3609,15.4596,15.5355,15.5887,15.7178,15.8374,15.8361,15.8803,15.9181,15.903,15.8959,15.8881,15.8731,15.8731,15.8806,15.8957,15.7527,15.6533,15.676,15.3971,15.1877,15.1921,15.0672,14.9873,14.9873,14.9873,14.9873,14.9873,14.9873,14.9873,14.9873,14.9873,14.9873,14.9873,14.9873,14.9873,14.9873,14.9873,14.9873,14.9873,14.9873,14.9873,12.4072,12.4983,12.5818,12.9159,13.007,12.8703,12.3616,12.1262,11.8681,11.3593,11.1315,11.0252,11.0024,11.291,11.6327,11.9668,12.5818,13.1437,13.4854,13.7967,13.9941,13.9941,13.9941,13.9941,13.9941,13.9941,13.9941,13.9941,14.1384,14.1612,14.0017,14.1384,14.2295,14.2447,14.5636,14.7231,14.7155,14.8825,14.9585,14.9357,14.9357,14.9366,14.9293,14.9293,14.9293,14.9293,14.9293,14.9293,14.9338,14.9342,14.9357,14.9357,14.9357,14.9509,14.9736,14.9736,14.9888,15.004,15.004,15.004,15.004,15.004,15.004,15.004,15.004,15.004,15.004,15.004,15.004,15.042,15.1938,15.2394,15.2774,15.4368,15.5963,15.7102,15.7102,15.8241,15.9228,15.9228,15.9219,15.9235,15.9235,15.9235,15.916,15.9009,15.7551,15.6494,15.6646,15.38,15.1922,15.2149,15.0783,14.9873,14.9873,14.9873,14.9873,14.9873,14.9873,14.9873,14.9873,14.9873,14.9873,14.9873,14.9873,14.9873,14.9873,14.9873,14.9873,14.9873,14.9873,14.9873,12.4072,12.4983,12.5818,12.9159,13.007,12.8703,12.3616,12.2173,12.0123,11.3821,11.2226,11.1619,11.0252,11.3821,11.7997,12.1338,12.764,13.3183,13.6448,13.865,13.9941,13.9941,13.9941,13.9941,13.9941,13.9941,13.9941,13.9941,14.0321,14.0321,13.9941,14.0321,14.108,14.2447,14.4497,14.6168,14.7458,14.9129,14.9964,14.9888,14.966,14.9576,14.9591,14.9363,14.9287,14.9287,14.9287,14.9363,14.96,14.9579,14.9736,14.9888,14.9888,14.9964,14.9964,14.9964,15.004,15.004,15.004,15.004,15.004,15.004,15.004,15.004,15.004,15.004,15.004,15.004,15.004,15.0116,15.0496,15.0572,15.1027,15.2698,15.5279,15.7405,15.7405,15.862,15.9759,15.9532,15.9513,15.9457,15.9229,15.9229,15.8774,15.7712,15.6101,15.4593,15.3565,15.164,15.0328,15.0404,15.0101,14.9873,14.9873,14.9873,14.9873,14.9873,14.9873,14.9873,14.9873,14.9873,14.9873,14.9873,14.9873,14.9873,14.9873,14.9873,14.9873,14.9873,14.9873,14.9873,12.3844,12.4983,12.5818,12.9159,13.007,12.9159,12.5666,12.4224,12.2249,11.7162,11.5415,11.4125,11.1695,11.663,12.1642,12.3388,12.9994,13.5765,13.8271,13.941,13.9941,13.9941,13.9941,13.9941,13.9941,13.9941,13.9941,13.9941,13.9941,13.9941,13.9941,13.9941,14.0397,14.1232,14.2903,14.4573,14.632,14.799,14.9281,15.004,14.9964,14.9888,14.9888,14.9736,14.966,14.966,14.966,14.9736,14.9888,14.9888,14.9964,15.004,15.004,15.004,15.004,15.004,15.004,15.004,15.004,15.004,15.004,15.004,15.004,15.004,15.004,15.004,15.004,15.004,15.004,15.004,15.004,15.004,15.0268,15.1179,15.2698,15.414,15.4976,15.7026,15.9,15.9683,15.9759,15.9456,15.8544,15.8393,15.7861,15.6267,15.4596,15.3223,15.2475,15.0935,14.9873,14.9873,14.9873,14.9873,14.9873,14.9873,14.9873,14.9873,14.9873,14.9873,14.9873,14.9873,14.9873,14.9873,14.9873,14.9873,14.9873,14.9873,14.9873,14.9873,14.9873,14.9873,12.3236,12.4527,12.5362,12.8779,12.9615,12.9235,12.7792,12.6426,12.4451,12.1034,11.9288,11.739,11.4352,12.0199,12.5514,12.5818,13.288,13.8726,13.9789,14.0473,14.0625,14.0017,13.9941,13.9941,13.9941,13.9941,13.9941,13.9941,13.9941,13.9941,13.9941,13.9941,13.9941,13.9941,14.1308,14.2979,14.5029,14.6699,14.837,15.004,15.004,15.004,15.004,15.004,15.004,15.004,15.004,15.004,15.004,15.004,15.004,15.004,15.004,15.004,15.004,15.004,15.004,15.004,15.004,15.004,15.004,15.004,15.004,15.004,15.004,15.004,15.004,15.004,15.004,15.004,15.004,15.004,15.004,15.004,15.004,15.0496,15.2242,15.4748,15.7102,15.8772,15.9076,15.862,15.7254,15.7026,15.6418,15.4746,15.3302,15.2305,15.2009,15.0708,14.9873,14.9873,14.9873,14.9873,14.9873,14.9873,14.9873,14.9873,14.9873,14.9873,14.9873,14.9873,14.9873,14.9873,14.9873,14.9873,14.9873,14.9873,14.9873,14.9873,14.9873,14.9873,12.1794,12.2781,12.3616,12.7033,12.7868,12.7792,12.7564,12.7337,12.6198,12.2857,12.1946,12.1186,11.9288,12.3464,12.764,12.9159,13.6373,14.1384,14.0169,14.2447,14.3206,14.0321,13.9941,13.9941,13.9941,13.9941,13.9941,13.9941,13.9941,13.9941,13.9941,13.9941,13.9941,13.9941,14.0169,14.184,14.4953,14.6699,14.837,15.004,15.004,15.004,15.004,15.004,15.004,15.004,15.004,15.004,15.004,15.004,15.004,15.004,15.004,15.004,15.004,15.004,15.004,15.004,15.004,15.004,15.004,15.004,15.004,15.004,15.004,15.004,15.004,15.004,15.004,15.004,15.004,15.004,15.004,15.004,15.004,15.0496,15.2242,15.2926,15.3685,15.5279,15.5583,15.5507,15.5279,15.5279,15.4669,15.2949,15.2551,15.1868,15.0404,15.0025,14.9873,14.9873,14.9873,14.9873,14.9873,14.9873,14.9873,14.9873,14.9873,14.9873,14.9873,14.9873,14.9873,14.9873,14.9873,14.9873,14.9873,14.9873,14.9873,14.9873,14.9873,14.9873,11.9592,12.1034,12.187,12.5287,12.6122,12.6122,12.6122,12.6122,12.5666,12.4224,12.4603,12.4755,12.3085,12.6957,13.0298,13.007,13.5461,13.941,13.865,14.0625,14.1612,14.0169,13.9941,13.9941,13.9941,13.9941,13.9941,13.9941,13.9941,13.9941,13.9941,13.9941,13.9941,13.9941,13.9941,14.0701,14.2143,14.389,14.6016,14.8673,14.8673,14.9129,15.004,15.004,15.004,15.004,15.004,15.004,15.004,15.004,15.004,15.004,15.004,15.004,15.004,15.004,15.004,15.004,15.004,14.9433,14.8673,14.8673,14.9281,15.004,15.004,15.004,15.004,15.004,15.004,15.004,15.004,15.004,15.004,15.004,15.004,15.0268,15.1027,15.1938,15.2774,15.3457,15.4292,15.4672,15.3761,15.3533,15.2996,15.1336,15.1011,15.0708,14.9949,14.9873,14.9873,14.9873,14.9873,14.9873,14.9873,14.9873,14.9873,14.9873,14.9873,14.9873,14.9873,14.9873,14.9873,14.9873,14.9873,14.9873,14.9873,14.9873,14.9873,14.9873,14.9873,14.9873,11.6706,11.8073,11.8832,12.2173,12.3388,12.3844,12.4224,12.4679,12.4983,12.4983,12.597,12.6653,12.5818,12.8703,13.1133,13.0754,13.4474,13.7436,13.7436,13.9258,14.0473,14.0017,13.9941,13.9941,13.9941,13.9941,13.9941,13.9941,13.9941,13.9941,13.9941,13.9941,13.9941,13.9941,13.9941,13.9941,13.9941,14.1612,14.3966,14.6927,14.6927,14.7534,14.8749,14.8749,14.8977,14.9433,14.9433,14.966,15.004,15.004,15.004,15.004,14.9585,14.9433,14.9357,14.8901,14.8749,14.8749,14.8749,14.7914,14.7003,14.7383,14.837,14.9509,14.9964,15.004,15.004,15.004,15.004,15.004,15.004,15.004,15.004,15.004,15.004,15.004,15.004,15.1027,15.1938,15.1938,15.285,15.3305,15.2166,15.1861,15.1389,15.0187,14.9949,14.9873,14.9873,14.9873,14.9873,14.9873,14.9873,14.9873,14.9873,14.9873,14.9873,14.9873,14.9873,14.9873,14.9873,14.9873,14.9873,14.9873,14.9873,14.9873,14.9873,14.9873,14.9873,14.9873,14.9873,14.9873,11.2834,11.291,11.3745,11.701,11.8984,12.0579,12.2249,12.3844,12.4983,12.4983,12.5059,12.559,12.7109,12.7564,12.8779,13.1893,13.5234,13.7436,13.7436,14.0245,14.1764,14.0169,13.9941,13.9941,13.9941,13.9941,13.9941,13.9941,13.9941,13.9941,13.9941,13.9941,13.9941,13.9941,13.9941,13.9941,13.9941,14.1612,14.3358,14.5181,14.5181,14.5181,14.5256,14.5256,14.6168,14.7686,14.7686,14.8597,15.004,15.004,15.004,14.9888,14.8294,14.7686,14.7458,14.5864,14.5256,14.5256,14.5256,14.5181,14.5408,14.7003,14.761,14.799,14.9585,15.004,15.004,15.004,15.004,15.004,15.004,15.004,15.004,15.004,15.004,15.004,15.004,15.0116,15.0192,15.0192,15.0268,15.0268,15.0192,15.0093,14.996,14.9873,14.9873,14.9873,14.9873,14.9873,14.9873,14.9873,14.9873,14.9873,14.9873,14.9873,14.9873,14.9873,14.9873,14.9873,14.9873,14.9873,14.9873,14.9873,14.9873,14.9873,14.9873,14.9873,14.9873,14.9873,14.9873,14.9873,11.1619,11.1771,11.1695,11.5112,11.6327,11.6934,11.7618,11.8984,12.0427,12.149,12.3464,12.5514,12.7185,12.7489,12.8248,13.0602,13.0981,13.1437,13.25,13.4702,13.6297,13.6676,13.7663,13.8726,13.9865,13.8954,13.8802,13.9865,13.9941,13.9941,13.9941,13.9941,13.9941,13.9941,13.9941,13.9941,13.9941,14.0549,14.1156,14.1764,14.2903,14.3966,14.5029,14.5029,14.5332,14.594,14.594,14.6244,14.6851,14.6851,14.6851,14.6775,14.6168,14.594,14.5864,14.5256,14.5029,14.4725,14.2523,14.2447,14.351,14.4118,14.5788,14.7686,14.8294,14.9205,15.004,15.004,15.004,15.004,15.004,15.004,15.004,15.004,15.004,15.004,15.004,15.004,15.004,15.004,15.004,15.004,15.004,15.0011,14.9949,14.9873,14.9873,14.9873,14.9873,14.9873,14.9873,14.9873,14.9873,14.9873,14.9873,14.9873,14.9873,14.9873,14.9873,14.9873,14.9873,14.9873,14.9873,14.9873,14.9873,14.9873,14.9873,14.9873,14.9873,14.9873,14.9873,14.9873,10.8734,10.9189,10.9721,11.1999,11.3365,11.4201,11.4201,11.5491,11.6934,11.8073,12.0123,12.2173,12.3768,12.4603,12.5514,12.7261,12.7033,12.7261,12.8931,13.0146,13.1665,13.3867,13.5082,13.6676,13.8878,13.8119,13.7891,13.903,13.9638,13.9941,13.9941,13.9941,13.9941,13.9941,13.9941,13.9941,13.9941,13.9941,13.9941,13.9941,14.108,14.2219,14.3282,14.3282,14.3662,14.4118,14.4118,14.4497,14.5029,14.5029,14.5029,14.4953,14.4421,14.4118,14.4118,14.351,14.3282,14.2979,14.0701,14.0701,14.1688,14.2295,14.3966,14.6016,14.7155,14.8294,14.9357,14.9888,15.004,15.004,15.004,15.004,15.004,15.004,15.004,15.004,15.004,15.004,15.004,15.004,15.004,15.004,15.0031,14.9997,14.9949,14.9873,14.9873,14.9873,14.9873,14.9873,14.9873,14.9873,14.9873,14.9873,14.9873,14.9873,14.9873,14.9873,14.9873,14.9873,14.9873,14.9873,14.9873,14.9873,14.9873,14.9873,14.9873,14.9873,14.9873,14.9873,14.9873,14.9873,10.4026,10.5013,10.7443,10.7443,10.9948,11.2378,11.2378,11.3745,11.496,11.496,11.5036,11.5491,11.701,11.8681,12.0351,12.2022,12.3692,12.5362,12.7033,12.7337,12.8628,13.1969,13.2424,13.3715,13.6828,13.7208,13.7208,13.7284,13.8878,13.9865,13.9865,13.9941,13.9941,13.9941,13.9941,13.9941,13.9941,13.9941,13.9941,13.9941,13.9941,13.9941,13.9941,13.9941,14.0852,14.2371,14.2371,14.3358,14.4877,14.4877,14.4877,14.4725,14.3054,14.2371,14.2219,14.0549,13.9941,13.9941,13.9941,13.9941,14.0245,14.1916,14.2447,14.313,14.6395,14.7458,14.7914,14.9509,15.004,15.004,15.004,15.004,15.004,15.004,15.004,15.004,15.004,15.004,15.004,15.004,15.004,15.0034,14.9894,14.9873,14.9873,14.9873,14.9873,14.9873,14.9873,14.9873,14.9873,14.9873,14.9873,14.9873,14.9873,14.9873,14.9873,14.9873,14.9873,14.9873,14.9873,14.9873,14.9873,14.9873,14.9797,14.9797,14.9797,14.9721,14.9721,14.9721,14.9721,14.9721,10.7974,10.6835,10.5924,10.7215,10.8202,10.8885,10.8885,11.0176,11.1771,11.2986,11.4125,11.5036,11.5264,11.5947,11.6858,11.8301,11.906,12.0123,12.1794,12.3085,12.4679,12.6805,12.9235,13.0602,13.0298,13.1361,13.2576,13.3791,13.6524,13.8119,13.8119,13.9258,13.9941,13.9941,13.9941,13.9941,13.9941,13.9941,13.9941,13.9941,13.9941,13.9941,13.9941,13.9941,14.0245,14.0625,14.0625,14.0928,14.1384,14.1384,14.1384,14.1308,14.0852,14.0625,14.0625,14.0169,13.9941,13.9941,13.9941,13.9941,14.0017,14.0473,14.146,14.2675,14.3586,14.556,14.761,14.8066,14.9129,15.004,15.004,15.004,15.004,15.004,15.004,15.004,15.004,15.004,15.004,14.9964,14.9951,14.9904,14.9873,14.9873,14.9873,14.9873,14.9873,14.9873,14.9873,14.9873,14.9873,14.9873,14.9873,14.9873,14.9873,14.9873,14.9873,14.9873,14.9873,14.9873,14.9873,14.9873,14.9873,14.9873,14.8659,14.8052,14.8052,14.6837,14.623,14.623,14.623,14.623,10.2811,10.0761,9.9318,10.1672,10.1748,10.2128,10.5544,10.5924,10.6303,10.8572,10.9784,11.0619,11.115,11.2033,11.3121,11.4502,11.5567,11.6782,11.8453,11.9668,12.1262,12.3616,12.5059,12.5742,12.5438,12.7564,12.9691,13.1361,13.3943,13.5689,13.6373,13.7967,13.8878,13.8878,13.9562,13.9941,13.9941,13.9941,13.9941,13.9941,13.9941,13.9941,13.9941,13.9941,13.9941,13.9941,13.9941,13.9941,13.9941,13.9941,13.9941,13.9941,13.9941,13.9941,13.9941,13.9941,13.9941,13.9941,13.9941,13.9941,13.9941,13.9941,14.0625,14.1536,14.2295,14.389,14.5712,14.7155,14.8294,14.9129,14.9812,14.9964,14.9964,14.9964,14.9964,14.9964,14.9964,14.9959,14.9947,14.9871,14.9837,14.9873,14.9873,14.9873,14.9873,14.9873,14.9873,14.9873,14.9873,14.9873,14.9873,14.9873,14.9873,14.9873,14.9873,14.9873,14.9873,14.9873,14.9873,14.9873,14.9873,14.919,14.881,14.881,14.7141,14.6306,14.6306,14.532,14.4789,14.4789,14.3954,14.2387,9.2408,9.0738,9.0662,9.3471,9.3016,9.3775,0.0,10.0451,9.9284,10.2465,10.3428,10.4111,10.5791,10.7499,10.9104,11.0489,11.2508,11.4406,11.6005,11.6699,11.8225,12.1186,12.0427,12.0275,12.1718,12.4983,12.7564,12.9083,13.1133,13.288,13.4246,13.6145,13.7132,13.7132,13.8802,13.9638,13.9638,13.9865,13.9941,13.9941,13.9941,13.9941,13.9941,13.9941,13.9941,13.9941,13.9941,13.9941,13.9941,13.9941,13.9941,13.9941,13.9941,13.9941,13.9941,13.9941,13.9941,13.9941,13.9941,13.9941,13.9941,13.9941,13.9941,14.0245,14.1764,14.2295,14.313,14.6091,14.7077,14.7609,14.9203,14.9583,14.9659,14.9811,14.9887,14.9887,14.9887,14.9859,14.9873,14.9873,14.9873,14.9873,14.9873,14.9873,14.9873,14.9873,14.9873,14.9873,14.9873,14.9873,14.9873,14.9873,14.9873,14.9873,14.9873,14.9873,14.9797,14.9569,14.9569,14.9493,14.9342,14.79,14.7065,14.7065,14.5396,14.4561,14.4572,14.4192,14.3964,14.3889,14.1981,13.8199,0.0,0.0,0.0,0.0,0.0,0.0,0.0,9.0988,9.2339,9.5717,9.8452,10.0695,10.2048,10.3835,10.5178,10.5286,10.8093,11.0491,11.1018,11.3375,11.5317,11.5947,11.7162,11.7997,11.8377,12.1414,12.3616,12.392,12.802,13.0678,13.0981,13.3867,13.5537,13.5385,13.7056,13.7891,13.7891,13.9258,13.9941,13.9941,13.9941,13.9941,13.9941,13.9941,13.9941,13.9941,13.9941,13.9941,13.9941,13.9941,13.9941,13.9941,13.9941,13.9941,13.9941,13.9941,13.9941,13.9941,13.9941,13.9941,13.9941,13.9941,13.9941,14.0017,14.0321,14.1384,14.2598,14.3248,14.4439,14.5881,14.7551,14.8006,14.831,14.96,14.9904,14.9904,14.9904,14.9884,14.9873,14.9873,14.9873,14.9873,14.9873,14.9873,14.9873,14.9873,14.9873,14.9873,14.9873,14.9873,14.9873,14.9873,14.9873,14.9873,14.9873,14.9873,14.9266,14.79,14.7824,14.7217,14.5851,14.546,14.532,14.532,14.3726,14.2891,14.2891,14.016,13.8718,13.8338,13.6745,13.3004,0.0,0.0,0.0,0.0,0.0,0.0,0.0,0.0,0.0,0.0,0.0,9.3436,9.5828,0.0,10.0572,10.2107,10.4654,10.7163,10.8993,11.0924,11.2098,11.2053,11.3667,11.5188,11.6099,11.8453,12.0275,12.111,12.4375,12.6653,12.7489,13.0754,13.2576,13.25,13.4854,13.6221,13.6297,13.7891,13.8726,13.8726,13.9562,13.9941,13.9941,13.9941,13.9941,13.9941,13.9941,13.9941,13.9941,13.9941,13.9941,13.9865,13.903,13.8195,13.7436,13.7511,13.7511,13.7511,13.7436,13.7436,13.7436,13.7436,13.7436,13.7435,13.7424,13.8022,13.8851,13.9724,14.0615,14.1601,14.3347,14.4409,14.5232,14.6003,14.7445,14.8583,14.8583,14.9266,14.9873,14.9873,14.9873,14.9873,14.9873,14.8507,14.7672,14.8507,14.79,14.7976,14.9645,14.8431,14.7369,14.7369,14.6686,14.6155,14.6155,14.6155,14.6155,14.6079,14.6079,14.5699,14.4864,14.403,14.365,14.365,14.1222,13.9553,13.8718,13.5986,13.4165,13.3092,13.0351,12.7484,0.0,0.0,0.0,0.0,0.0,0.0,0.0,0.0,0.0,0.0,0.0,0.0,0.0,0.0,0.0,9.8969,10.1588,10.4208,10.6973,10.7735,10.8228,10.8895,11.0208,11.1996,11.4122,11.5565,11.7237,11.9288,12.1034,12.2705,12.4375,12.7413,12.9083,12.9083,13.1893,13.3487,13.3639,13.5537,13.6524,13.6524,13.8499,0.0,13.8954,13.9334,13.9258,13.903,13.8954,13.8954,13.8954,13.8954,13.9182,13.9258,13.6904,13.5158,13.3943,13.4095,13.4095,13.4171,13.4322,13.4398,13.4471,13.4775,13.4927,13.4922,13.4867,13.4924,0.0,13.6593,13.6972,13.7352,13.9021,14.0463,14.159,14.1894,14.403,14.6003,14.6306,14.752,14.8507,14.881,14.8886,14.8886,14.8886,14.6382,14.4864,14.623,14.5472,14.5699,14.8128,14.6306,14.4777,14.4789,14.3726,14.2967,14.2967,14.2349,14.2804,14.4713,14.3954,14.3271,14.2891,14.1677,14.0691,14.0084,13.7352,13.5303,13.3937,13.1954,13.025,12.8691,12.1623,11.8942,0.0,0.0,0.0,0.0,0.0,0.0,0.0,0.0,0.0,0.0,0.0,0.0,0.0,0.0,0.0,0.0,9.8183,10.1401,10.2074,10.2185,10.3305,10.6345,10.7054,10.8675,11.2174,11.2629,11.4098,11.7465,11.9288,12.0958,12.2629,12.4527,0.0,0.0,0.0,12.8324,12.84,13.1513,13.3107,13.3183,13.6221,13.6904,13.5537,13.7056,13.698,13.5613,13.5537,13.5461,13.5461,13.5461,13.6373,13.7284,13.2652,13.0754,13.0602,13.0602,13.0602,13.083,13.2196,0.0,0.0,13.4412,13.4876,13.4867,13.4933,13.4933,13.4933,13.5161,13.5161,13.5616,13.7286,13.7893,13.8349,13.9856,14.0539,14.1222,14.2728,14.3184,14.3715,14.5081,14.5384,14.5384,14.5384,14.3954,14.2816,14.2967,14.403,14.4485,14.3423,14.4181,14.4789,14.4789,14.4647,0.0,14.4582,14.1915,14.1526,14.4637,14.0691,13.7579,13.6062,13.5834,13.4306,13.1347,13.0891,13.0588,13.0446,12.8473,12.7289,12.6464,10.7839,10.3025,0.0,0.0,0.0,0.0,0.0,0.0,0.0,0.0,0.0,0.0,0.0,0.0,0.0,0.0,0.0,0.0,9.4034,9.665,9.6725,9.9268,10.1625,10.3233,10.4335,10.5642,10.7332,10.844,11.0049,11.2655,11.4477,11.6603,11.9336,12.1108,12.2477,12.3464,12.5135,12.6046,12.6046,12.84,12.9615,12.9691,13.1969,13.2728,13.212,13.2804,13.2804,13.2196,13.212,13.212,13.212,13.212,13.25,13.2728,0.0,0.0,0.0,0.0,12.7084,12.7236,12.7844,12.8052,12.817,12.8929,12.9156,12.9156,12.9156,12.9839,13.0598,13.0598,13.1281,13.2116,13.2809,13.3795,13.4706,13.5379,13.7058,13.8652,13.9401,14.0311,14.1222,14.1829,14.1981,0.0,13.8111,13.7883,13.8718,14.0691,14.0767,14.1298,14.3585,14.274,14.1981,14.1981,14.1081,14.0549,14.0549,13.9249,0.0,0.0,0.0,13.7731,13.4999,13.4913,0.0,0.0,0.0,12.1558,11.9585,11.3591,0.0,0.0,10.2634,10.0124,0.0,0.0,0.0,0.0,0.0,0.0,0.0,0.0,0.0,0.0,0.0,0.0,0.0,0.0,0.0,0.0,8.9444,9.2167,9.2167,9.6014,9.9118,9.9717,10.1359,10.2481,10.2711,10.4238,10.6256,10.862,10.9962,11.2225,11.5791,11.7139,11.8598,12.0346,12.1561,12.2245,12.2245,12.4375,12.5438,12.5438,12.8093,12.908,12.8628,12.9159,12.9083,12.8628,12.8628,12.8626,12.8699,12.8699,12.8926,12.9002,12.513,12.4351,12.5286,12.4072,12.3313,12.2934,12.3465,12.392,12.4376,12.4831,12.4983,12.4983,12.4983,12.5817,12.6804,12.6804,12.7639,12.8473,12.8473,12.9384,13.037,13.037,13.2201,13.4175,13.463,13.5682,13.6669,13.7124,13.6441,13.4848,13.1585,13.204,13.3861,13.6745,13.6897,13.8045,14.1601,14.0843,13.9932,13.9932,13.887,13.8111,13.8111,13.7276,13.7655,13.979,13.8187,13.6517,13.4999,13.3178,13.0978,12.8559,12.1037,11.5002,0.0,0.0,0.0,0.0,0.0,0.0,0.0,0.0,0.0,0.0,0.0,0.0,0.0,0.0,0.0,0.0,0.0,0.0,0.0,0.0,0.0,0.0,0.0,0.0,8.8773,9.1607,9.4333,9.594,9.7622,9.8781,9.9118,10.054,10.2936,10.657,10.6847,10.8516,11.2158,11.2377,11.3212,11.5042,11.5193,11.5193,11.5193,11.8522,12.0199,12.0199,12.5257,12.6699,12.5211,12.6881,12.6729,12.5135,12.5135,12.5124,12.5144,12.5144,12.613,12.7117,12.2023,12.0126,12.0202,12.0126,11.9064,11.784,11.9519,12.1188,12.2782,12.4451,12.4983,12.4983,12.4983,12.5058,12.5058,12.5058,12.5134,12.5134,12.5134,12.521,12.521,12.521,12.5286,12.5817,12.7487,12.7866,12.8322,12.9839,12.7639,12.5893,12.7411,12.7714,12.8322,12.9915,13.2951,0.0,13.5227,13.7959,13.9932,13.9932,13.9932,13.9856,13.9856,13.6897,13.6365,13.9704,13.3775,13.1574,13.4761,12.8701,12.521,12.5134,11.9822,11.3669,10.6885,0.0,0.0,0.0,0.0,0.0,0.0,0.0,0.0,0.0,0.0,0.0,0.0,0.0,0.0,0.0,0.0,0.0,0.0,0.0,0.0,0.0,0.0,0.0,0.0,8.7466,9.0936,9.2615,9.3353,9.3263,9.2181,9.457,9.7162,9.968,10.1854,10.4682,10.8357,10.8577,10.9418,11.1315,11.139,11.2006,11.322,11.4313,11.5458,11.6597,11.8313,11.8845,11.8267,11.8874,11.8798,11.8267,11.8267,11.8253,11.8371,11.9519,11.8988,11.7157,11.4426,11.3363,11.3515,11.4501,11.4577,11.4274,11.5952,11.6939,11.7537,11.8068,11.8144,11.7992,11.7992,11.8675,11.9747,12.1037,12.2175,12.3389,12.4679,12.4983,12.4983,12.4983,12.4983,12.5134,12.5741,12.5817,12.5969,12.65,12.3617,12.0278,11.7537,12.172,12.4527,12.1871,12.7107,13.1812,13.3016,13.5075,13.6441,13.6593,13.6593,13.6593,13.6593,13.5531,13.4913,13.4924,13.2788,13.0588,12.8397,12.5893,12.3085,11.9747,11.7764,11.065,9.8287,0.0,0.0,0.0,0.0,0.0,0.0,0.0,0.0,0.0,0.0,0.0,0.0,0.0,0.0,0.0,0.0,0.0,0.0,0.0,0.0,0.0,0.0,0.0,0.0,0.0,0.0,9.004,9.0317,0.0,8.6335,8.8406,9.0537,9.1839,9.4965,9.8632,10.2824,10.3659,10.5106,10.7623,10.7687,10.8288,10.9578,11.0185,11.1096,11.2225,11.3439,11.397,11.397,11.4577,11.4881,11.4881,11.4881,11.4881,11.4805,11.4122,11.2529,11.048,11.0025,10.9797,10.9873,11.0935,11.1011,11.0783,11.3145,11.36,11.3287,11.4426,11.3363,11.1816,11.2448,11.2047,11.1972,11.5019,11.6656,11.8068,12.0505,12.1112,12.1112,12.1112,12.1112,12.1112,12.1112,12.1112,12.1071,12.11,11.9105,11.5808,11.0848,11.4474,11.7489,11.5554,12.0268,12.5749,13.0555,13.2514,13.3785,13.4468,13.4544,13.462,13.4772,13.4772,13.4013,13.2343,13.1129,12.8473,12.3996,12.2402,11.9049,11.3442,11.248,10.6114,0.0,0.0,0.0,0.0,0.0,0.0,0.0,0.0,0.0,0.0,0.0,0.0,0.0,0.0,0.0,0.0,0.0,0.0,0.0,0.0,0.0,0.0,0.0,0.0,0.0,0.0,0.0,8.7939,8.8005,0.0,0.0,0.0,0.0,8.3309,8.6316,9.0339,9.5342,9.7248,9.9792,10.3423,10.3649,10.3946,10.4401,10.6003,10.6989,10.7369,11.0489,11.193,11.2006,11.3676,11.4359,11.4359,11.4359,11.4359,11.3979,10.9047,10.6846,10.6702,10.8128,10.8498,10.827,10.8726,10.7824,10.6838,11.0564,11.0792,10.9957,11.2689,11.0243,10.6484,10.784,10.4906,0.0,0.0,10.8514,10.9378,11.2878,11.3788,11.394,11.4092,11.4092,11.4092,11.4092,11.4092,11.394,11.351,11.3438,11.1766,10.6438,0.0,10.7106,11.0177,11.2575,11.7558,12.7209,13.0152,13.1931,13.3536,13.3688,13.3839,13.4219,13.4165,13.334,13.1585,12.8387,12.4951,12.1462,11.7961,11.3085,10.6557,10.4374,0.0,0.0,0.0,0.0,0.0,0.0,0.0,0.0,0.0,0.0,0.0,0.0,0.0,0.0,0.0,0.0,0.0,0.0,0.0,0.0,0.0,0.0,0.0,0.0,0.0,0.0,7.4058,7.6692,8.0772,7.9128,7.6692,0.0,0.0,0.0,0.0,0.0,0.0,8.5003,8.676,8.9854,9.4632,9.5878,9.8427,10.2353,10.2803,10.3811,10.5328,10.6163,10.6694,10.6838,10.7293,10.7521,10.7521,10.7521,10.7521,10.7065,10.1981,9.9789,9.9384,9.594,9.4533,9.4834,9.7299,9.7198,9.667,10.2369,10.3347,10.1981,10.1518,10.0434,9.8695,9.5223,0.0,0.0,0.0,0.0,10.1048,10.7041,10.9588,11.1093,11.3567,11.4094,11.4094,11.4094,11.4094,11.2152,10.5511,10.4225,10.1188,9.1355,9.3882,0.0,9.5111,10.3647,11.257,11.9017,12.4237,12.8128,12.9972,13.0197,13.0197,13.0273,12.9258,12.7335,12.4376,12.2265,11.9592,11.6211,11.151,10.6982,10.2872,0.0,0.0,0.0,0.0,0.0,0.0,0.0,0.0,0.0,0.0,0.0,0.0,0.0,0.0,0.0,0.0,0.0,0.0,0.0,0.0,0.0,0.0,0.0,0.0,0.0,0.0,0.0,6.9516,7.2627,7.6139,7.3748,7.1058,0.0,0.0,0.0,0.0,0.0,0.0,0.0,0.0,0.0,8.6899,8.7877,9.0152,9.396,9.6114,9.7782,9.9012,10.2063,10.3583,10.3735,10.457,10.4949,10.4949,10.4949,10.2816,9.9098,9.5456,9.2563,9.0036,0.0,0.0,0.0,0.0,8.7517,8.811,9.2586,9.4043,9.379,9.3488,0.0,0.0,0.0,0.0,0.0,0.0,0.0,9.5491,10.155,10.5477,10.8278,11.0115,11.1054,11.1354,11.068,10.6517,10.1496,9.6483,9.5528,9.276,8.4147,8.5899,0.0,0.0,0.0,10.5056,11.3006,11.9653,12.4333,12.6176,12.7646,12.8019,12.6699,12.5078,12.2719,11.9394,11.764,11.4603,10.9645,10.591,10.0722,0.0,0.0,0.0,0.0,0.0,0.0,0.0,0.0,0.0,0.0,0.0,0.0,0.0,0.0,0.0,0.0,0.0,0.0,0.0,0.0,0.0,0.0,0.0,0.0,0.0,0.0,0.0,0.0,0.0,7.0441,7.231,0.0,0.0,0.0,0.0,0.0,0.0,0.0,0.0,0.0,0.0,0.0,0.0,0.0,8.1067,8.3409,8.7728,9.0078,9.0488,9.6462,9.9507,9.9789,10.1458,10.2597,10.3204,10.2065,0.0,9.1275,8.8813,0.0,0.0,0.0,0.0,0.0,0.0,0.0,0.0,0.0,0.0,0.0,0.0,0.0,0.0,0.0,0.0,0.0,0.0,0.0,0.0,0.0,0.0,10.3968,10.3968,10.5396,10.6035,10.3791,9.5636,8.8356,8.7498,8.7332,8.5693,0.0,0.0,0.0,0.0,0.0,0.0,10.8107,11.5648,12.0773,12.2566,12.5379,12.6101,12.3462,12.167,11.9327,11.6055,11.3449,10.9217,10.303,10.0716,0.0,0.0,0.0,0.0,0.0,0.0,0.0,0.0,0.0,0.0,0.0,0.0,0.0,0.0,0.0,0.0,0.0,0.0,0.0,0.0,0.0,0.0,0.0,0.0,0.0,0.0,0.0,0.0,0.0,0.0,0.0,0.0,0.0,0.0,0.0,0.0,0.0,0.0,0.0,0.0,0.0,0.0,0.0,0.0,0.0,0.0,0.0,0.0,0.0,0.0,8.459,8.602,8.7481,8.7785,9.0289,9.4014,8.7026,8.5425,8.7238,7.9933,0.0,0.0,0.0,0.0,0.0,0.0,0.0,0.0,0.0,0.0,0.0,0.0,0.0,0.0,0.0,0.0,0.0,0.0,0.0,0.0,0.0,0.0,9.3753,9.3753,9.6009,9.6575,9.0808,0.0,0.0,0.0,0.0,0.0,0.0,0.0,0.0,0.0,0.0,0.0,10.1645,11.0746,11.767,12.08,12.1621,12.177,12.1247,11.969,11.7287,11.407,10.7048,10.1944,0.0,0.0,0.0,0.0,0.0,0.0,0.0,0.0,0.0,0.0,0.0,0.0,0.0,0.0,0.0,0.0,0.0,0.0,0.0,0.0,0.0,0.0,0.0,0.0,0.0,0.0,0.0,0.0,0.0,0.0,0.0,0.0,0.0,0.0,0.0,0.0,0.0,0.0,0.0,0.0,0.0,0.0,0.0,0.0,0.0,0.0,0.0,0.0,0.0,0.0,0.0,0.0,0.0,0.0,0.0,0.0,0.0,0.0,8.0649,7.6801,0.0,0.0,0.0,0.0,0.0,0.0,0.0,0.0,0.0,0.0,0.0,0.0,0.0,0.0,0.0,0.0,0.0,0.0,0.0,0.0,0.0,0.0,0.0,0.0,0.0,0.0,0.0,0.0,0.0,0.0,0.0,0.0,0.0,0.0,0.0,0.0,0.0,0.0,0.0,0.0,9.7609,10.7755,11.5363,11.782,11.885,11.9028,11.8159,11.58,11.1886,10.604,10.1089,0.0,0.0,0.0,0.0,0.0,0.0,0.0,0.0,0.0,0.0,0.0,0.0,0.0,0.0,0.0,0.0,0.0,0.0,0.0,0.0,0.0,0.0,0.0,0.0,0.0,0.0,0.0,0.0,0.0,0.0,0.0,0.0,0.0,0.0,0.0,0.0,0.0,0.0,0.0,0.0,0.0,0.0,0.0,0.0,0.0,0.0,0.0,0.0,0.0,0.0,0.0,0.0,0.0,0.0,0.0,0.0,0.0,0.0,0.0,7.4062,6.8556,0.0,0.0,0.0,0.0,0.0,0.0,0.0,0.0,0.0,0.0,0.0,0.0,0.0,0.0,0.0,0.0,0.0,0.0,0.0,0.0,0.0,0.0,0.0,0.0,0.0,0.0,0.0,0.0,0.0,0.0,0.0,0.0,0.0,0.0,0.0,0.0,0.0,0.0,0.0,0.0,9.4919,10.528,11.2818,11.4432,11.58,11.6085,11.4739,11.2284,10.7264,9.91,9.5934,0.0,0.0,0.0,0.0,0.0,0.0,0.0,0.0,0.0,0.0,0.0,0.0,0.0,0.0,0.0,0.0,0.0,0.0,0.0,0.0,0.0,0.0,0.0,0.0,0.0,0.0,0.0,0.0,0.0,0.0,0.0,0.0,0.0,0.0,0.0,0.0,0.0,0.0,0.0,0.0,0.0,0.0,0.0,0.0,0.0,0.0,0.0,0.0,0.0,0.0,0.0,0.0,0.0,0.0,0.0,0.0,0.0,0.0,0.0,0.0,0.0,0.0,0.0,0.0,0.0,0.0,0.0,0.0,0.0,0.0,0.0,0.0,0.0,0.0,0.0,0.0,0.0,0.0,0.0,0.0,0.0,0.0,0.0,0.0,0.0,0.0,0.0,0.0,0.0,0.0,0.0,0.0,0.0,0.0,0.0,0.0,0.0,0.0,0.0,0.0,0.0,9.3314,10.2508,10.9367,11.1054,11.1407,11.1437,11.1237,11.098,10.7264,9.91,0.0,0.0,0.0,0.0,0.0,0.0,0.0,0.0,0.0,0.0,0.0,0.0,0.0,0.0,0.0,0.0,0.0,0.0,0.0,0.0,0.0,0.0,0.0,0.0,0.0,0.0,0.0,0.0,0.0,0.0,0.0,0.0,0.0,0.0,0.0,0.0,0.0,0.0,0.0,0.0,0.0,0.0,0.0,0.0,0.0,0.0,0.0,0.0,0.0,0.0,0.0,0.0,0.0,0.0,0.0,0.0,0.0,0.0,0.0,0.0,0.0,0.0,0.0,0.0,0.0,0.0,0.0,0.0,0.0,0.0,0.0,0.0,0.0,0.0,0.0,0.0,0.0,0.0,0.0,0.0,0.0,0.0,0.0,0.0,0.0,0.0,0.0,0.0,0.0,0.0,0.0,0.0,0.0,0.0,0.0,0.0,0.0,0.0,0.0,0.0,0.0,0.0,9.1744,10.1571,10.8918,11.0605,10.9923,10.9656,11.0755,10.989,10.4491,9.3306,0.0,0.0,0.0,0.0,0.0,0.0,0.0,0.0,0.0,0.0,0.0,0.0,0.0,0.0,0.0,0.0,0.0,0.0,0.0,0.0,0.0,0.0,0.0,0.0,0.0,0.0,0.0,0.0,0.0,0.0,0.0,0.0,0.0,0.0,0.0,0.0,0.0,0.0,0.0,0.0,0.0,0.0,0.0,0.0,0.0,0.0,0.0,0.0,0.0,0.0,0.0,0.0,0.0,0.0,0.0,0.0,0.0,0.0,0.0,0.0,0.0,0.0,0.0,0.0,0.0,0.0,0.0,0.0,0.0,0.0,0.0,0.0,0.0,0.0,0.0,0.0,0.0,0.0,0.0,0.0,0.0,0.0,0.0,0.0,0.0,0.0,0.0,0.0,0.0,0.0,0.0,0.0,0.0,0.0,0.0,0.0,0.0,0.0,0.0,0.0,0.0,0.0,9.0215,10.0857,10.8768,10.989,10.8993,10.8768,10.9965,10.8993,10.2657,8.9498,0.0,0.0,0.0,0.0,0.0,0.0,0.0,0.0,0.0,0.0,0.0,0.0,0.0,0.0,0.0,0.0,0.0,0.0,0.0,0.0,0.0,0.0,0.0,0.0,0.0,0.0,0.0,0.0,0.0,0.0,0.0,0.0,0.0,0.0,0.0,0.0,0.0,0.0,0.0,0.0,0.0,0.0,0.0,0.0,0.0,0.0,0.0,0.0,0.0,0.0,0.0,0.0,0.0,0.0,0.0,0.0,0.0,0.0,0.0,0.0,0.0,0.0,0.0,0.0,0.0,0.0,0.0,0.0,0.0,0.0,0.0,0.0,0.0,0.0,0.0,0.0,0.0,0.0,0.0,0.0,0.0,0.0,0.0,0.0,0.0,0.0,0.0,0.0,0.0,0.0,0.0,0.0,0.0,0.0,0.0,0.0,0.0,0.0,0.0,0.0,0.0,0.0,8.8465,10.0111,10.8278,10.8278,10.8278,10.8278,10.8278,10.8278,10.2657,0.0,0.0,0.0,0.0,0.0,0.0,0.0,0.0,0.0,0.0,0.0,0.0,0.0,0.0,0.0,0.0,0.0,0.0,0.0,0.0,0.0,0.0,0.0,0.0,0.0,0.0,0.0,0.0,0.0,0.0,0.0,0.0,0.0,0.0,0.0,0.0,0.0,0.0,0.0,0.0,0.0,0.0,0.0,0.0,0.0,0.0,0.0,0.0,0.0,0.0,0.0,0.0,0.0,0.0,0.0,0.0,0.0,0.0,0.0,0.0,0.0,0.0,0.0,0.0,0.0,0.0,0.0,0.0,0.0,0.0,0.0,0.0,0.0,0.0,0.0,0.0,0.0,0.0,0.0,0.0,0.0,0.0,0.0,0.0,0.0,0.0,0.0,0.0,0.0,0.0,0.0,0.0,0.0,0.0,0.0,0.0,0.0,0.0,0.0,0.0,0.0,0.0,0.0,8.7607,9.506,10.1944,10.768,10.8278,10.8278,10.8278,10.6218,10.0261,8.9349,0.0,0.0,0.0,0.0,0.0,0.0,0.0,0.0,0.0,0.0,0.0,0.0,0.0,0.0,0.0,0.0,0.0,0.0,0.0,0.0,0.0,0.0,0.0,0.0,0.0,0.0,0.0,0.0,0.0,0.0,0.0,0.0,0.0,0.0,0.0,0.0,0.0,0.0,0.0,0.0,0.0,0.0,0.0,0.0,0.0,0.0,0.0,0.0,0.0,0.0,0.0,0.0,0.0,0.0,0.0,0.0,0.0,0.0,0.0,0.0,0.0,0.0,0.0,0.0,0.0,0.0,0.0,0.0,0.0,0.0,0.0,0.0,0.0,0.0,0.0,0.0,0.0,0.0,0.0,0.0,0.0,0.0,0.0,0.0,0.0,0.0,0.0,0.0,0.0,0.0,0.0,0.0,0.0,0.0,0.0,0.0,0.0,0.0,0.0,0.0,0.0,0.0,0.0,9.403,10.1571,10.6741,10.6741,10.6367,10.6367,10.3893,9.7948,8.7428,0.0,0.0,0.0,0.0,0.0,0.0,0.0,0.0,0.0,0.0,0.0,0.0,0.0,0.0,0.0,0.0,0.0,0.0,0.0,0.0,0.0,0.0,0.0,0.0,0.0,0.0,0.0,0.0,0.0,0.0,0.0,0.0,0.0,0.0,0.0,0.0,0.0,0.0,0.0,0.0,0.0,0.0,0.0,0.0,0.0,0.0,0.0,0.0,0.0,0.0,0.0,0.0,0.0,0.0,0.0,0.0,0.0,0.0,0.0,0.0,0.0,0.0,0.0,0.0,0.0,0.0,0.0,0.0,0.0,0.0,0.0,0.0,0.0,0.0,0.0,0.0,0.0,0.0,0.0,0.0,0.0,0.0,0.0,0.0,0.0,0.0,0.0,0.0,0.0,0.0,0.0,0.0,0.0,0.0,0.0,0.0,0.0,0.0,0.0,0.0,0.0,0.0,0.0,9.5827,10.4864,10.5354,10.3968,10.303,10.303,10.1347,9.5636,8.4595,8.4941,0.0,0.0,0.0,0.0,0.0,0.0,0.0,0.0,0.0,0.0,0.0,0.0,0.0,0.0,0.0,0.0,0.0,0.0,0.0,0.0,0.0,0.0,0.0,0.0,0.0,0.0,0.0,0.0,0.0,0.0,0.0,0.0,0.0,0.0,0.0,0.0,0.0,0.0,0.0,0.0,0.0,0.0,0.0,0.0,0.0,0.0,0.0,0.0,0.0,0.0,0.0,0.0,0.0,0.0,0.0,0.0,0.0,0.0,0.0,0.0,0.0,0.0,0.0,0.0,0.0,0.0,0.0,0.0,0.0,0.0,0.0,0.0,0.0,0.0,0.0,0.0,0.0,0.0,0.0,0.0,0.0,0.0,0.0,0.0,0.0,0.0,0.0,0.0,0.0,0.0,0.0,0.0,0.0,0.0,0.0,0.0,0.0,0.0,0.0,0.0,0.0,0.0,9.2691,9.6122,10.1305,10.1496,10.1272,10.1313,9.8545,9.4092,8.7507,8.4018,0.0,0.0,0.0,0.0,0.0,0.0,0.0,0.0,0.0,0.0,0.0,0.0,0.0,0.0,0.0,0.0,0.0,0.0,0.0,0.0,0.0,0.0,0.0,0.0,0.0,0.0,0.0,0.0,0.0,0.0,0.0,0.0,0.0,0.0,0.0,0.0,0.0,0.0,0.0,0.0,0.0,0.0,0.0,0.0,0.0,0.0,0.0,0.0,0.0,0.0,0.0,0.0,0.0,0.0,0.0,0.0,0.0,0.0,0.0,0.0,0.0,0.0,0.0,0.0,0.0,0.0,0.0,0.0,0.0,0.0,0.0,0.0,0.0,0.0,0.0,0.0,0.0,0.0,0.0,0.0,0.0,0.0,0.0,0.0,0.0,0.0,0.0,0.0,0.0,0.0,0.0,0.0,0.0,0.0,0.0,0.0,0.0,0.0,0.0,0.0,0.0,0.0,8.5114,9.0085,9.8558,9.9431,9.9142,9.847,9.6665,9.2797,8.6311,8.1922,0.0,0.0,0.0,0.0,0.0,0.0,0.0,0.0,0.0,0.0,0.0,0.0,0.0,0.0,0.0,0.0,0.0,0.0,0.0,0.0,0.0,0.0,0.0,0.0,0.0,0.0,0.0,0.0,0.0,0.0,0.0,0.0,0.0,0.0,0.0,0.0,0.0,0.0,0.0,0.0,0.0,0.0,0.0,0.0,0.0,0.0,0.0,0.0,0.0,0.0,0.0,0.0,0.0,0.0,0.0,0.0,0.0,0.0,0.0,0.0,0.0,0.0,0.0,0.0,0.0,0.0,0.0,0.0,0.0,0.0,0.0,0.0,0.0,0.0,0.0,0.0,0.0,0.0,0.0,0.0,0.0,0.0,0.0,0.0,0.0,0.0,0.0,0.0,0.0,0.0,0.0,0.0,0.0,0.0,0.0,0.0,0.0,0.0,0.0,0.0,0.0,0.0,0.0,8.6711,9.5869,9.7293,9.7087,9.5697,9.5261,9.1759,8.3962,0.0,0.0,0.0,0.0,0.0,0.0,0.0,0.0,0.0,0.0,0.0,0.0,0.0,0.0,0.0,0.0,0.0,0.0,0.0,0.0,0.0,0.0,0.0,0.0,0.0,0.0,0.0,0.0,0.0,0.0,0.0,0.0,0.0,0.0,0.0,0.0,0.0,0.0,0.0,0.0,0.0,0.0,0.0,0.0,0.0,0.0,0.0,0.0,0.0,0.0,0.0,0.0,0.0,0.0,0.0,0.0,0.0,0.0,0.0,0.0,0.0,0.0,0.0,0.0,0.0,0.0,0.0,0.0,0.0,0.0,0.0,0.0,0.0,0.0,0.0,0.0,0.0,0.0,0.0,0.0,0.0,0.0,0.0,0.0,0.0,0.0,0.0,0.0,0.0,0.0,0.0,0.0,0.0,0.0,0.0,0.0,0.0,0.0,0.0,0.0,0.0,0.0,0.0,0.0,8.7915,9.1211,9.4115,9.5771,9.5514,9.4118,9.0825,8.504,0.0,0.0,0.0,0.0,0.0,0.0,0.0,0.0,0.0,0.0,0.0,0.0,0.0,0.0]}],[{"header":{"parameterUnit":"kt","parameterCategory":2,"dx":1,"dy":1,"la1":29.285339999999998,"la2":30.599998999999997,"lo1":-89.70041500000002,"lo2":-87.6738589999976,"nx":112,"ny":82,"refTime":"2022-09-29T06:00:00:Z","depth":0,"parameterNumber":2,"parameterNumberName":"V-component_of_WINDS"},"data":[0.0,0.0,0.0,0.0,0.0,0.0,0.0,0.0,0.0,0.0,0.0,0.0,0.0,0.0,0.0,0.0,0.41,0.8144,0.0,1.1007,1.0997,1.0997,1.1569,1.2121,1.2409,1.2432,1.3316,1.5374,1.8619,2.0676,2.0776,2.0871,2.0871,2.0871,2.0871,2.0871,2.0871,2.0871,2.0871,2.0871,2.0871,2.0871,2.0871,2.0871,2.0871,2.0871,2.0871,2.0871,2.0882,2.0882,2.0882,2.0892,2.0903,1.861,1.5977,1.8285,1.7635,1.5668,1.5668,1.5668,1.5668,1.5668,1.5668,1.5668,1.5668,1.5668,1.5668,1.5668,1.5668,1.5668,1.5668,1.5668,1.5668,1.5668,1.5668,1.5668,1.5668,1.5668,1.5668,1.5668,1.5668,1.5668,1.5668,1.5668,1.5668,1.5668,1.5668,1.5668,1.5668,1.5668,1.5668,1.5668,1.5668,1.5668,1.5668,1.5668,1.5668,1.5668,1.5668,1.5668,1.5668,1.5668,1.5644,1.5588,1.5644,1.5644,1.558,1.5644,1.5668,1.5668,1.5668,1.5668,0.0,0.0,0.0,0.0,0.0,0.0,0.0,0.0,0.0,0.0,0.0,0.0,0.0,0.0,0.0,0.0,0.6309,1.1043,0.0,1.1073,1.1214,1.155,1.197,1.3262,1.5048,1.5387,1.4388,1.249,1.7765,2.0699,2.0776,2.0871,2.0871,2.0871,2.0871,2.0871,2.0871,2.0871,2.0871,2.0871,2.0871,2.0871,2.0871,2.0871,2.0871,2.0871,2.0871,2.0871,2.0871,2.0871,2.0871,2.0871,2.0892,1.9574,1.7609,1.9919,1.9269,1.7301,1.5993,1.5668,1.5668,1.5668,1.5668,1.5668,1.5668,1.5668,1.5668,1.5668,1.5668,1.5668,1.5668,1.5668,1.5668,1.5668,1.5668,1.5668,1.5668,1.5668,1.5668,1.5668,1.5668,1.5668,1.5668,1.5668,1.5668,1.5668,1.5668,1.5668,1.5668,1.5668,1.5668,1.5668,1.5668,1.5668,1.5668,1.5668,1.5668,1.5668,1.5668,1.5668,1.5668,1.5668,1.5668,1.5668,1.5668,1.5668,1.5668,1.5668,1.5668,1.5668,1.5668,1.5668,0.0,0.0,0.0,0.0,0.0,0.0,0.0,0.0,0.0,0.0,0.0,0.0,0.0,0.0,0.0,0.0,0.6213,0.0,0.0,1.1229,1.1491,1.2523,1.262,1.475,2.0343,2.0748,1.8418,1.278,1.7553,2.081,2.0723,2.0871,2.0871,2.0871,2.0871,2.0871,2.0871,2.0871,2.0871,2.0871,2.0871,2.0871,2.0871,2.0871,2.0871,2.0871,2.0871,2.0871,2.0871,2.0871,2.0871,2.0871,2.0892,2.0892,2.0892,2.0892,2.0892,2.0243,1.6976,1.6001,1.5668,1.5668,1.5668,1.5668,1.5668,1.5668,1.5668,1.5668,1.5668,1.5668,1.5668,1.5668,1.5668,1.5668,1.5668,1.5668,1.5668,1.5668,1.5668,1.5668,1.5668,1.5668,1.5668,1.5668,1.5668,1.5668,1.5668,1.5668,1.5668,1.5668,1.5668,1.5668,1.5668,1.5668,1.5668,1.5668,1.5668,1.5668,1.5668,1.5668,1.5668,1.5668,1.5668,1.5668,1.5668,1.5668,1.5668,1.5668,1.5668,1.5668,1.5668,1.5668,0.0,0.0,0.0,0.0,0.0,0.0,0.0,0.0,0.0,0.0,0.0,0.0,0.0,0.0,0.0,0.0,0.0,1.1589,1.302,1.2591,1.3693,1.8064,1.5482,1.5419,2.0383,2.0713,1.8388,1.2874,1.7505,2.0803,2.0776,2.0871,2.0871,2.0871,2.0871,2.0871,2.0871,2.0871,2.0871,2.0871,2.0871,2.0871,2.0871,2.0871,2.0871,2.0871,2.0871,2.0871,2.0871,2.0871,2.0871,2.0871,2.0871,2.0882,2.0882,2.0882,2.0882,2.0568,1.9594,1.7951,1.5668,1.5668,1.5668,1.5668,1.5668,1.5668,1.5668,1.5668,1.5668,1.5668,1.5668,1.5668,1.5668,1.5668,1.5668,1.5668,1.5668,1.5668,1.5668,1.5668,1.5668,1.5668,1.5668,1.5668,1.5668,1.5668,1.5668,1.5668,1.5668,1.5668,1.5668,1.5668,1.5668,1.5668,1.5668,1.5668,1.5668,1.5668,1.5668,1.5668,1.5668,1.5668,1.5668,1.5668,1.5668,1.5668,1.5668,1.5668,1.5668,1.5668,1.5668,1.5668,0.0,0.0,0.0,0.0,0.0,0.0,0.0,0.0,0.0,0.0,0.0,0.0,0.0,0.0,0.0,0.0,0.9882,1.3905,1.653,1.4755,1.5006,2.0177,1.8424,1.798,2.0406,2.0946,1.937,1.6186,1.8963,2.0941,2.0797,2.0871,2.0871,2.0871,2.0871,2.0871,2.0871,2.0871,2.0871,2.0871,2.0871,2.0871,2.0871,2.0871,2.0871,2.0871,2.0871,2.0871,2.0871,2.0871,2.0871,2.0871,2.0871,2.0871,2.0871,2.0871,2.0871,2.0882,2.0892,1.9584,1.7626,1.6318,1.5668,1.5668,1.5668,1.5668,1.5668,1.5668,1.5668,1.5668,1.5668,1.5668,1.5668,1.5668,1.5668,1.5668,1.5668,1.5668,1.5668,1.5668,1.5668,1.5668,1.5668,1.5668,1.5668,1.5668,1.5668,1.5668,1.5668,1.5668,1.5668,1.5668,1.5668,1.5668,1.5668,1.5668,1.5668,1.5668,1.5668,1.5668,1.5668,1.5668,1.5668,1.5668,1.5668,1.5668,1.5668,1.5668,1.5668,1.5668,1.5668,1.5668,0.0,0.0,0.0,0.0,0.0,0.0,0.0,0.0,0.0,0.0,0.0,0.0202,0.1219,0.0,0.0,1.2697,1.467,1.6568,2.0296,1.7209,1.617,2.0315,2.0864,2.0787,2.0662,2.0668,2.0786,2.0776,2.067,2.0808,2.0808,2.0871,2.0871,2.0871,2.0871,2.0871,2.0871,2.0871,2.0871,2.0871,2.0871,2.0871,2.0871,2.0871,2.0871,2.0871,2.0871,2.0871,2.0871,2.0871,2.0871,2.0871,2.0871,2.0871,2.0871,2.0871,2.0871,2.0871,2.0892,2.0892,2.0243,1.7284,1.631,1.6326,1.6001,1.5668,1.5668,1.5668,1.5668,1.5668,1.5668,1.5668,1.5668,1.5668,1.5668,1.5668,1.5668,1.5668,1.5668,1.5668,1.5668,1.5668,1.5668,1.5668,1.5668,1.5668,1.5668,1.5668,1.5668,1.5668,1.5668,1.5668,1.5668,1.5668,1.5668,1.5668,1.5668,1.5668,1.5668,1.5668,1.5668,1.5668,1.5668,1.5668,1.5668,1.5668,1.5668,1.5668,1.5668,1.5668,1.5668,1.5668,0.0,0.0,0.0,0.0,0.0,0.0,0.0,0.0,0.0,0.0,0.0,0.2136,0.8883,0.9927,1.0997,1.3578,1.4209,1.5768,2.0273,2.0067,1.9829,2.0832,2.0927,2.0786,2.0884,2.0819,2.0905,2.085,2.0948,2.0916,2.086,2.0871,2.0871,2.0871,2.0871,2.0871,2.0871,2.0871,2.0871,2.0871,2.0871,2.0871,2.0871,2.0871,2.0871,2.0871,2.0871,2.0871,2.0871,2.0871,2.0871,2.0871,2.0871,2.0871,2.0871,2.0871,2.0871,2.0871,2.0871,2.0882,2.0568,1.9919,1.9919,1.9279,1.6651,1.5668,1.5668,1.5668,1.5668,1.5668,1.5668,1.5668,1.5668,1.5668,1.5668,1.5668,1.5668,1.5668,1.5668,1.5668,1.5668,1.5668,1.5668,1.5668,1.5668,1.5668,1.5668,1.5668,1.5668,1.5668,1.5668,1.5668,1.5668,1.5668,1.5668,1.5668,1.5668,1.5668,1.5668,1.5668,1.5668,1.5668,1.5668,1.5668,1.5668,1.5668,1.5668,1.5668,1.5668,1.5668,1.5668,1.5668,0.0,0.0,0.0,0.0,0.0,0.0,0.0,0.5063,0.9653,0.9828,0.9849,1.1099,1.5768,1.6552,1.6698,1.7204,1.743,1.8256,2.0528,2.0854,2.0871,2.0871,2.0871,2.0871,2.0871,2.0871,2.0871,2.0871,2.0871,2.0871,2.0871,2.0871,2.0871,2.0871,2.0871,2.0871,2.0871,2.0871,2.0871,2.0871,2.0871,2.0871,2.0871,2.0871,2.0871,2.0871,2.0871,2.0871,2.0871,2.0871,2.0871,2.0871,2.0871,2.0871,2.0871,2.0871,2.0871,2.0871,2.0871,2.0871,2.0882,2.0882,2.0892,2.0578,1.8944,1.6985,1.5668,1.5668,1.5668,1.5668,1.5668,1.5668,1.5691,1.5779,1.5739,1.5691,1.5787,1.5731,1.5668,1.5668,1.5668,1.5668,1.5668,1.5668,1.5668,1.5668,1.5668,1.5668,1.5668,1.5668,1.5668,1.5668,1.5668,1.5668,1.5668,1.5668,1.5668,1.5668,1.5668,1.5668,1.5668,1.5668,1.5668,1.5668,1.5668,1.5668,1.5668,1.5668,1.5668,1.5668,1.5668,1.5668,0.0,0.0,0.0,0.0,0.0,0.0,0.0,0.8017,1.6112,1.7651,1.8911,1.9976,2.0553,2.073,2.0903,2.0903,2.0817,2.0737,2.0744,2.0871,2.0871,2.0871,2.0871,2.0871,2.0871,2.0871,2.0871,2.0871,2.0871,2.0871,2.0871,2.0871,2.0871,2.0871,2.0871,2.0871,2.0871,2.0871,2.0871,2.0871,2.0871,2.0871,2.0871,2.0871,2.0871,2.0871,2.0871,2.0871,2.0871,2.0871,2.0871,2.0871,2.0871,2.0871,2.0871,2.0871,2.0871,2.0871,2.0871,2.0871,2.0871,2.0871,2.0882,2.0892,2.0913,1.8295,1.5668,1.5668,1.5691,1.5723,1.5723,1.5747,1.581,1.5622,1.5882,1.581,1.5622,1.585,1.5723,1.5723,1.5723,1.5707,1.5676,1.5668,1.5668,1.5668,1.5668,1.5668,1.5668,1.5668,1.5668,1.5668,1.5668,1.5668,1.5668,1.5668,1.5668,1.5668,1.5668,1.5668,1.5668,1.5668,1.5668,1.5668,1.5668,1.5668,1.5668,1.5668,1.5668,1.5668,1.5668,1.5668,0.0,0.0,0.0,0.0,0.0,0.0,0.0,0.1004,0.4139,1.1733,1.7129,2.0549,2.0702,2.093,2.0776,2.0776,2.0905,2.0723,2.085,2.0871,2.0871,2.0871,2.0871,2.0871,2.0871,2.0871,2.0871,2.0871,2.0871,2.0871,2.0871,2.0871,2.0871,2.0871,2.0871,2.0871,2.0871,2.0871,2.0871,2.0871,2.0871,2.0871,2.0871,2.0871,2.0871,2.0871,2.0871,2.0871,2.0871,2.0871,2.0871,2.0871,2.0871,2.0871,2.0871,2.0871,2.0871,2.0871,2.0871,2.0871,2.0871,2.0871,2.0871,2.0882,2.0913,1.8285,1.5652,1.5668,1.5787,1.5906,1.5906,1.5684,1.5809,1.5824,1.616,1.6487,1.5824,1.57,1.5906,1.5906,1.5898,1.5842,1.5691,1.566,1.566,1.5668,1.5668,1.5668,1.5668,1.5668,1.5668,1.5668,1.5668,1.5668,1.5668,1.5668,1.5668,1.5668,1.5668,1.5668,1.5668,1.5668,1.5668,1.5668,1.5668,1.5668,1.5668,1.5668,1.5668,1.5668,1.5668,1.5668,0.0,0.0,0.0,0.0,0.0,0.0,0.0,0.5885,1.2421,1.6425,1.9275,2.0842,2.0873,2.0808,2.0871,2.0871,2.0871,2.0871,2.0871,2.0871,2.0871,2.0871,2.0871,2.0871,2.0871,2.0871,2.0871,2.0871,2.0871,2.0871,2.0871,2.0871,2.0871,2.0871,2.0871,2.0871,2.0871,2.0871,2.0871,2.0871,2.0871,2.0871,2.0871,2.0871,2.0871,2.0871,2.0871,2.0871,2.0871,2.0871,2.0871,2.0871,2.0871,2.0871,2.0871,2.0871,2.0871,2.0871,2.0871,2.0871,2.0871,2.0871,2.0871,2.0871,2.0903,1.8591,1.566,1.5779,1.5866,1.5945,1.6064,1.6152,1.6231,1.6334,1.6617,1.6568,1.6334,1.6215,1.6455,1.6223,1.6064,1.6228,1.8489,1.7054,1.6318,1.8295,1.6976,1.5668,1.5668,1.5668,1.5668,1.5668,1.5668,1.5668,1.5668,1.5668,1.5668,1.5668,1.5668,1.5668,1.5668,1.5668,1.5668,1.5668,1.5668,1.5668,1.5668,1.5668,1.5668,1.5668,1.5668,1.5668,0.0,0.0,0.0,0.0,0.0,0.0,0.4569,1.2773,1.9577,2.0292,2.0611,2.093,2.0649,2.0871,2.0871,2.0871,2.0871,2.0871,2.0871,2.0871,2.0871,2.0871,2.0871,2.0871,2.0871,2.0871,2.0871,2.0871,2.0871,2.0871,2.0871,2.0871,2.0871,2.0871,2.0871,2.0871,2.0871,2.0871,2.0871,2.0871,2.0871,2.0871,2.0871,2.0871,2.0871,2.0871,2.0871,2.0871,2.0871,2.0871,2.0871,2.0871,2.0871,2.0871,2.0871,2.0871,2.0871,2.0871,2.0871,2.0871,2.0871,2.0871,2.0871,2.0882,2.0641,1.9012,1.7062,1.7269,1.7329,1.738,1.6897,1.6641,1.6714,1.6852,1.6787,1.6722,1.686,1.6779,1.7045,1.8169,1.6921,1.6698,1.8949,1.8142,1.8024,2.0274,1.862,1.6651,1.6001,1.5668,1.5668,1.5668,1.5668,1.5668,1.5668,1.5668,1.5668,1.5668,1.5668,1.5668,1.5668,1.5668,1.5668,1.5668,1.5668,1.5668,1.5668,1.5668,1.5668,1.5668,1.5668,1.5668,0.0,0.0,0.0,0.0,0.0,0.3332,1.5869,1.9089,1.9321,1.9538,2.0311,2.0862,2.0818,2.0871,2.0871,2.0871,2.0871,2.0871,2.0871,2.0871,2.0871,2.0871,2.0871,2.0871,2.0871,2.0871,2.0871,2.0871,2.0871,2.0871,2.0871,2.0871,2.0871,2.0871,2.0871,2.0871,2.0871,2.0871,2.0871,2.0871,2.0871,2.0871,2.0871,2.0871,2.0871,2.0871,2.0871,2.0871,2.0871,2.0871,2.0871,2.0871,2.0871,2.0871,2.0871,2.0871,2.0871,2.0871,2.0871,2.0871,2.0871,2.0871,2.0871,2.0913,2.0828,2.0571,2.0622,2.0513,2.1275,2.1338,1.775,1.6549,1.6684,1.6715,1.6707,1.6699,1.6723,1.6699,1.768,2.1318,1.9164,1.6633,1.5969,1.8563,2.0817,2.063,2.0599,1.9604,1.6326,1.5668,1.5668,1.5668,1.5668,1.5668,1.5668,1.5668,1.5668,1.5668,1.5668,1.5668,1.5668,1.5668,1.5668,1.5668,1.5668,1.5668,1.5668,1.5668,1.5668,1.5668,1.5668,1.5668,0.0,0.0,0.0,0.0,0.0,0.3445,1.6348,1.9575,1.9574,1.9404,2.0247,2.0744,2.0797,2.0871,2.0818,2.066,2.0765,2.0871,2.0871,2.0871,2.0871,2.0871,2.0871,2.0871,2.0871,2.0871,2.0871,2.0871,2.0871,2.0871,2.0871,2.0871,2.0871,2.0871,2.0871,2.0871,2.0871,2.0871,2.0871,2.0871,2.0871,2.0871,2.0871,2.0871,2.0871,2.0871,2.0871,2.0871,2.0871,2.0871,2.0871,2.0871,2.0871,2.0871,2.0871,2.0871,2.0871,2.0871,2.0871,2.0871,2.0892,2.0724,2.0776,2.0817,2.0725,2.114,2.186,2.1748,2.2171,2.1546,1.7587,1.8733,2.0556,2.0566,1.8458,1.6699,1.6707,1.8796,2.0873,2.2213,2.1359,2.0466,2.0189,2.0463,2.0714,2.0828,2.0932,1.964,1.6179,1.5842,1.5803,1.5683,1.5668,1.5668,1.5668,1.5668,1.5668,1.5668,1.5668,1.5668,1.5668,1.5668,1.5668,1.5668,1.5668,1.5668,1.5668,1.5668,1.5668,1.5668,1.5668,1.5668,0.0,0.0,0.0,0.0,0.0,0.2263,1.0702,1.6109,1.9351,1.9465,2.0195,2.0941,2.0681,2.0485,2.0495,2.067,2.0776,2.0871,2.0871,2.0871,2.0871,2.0871,2.0871,2.0871,2.0871,2.0871,2.0871,2.0871,2.0871,2.0871,2.0871,2.0871,2.0871,2.0871,2.0871,2.0871,2.0871,2.0871,2.0871,2.0871,2.0871,2.0871,2.0871,2.0871,2.0871,2.0871,2.0871,2.0871,2.0871,2.0871,2.0871,2.0871,2.0871,2.0871,2.0871,2.0871,2.0871,2.0871,2.0871,2.0924,2.0693,2.0838,2.0953,2.1399,2.1286,2.1706,2.2434,2.2322,2.2397,2.1754,1.9433,2.0536,2.2319,2.2308,2.0546,1.8796,1.8787,2.0527,2.2287,2.2298,2.2515,2.2332,2.2445,2.1369,2.094,2.1389,2.1494,2.0189,1.669,1.5961,1.5882,1.5779,1.5707,1.5668,1.5668,1.5668,1.5668,1.5668,1.5668,1.5668,1.5668,1.5668,1.5668,1.5668,1.5668,1.5668,1.5668,1.5668,1.5668,1.5668,1.5668,1.5668,-0.0,0.0,0.0,0.0,0.0,0.0,0.0,0.9437,1.873,1.9173,2.0205,2.0898,2.0798,2.0059,1.9878,2.0526,2.086,2.086,2.085,2.086,2.086,2.085,2.086,2.0871,2.0871,2.0871,2.0871,2.0871,2.0871,2.0871,2.0871,2.0871,2.0871,2.0871,2.0871,2.0871,2.0871,2.0871,2.0871,2.0871,2.0871,2.0871,2.0871,2.0871,2.0871,2.0871,2.0871,2.0871,2.0871,2.0871,2.0871,2.0871,2.0871,2.0871,2.0871,2.0871,2.0871,2.0871,2.0871,2.0693,2.088,2.0901,2.1399,2.2314,2.2204,2.2279,2.2322,2.2203,2.2276,2.2287,2.2276,2.2287,2.2308,2.2276,2.2298,2.2308,2.2276,2.2266,2.2266,2.2266,2.2266,2.2192,2.23,2.1577,2.1165,2.2314,2.2292,2.094,1.7535,1.6374,1.5937,1.5607,1.5787,1.5683,1.5668,1.5668,1.5668,1.5668,1.5668,1.5668,1.5668,1.5668,1.5668,1.5668,1.5668,1.5668,1.5668,1.5668,1.5668,1.5668,1.5668,1.5668,-0.0467,0.0,0.0,0.0,0.0,0.0,0.0,0.2433,0.7654,1.7582,2.0205,2.0898,2.0798,2.0712,2.0485,2.0638,2.0755,2.0808,2.0959,2.0765,2.0808,2.0948,2.0765,2.0871,2.0871,2.0871,2.0871,2.0871,2.0871,2.0871,2.0871,2.0871,2.0871,2.0871,2.0871,2.0871,2.0871,2.0871,2.0871,2.0871,2.0871,2.0871,2.0871,2.0871,2.0871,2.0871,2.0871,2.0871,2.0871,2.0871,2.0871,2.0871,2.0871,2.0871,2.0871,2.0871,2.0871,2.0871,2.0871,2.0913,2.1019,2.1721,2.2216,2.2347,2.2408,2.2526,2.2192,2.2255,2.2266,2.2276,2.2266,2.2276,2.2276,2.2266,2.2276,2.2276,2.2266,2.2266,2.2266,2.2266,2.2266,2.2192,2.23,2.2055,2.2097,2.2204,2.2332,2.2055,2.1196,1.8376,1.6207,1.5961,1.5882,1.5803,1.5683,1.5668,1.5668,1.5668,1.5668,1.5668,1.5668,1.5668,1.5668,1.5668,1.5668,1.5668,1.5668,1.5668,1.5668,1.5668,1.5668,1.5668,-0.0454,0.0,0.0,0.0,0.0,0.0,0.0,0.0,0.3675,1.6653,2.0216,2.0941,2.0638,2.0712,2.0702,2.0681,2.0702,2.0702,2.0681,2.0453,2.0495,2.0691,2.0786,2.0871,2.0871,2.0871,2.0871,2.0871,2.0871,2.0871,2.0871,2.0871,2.0871,2.0871,2.0871,2.0871,2.0871,2.0871,2.0871,2.0871,2.0871,2.0871,2.0871,2.0871,2.0871,2.0871,2.0871,2.0871,2.0871,2.0871,2.0871,2.0871,2.0871,2.0871,2.0871,2.0871,2.0871,2.0871,2.0871,2.0682,2.089,2.1494,2.2064,2.2279,2.2192,2.2266,2.2266,2.2266,2.2266,2.2266,2.2266,2.2266,2.2266,2.2266,2.2266,2.2266,2.2266,2.2266,2.2266,2.2266,2.2266,2.2224,2.244,2.2526,2.2224,2.244,2.2192,2.2245,2.2472,1.9155,1.7258,1.8424,1.6904,1.5771,1.5676,1.5668,1.5668,1.5668,1.5668,1.5668,1.5668,1.5668,1.5668,1.5668,1.5668,1.5668,1.5668,1.5668,1.5668,1.5668,1.5668,1.5668,-0.0436,0.0,0.0,0.0,0.0,0.0,0.0,0.0,0.3064,1.4462,1.737,1.8743,2.0464,2.0702,2.0628,2.0797,2.0681,2.0927,2.0712,2.0151,1.9848,2.0744,2.0818,2.086,2.0829,2.085,2.0871,2.0871,2.0871,2.0871,2.0871,2.0871,2.0871,2.0871,2.0871,2.0871,2.0871,2.0871,2.0871,2.0871,2.0871,2.0871,2.0871,2.0871,2.0871,2.0871,2.0871,2.0871,2.0871,2.0871,2.0871,2.0871,2.0871,2.0871,2.0871,2.0871,2.085,2.0829,2.086,2.0807,2.0817,2.0878,2.1525,2.2224,2.2255,2.2266,2.2266,2.2266,2.2266,2.2266,2.2266,2.2266,2.2266,2.2266,2.2266,2.2266,2.2266,2.2266,2.2266,2.2266,2.2266,2.2266,2.2266,2.2266,2.2266,2.2266,2.2266,2.2276,2.2287,1.9477,1.856,2.1968,1.8233,1.5691,1.5676,1.5668,1.5668,1.5668,1.5668,1.5668,1.5668,1.5668,1.5668,1.5668,1.5668,1.5668,1.5668,1.5668,1.5668,1.5668,1.5668,1.5668,-0.0,0.0,0.0,0.0,0.0,0.0,0.0,0.0,0.0613,0.2825,0.3466,0.7267,1.8638,2.0734,2.0433,1.9627,2.038,2.0948,2.0723,2.0512,2.066,2.0723,2.0841,2.0797,2.0596,2.0755,2.0871,2.0871,2.0871,2.0871,2.0871,2.0871,2.0871,2.0871,2.0871,2.0871,2.0871,2.0871,2.0871,2.0871,2.0871,2.0871,2.0871,2.0871,2.0871,2.0871,2.0871,2.0871,2.0871,2.0871,2.0871,2.0871,2.0871,2.0871,2.0871,2.0871,2.0744,2.0927,2.0808,2.0924,2.1061,2.1796,2.2107,2.2354,2.2203,2.2266,2.2266,2.2266,2.2266,2.2266,2.2266,2.2266,2.2266,2.2266,2.2266,2.2266,2.2266,2.2266,2.2266,2.2266,2.2266,2.2266,2.2266,2.2266,2.2266,2.2266,2.2266,2.2276,2.2287,2.1691,2.1442,2.095,1.8001,1.5818,1.5683,1.5668,1.5668,1.5668,1.5668,1.5668,1.5668,1.5668,1.5668,1.5668,1.5668,1.5668,1.5668,1.5668,1.5668,1.5668,1.5668,1.5668,0.0,0.0,0.0,0.0,0.0,0.0,0.0,0.0,0.0,0.0,0.0,0.4394,1.8271,2.0884,2.0533,2.0193,1.9967,2.0204,2.0723,2.0723,2.0522,2.0702,2.0733,2.0638,2.0522,2.0734,2.0871,2.0871,2.0871,2.0871,2.0871,2.0871,2.0871,2.0871,2.0871,2.0871,2.0871,2.0871,2.0871,2.0871,2.0871,2.0871,2.0871,2.0871,2.0871,2.0871,2.0871,2.0871,2.0871,2.0871,2.0871,2.0871,2.0871,2.0871,2.0871,2.0871,2.0797,2.0723,2.0172,2.0294,2.1114,2.214,2.2412,2.23,2.2192,2.2266,2.2266,2.2266,2.2266,2.2266,2.2266,2.2266,2.2266,2.2266,2.2266,2.2266,2.2266,2.2266,2.2266,2.2266,2.2266,2.2266,2.2266,2.2266,2.2266,2.2266,2.2266,2.2266,2.2276,2.2408,2.1885,2.0775,1.9443,1.7556,1.5818,1.5723,1.5668,1.5668,1.5668,1.5668,1.5668,1.5668,1.5668,1.5668,1.5668,1.5668,1.5668,1.5668,1.5668,1.5668,1.5668,1.5668,-0.0231,0.0,0.0,0.0,0.0,0.0,0.0,0.0,0.0,0.0,0.0,0.3431,1.4357,1.8801,2.0648,2.0766,2.0162,1.9762,2.0712,2.0594,2.0343,2.0068,2.0279,2.0427,2.0374,2.0586,2.0744,2.0786,2.0797,2.0818,2.0871,2.0871,2.0871,2.0871,2.0871,2.0871,2.0871,2.0871,2.0871,2.0871,2.0871,2.0871,2.0871,2.0871,2.0871,2.0871,2.0871,2.0871,2.0871,2.0871,2.0871,2.0871,2.0871,2.0871,2.0871,2.0871,2.0808,2.0734,1.9848,2.0294,2.0797,2.1807,2.2075,2.23,2.2192,2.2266,2.2266,2.2266,2.2266,2.2266,2.2266,2.2266,2.2266,2.2266,2.2266,2.2266,2.2266,2.2266,2.2266,2.2266,2.2266,2.2266,2.2266,2.2266,2.2266,2.2266,2.2266,2.2266,2.2266,2.2408,2.1907,2.1196,2.0503,1.8912,1.5874,1.5747,1.5668,1.5668,1.5668,1.5668,1.5668,1.5668,1.5668,1.5668,1.5668,1.5668,1.5668,1.5668,1.5668,1.5668,1.5668,1.5668,-0.0514,0.0,0.0,0.0,0.0,0.0,0.0,0.0,0.0,0.0,0.0,0.0311,0.1576,1.2409,2.0798,2.0941,2.0079,1.9649,2.0255,2.0251,2.0047,1.9592,1.9941,2.0131,1.992,2.011,2.0332,2.0214,2.0554,2.0649,2.086,2.0871,2.0871,2.0871,2.0871,2.0871,2.0871,2.0871,2.0871,2.0871,2.0871,2.0871,2.0871,2.0871,2.0871,2.0871,2.0871,2.0871,2.0871,2.0871,2.0871,2.0871,2.0871,2.0871,2.0871,2.0871,2.0937,2.0637,2.0723,2.0744,2.0691,2.1026,2.1727,2.23,2.2192,2.2266,2.2266,2.2266,2.2266,2.2266,2.2266,2.2266,2.2266,2.2266,2.2266,2.2266,2.2266,2.2266,2.2266,2.2266,2.2266,2.2266,2.2266,2.2266,2.2266,2.2266,2.2266,2.2266,2.2266,2.2408,2.2182,2.2325,1.9053,1.6845,1.5691,1.5676,1.5668,1.5668,1.5668,1.5668,1.5668,1.5668,1.5668,1.5668,1.5668,1.5668,1.5668,1.5668,1.5668,1.5668,1.5668,1.5668,-0.0456,0.0,0.0,0.0,0.0,0.0,0.0,0.0,0.0,0.0,0.0,0.0,0.0,0.4408,1.1069,1.9434,2.0637,2.029,1.9886,1.9772,1.9846,1.9518,1.9772,1.9941,1.9846,2.0047,1.9964,1.9854,2.0512,2.0948,2.086,2.0871,2.0871,2.0871,2.0871,2.0871,2.0871,2.0871,2.0871,2.0871,2.0871,2.0871,2.0871,2.0871,2.0871,2.0871,2.0871,2.0871,2.0871,2.0871,2.0871,2.0871,2.0871,2.0871,2.085,2.0712,2.0873,2.0712,2.012,2.048,2.0916,2.0682,2.141,2.2445,2.2332,2.2493,2.2266,2.2266,2.2266,2.2266,2.2266,2.2266,2.2266,2.2266,2.2266,2.2266,2.2266,2.2266,2.2266,2.2266,2.2266,2.2266,2.2266,2.2266,2.2266,2.2266,2.2266,2.2266,2.2266,2.2181,2.244,2.2365,2.0437,1.8189,1.5985,1.5882,1.5787,1.5676,1.5668,1.5668,1.5668,1.5668,1.5668,1.5668,1.5668,1.5668,1.5668,1.5668,1.5668,1.5668,1.5668,1.5668,-0.1269,-0.0452,0.0,0.0,0.0,0.0,0.0,0.0,0.0,0.0,0.0,0.0,0.0,0.0,0.3755,1.5541,1.9213,2.0163,1.9561,1.9624,1.9666,1.9497,1.9624,1.973,1.973,1.9878,1.9756,1.9334,2.0311,2.0766,2.0755,2.0765,2.0797,2.0871,2.0871,2.0871,2.0871,2.0871,2.0871,2.0871,2.0871,2.0871,2.0871,2.0871,2.0871,2.0871,2.0871,2.0871,2.0871,2.0871,2.0871,2.0871,2.0871,2.0871,2.085,2.0681,2.0575,2.0172,1.969,2.0016,2.0469,2.0776,2.1431,2.1785,2.215,2.2375,2.2526,2.2245,2.2266,2.2266,2.2266,2.2266,2.2266,2.2266,2.2266,2.2266,2.2266,2.2266,2.2266,2.2266,2.2266,2.2266,2.2266,2.2266,2.2266,2.2266,2.2266,2.2266,2.2266,2.2266,2.2224,2.244,2.1598,1.9682,1.6382,1.5922,1.5803,1.5676,1.5668,1.5668,1.5668,1.5668,1.5668,1.5668,1.5668,1.5668,1.5668,1.5668,1.5668,1.5668,1.5668,1.5668,-0.3128,-0.1621,0.0,0.0,0.0,0.0,0.0,0.0,0.0,0.0,0.0,0.0,0.0,0.0,0.217,0.8682,1.5207,1.9486,1.9518,1.9476,1.9476,1.9476,1.9476,1.9476,1.9476,1.9487,1.9582,1.9507,2.0154,2.068,2.0819,2.0841,2.0948,2.086,2.0871,2.0871,2.0871,2.0871,2.0871,2.0871,2.0871,2.0871,2.0871,2.0871,2.0871,2.0871,2.0871,2.0871,2.0871,2.0871,2.0871,2.0871,2.0871,2.0871,2.0871,2.0871,2.0391,1.9546,1.9536,1.9405,1.9629,2.0401,2.0871,2.1008,2.2043,2.2257,2.2311,2.2203,2.2266,2.2266,2.2266,2.2266,2.2266,2.2266,2.2266,2.2266,2.2266,2.2266,2.2266,2.2266,2.2266,2.2266,2.2266,2.2266,2.2266,2.2266,2.2266,2.2266,2.2266,2.2266,2.244,2.2325,2.2292,2.0755,1.7002,1.5993,1.5676,1.5668,1.5668,1.5668,1.5668,1.5668,1.5668,1.5668,1.5668,1.5668,1.5668,1.5668,1.5668,1.5668,1.5668,1.5668,-0.312,-0.2646,-0.1865,-0.0471,0.0,0.0,0.0,0.0,0.0,0.0,0.0,0.0,0.0,0.0,0.0619,0.2759,1.2349,1.9517,1.955,1.9497,1.9476,1.9476,1.9476,1.9476,1.9476,1.9476,1.9571,1.9496,1.9835,1.9715,1.9844,2.0512,2.0948,2.086,2.0871,2.0871,2.0871,2.0871,2.0871,2.0871,2.0871,2.0871,2.0871,2.0871,2.0871,2.0871,2.0871,2.0871,2.0871,2.0871,2.0871,2.0871,2.0871,2.0871,2.085,2.0691,2.0586,2.0469,2.0476,2.011,1.9598,1.9885,2.0192,2.088,2.1062,2.1681,2.2515,2.2245,2.2266,2.2266,2.2266,2.2266,2.2266,2.2266,2.2266,2.2266,2.2266,2.2266,2.2266,2.2266,2.2266,2.2266,2.2266,2.2266,2.2266,2.2266,2.2266,2.2266,2.2266,2.2472,2.2311,2.251,2.1685,1.9796,1.6516,1.5842,1.5803,1.5676,1.5668,1.5668,1.5668,1.5668,1.5668,1.5668,1.5668,1.5668,1.5668,1.5668,1.5668,1.5668,1.5668,1.5668,-0.3096,-0.3056,-0.2531,-0.0468,0.0,0.0,0.0,0.0,0.0,0.0,0.0,0.0,0.0,0.0,0.1539,0.6409,1.4135,1.9444,1.9561,1.9518,1.9508,1.9476,1.9487,1.9497,1.9476,1.9476,1.9539,1.9382,1.9392,1.9579,1.9405,2.0395,2.0862,2.086,2.0871,2.0871,2.0871,2.0871,2.0871,2.0871,2.0871,2.0871,2.0871,2.0871,2.0871,2.0871,2.0871,2.0871,2.0871,2.0871,2.0871,2.0871,2.0871,2.0871,2.085,2.0702,2.0649,2.0927,2.0865,2.0131,1.9578,1.9475,2.0391,2.1399,2.1275,2.1949,2.2493,2.2245,2.2266,2.2266,2.2266,2.2266,2.2266,2.2266,2.2266,2.2266,2.2266,2.2266,2.2266,2.2266,2.2266,2.2266,2.2266,2.2266,2.2266,2.2266,2.2266,2.2266,2.2266,2.2483,2.2354,2.1917,2.1042,1.9443,1.6171,1.5826,1.5787,1.5676,1.5731,1.5771,1.5771,1.5771,1.5739,1.5676,1.5668,1.5668,1.5668,1.5668,1.5668,1.5668,1.5676,1.5676,-0.2994,-0.289,-0.2309,-0.0483,0.0,0.0,0.0,0.0,0.0,0.0,0.0,0.0,0.0,0.0,0.3945,1.6198,1.8679,1.9582,1.9561,1.9592,1.9278,1.8902,1.9226,1.9539,1.9487,1.9476,1.9476,1.9476,1.9476,1.9371,1.9506,2.0184,2.0712,2.0829,2.086,2.0871,2.0871,2.0871,2.0871,2.0871,2.0871,2.0871,2.0871,2.0871,2.0871,2.0871,2.0871,2.0871,2.0871,2.0871,2.0871,2.0871,2.0871,2.0871,2.0871,2.0871,2.0871,2.0839,2.0927,2.0374,1.9588,1.9496,2.0852,2.2285,2.2395,2.2434,2.2311,2.2203,2.2266,2.2266,2.2266,2.2266,2.2266,2.2266,2.2266,2.2266,2.2266,2.2266,2.2266,2.2266,2.2266,2.2266,2.2266,2.2266,2.2266,2.2266,2.2266,2.2266,2.2266,2.2255,2.2139,2.0876,2.1001,1.9366,1.6025,1.5683,1.5683,1.5668,1.5834,1.593,1.5914,1.593,1.585,1.5676,1.5668,1.5676,1.5676,1.5676,1.5676,1.5676,1.5683,1.5366,-0.0803,-0.0632,-0.0668,-0.0231,0.0,0.0,0.0,0.0,0.0,0.0,0.0,0.0,0.0,0.0,0.0857,0.3934,1.3045,1.9476,1.9507,1.9548,1.7659,1.2657,1.6382,1.9413,1.9539,1.9497,1.9476,1.9476,1.9476,1.9299,1.9579,2.0412,2.0952,2.0916,2.0776,2.0871,2.0871,2.0871,2.0871,2.0871,2.0871,2.0871,2.0871,2.0871,2.0871,2.0871,2.0871,2.0871,2.0871,2.0871,2.0871,2.0871,2.0871,2.0871,2.0871,2.0871,2.0871,2.0839,2.0927,2.0691,2.0258,1.9677,2.0339,2.1334,2.2249,2.2214,2.2311,2.2203,2.2266,2.2266,2.2266,2.2266,2.2266,2.2266,2.2266,2.2266,2.2266,2.2266,2.2266,2.2266,2.2266,2.2266,2.2266,2.2266,2.2266,2.2266,2.2266,2.2266,2.2266,2.2451,2.2257,2.2021,2.113,1.9542,1.6001,1.5779,1.5803,1.5676,1.6171,1.6541,1.6401,1.5866,1.585,1.5676,1.5683,1.5683,1.5683,1.5699,1.5699,1.5699,1.5707,1.0124,0.0,0.0,0.0,0.0,0.0,0.0,0.0,0.0,0.0,0.0,0.0,0.0,0.0,0.0,0.0,0.0,0.5882,1.2541,1.8484,1.4195,1.0203,0.9673,1.0208,1.2937,1.8911,1.933,1.9497,1.9476,1.9476,1.9582,1.9507,1.9952,2.0497,2.083,2.0649,2.0765,2.0871,2.0871,2.0871,2.0871,2.0871,2.0871,2.0871,2.0871,2.0871,2.0871,2.0871,2.0871,2.0871,2.0871,2.0871,2.0871,2.0871,2.0871,2.0871,2.0871,2.0871,2.085,2.0723,2.0852,2.0701,1.9647,2.0039,2.0776,2.1613,2.2,2.229,2.2418,2.2181,2.2266,2.2266,2.2266,2.2266,2.2266,2.2266,2.2266,2.2266,2.2266,2.2266,2.2266,2.2266,2.2266,2.2266,2.2266,2.2266,2.2266,2.2266,2.2266,2.2266,2.2504,2.23,2.2303,2.1484,1.9941,1.8304,1.6736,1.5763,1.6334,1.6244,1.6317,1.6795,1.622,1.5858,1.5683,1.5691,1.2412,0.6196,0.6199,0.6199,0.6199,0.6202,0.1958,0.0,0.0,0.0,0.0,0.0,0.0,0.0,0.0,0.0,0.0,0.0,0.0,0.0,0.0,0.0,0.0,0.0,0.3788,1.4867,0.7023,0.2157,0.7531,0.3398,0.4304,1.5361,1.8207,1.9518,1.9476,1.9476,1.9561,1.9455,1.9496,1.9694,2.0723,2.0809,2.0937,2.0818,2.0818,2.0839,2.0871,2.0871,2.0871,2.0871,2.0871,2.0871,2.0871,2.0871,2.0871,2.0871,2.0871,2.0871,2.0871,2.0871,2.0871,2.0871,2.0871,2.0871,2.0871,2.0871,2.0712,2.0522,1.9905,2.0028,2.0516,2.062,2.1389,2.2204,2.2225,2.2418,2.2276,2.2276,2.2276,2.2266,2.2266,2.2266,2.2266,2.2266,2.2266,2.2266,2.2266,2.2266,2.2266,2.2266,2.2266,2.2266,2.2266,2.2266,2.2266,2.2266,2.2266,2.244,2.2314,2.1254,2.0745,1.9969,1.7336,1.6025,1.6651,1.5953,1.6064,1.6607,1.5922,1.4848,1.2412,1.2418,0.6528,-0.522,-0.5223,-0.5223,-0.5223,-0.5226,-0.5228,0.0,0.0,0.0,0.0,0.0,0.0,0.0,0.0,0.0,0.0,0.0,0.0,0.0,0.0,0.0,0.0,0.0,0.057,0.2688,0.1224,0.031,0.1245,0.062,0.0925,0.2754,1.2812,1.9518,1.9476,1.9476,1.9497,1.9529,1.9413,1.9548,1.9621,2.0311,2.0852,2.0894,2.0894,2.067,2.0871,2.0871,2.0871,2.0871,2.0871,2.0871,2.0871,2.0871,2.0871,2.0871,2.0871,2.0871,2.0871,2.0871,2.0871,2.0871,2.0871,2.0871,2.0871,2.0871,2.0712,2.0873,2.0744,2.0049,1.9707,2.0612,2.0868,2.1296,2.2053,2.2354,2.2308,2.2308,2.2287,2.2266,2.2266,2.2266,2.2266,2.2266,2.2266,2.2266,2.2266,2.2266,2.2266,2.2266,2.2266,2.2266,2.2266,2.2266,2.2266,2.2266,2.2266,2.244,2.2314,2.1579,1.9718,1.6668,1.6122,1.581,1.5993,1.5715,1.581,1.593,1.5803,1.0135,-0.1957,-0.1958,-0.2938,-0.5226,-0.5228,-0.5231,-0.5231,-0.5231,-0.5231,0.0,0.0,0.0,0.0,0.0,0.0,0.0,0.0,0.0,0.0,0.0,0.0,0.0,0.0,0.0,0.0,0.0,0.0,0.0,0.0,0.0,0.0,0.0,0.0,0.0,1.167,1.955,1.9508,1.9508,1.9497,1.9476,1.9392,1.9517,1.9517,1.984,2.0068,2.0193,2.0638,2.0765,2.0871,2.0871,2.0871,2.0871,2.0871,2.0871,2.0871,2.0871,2.0871,2.0871,2.0871,2.0871,2.0871,2.0871,2.0871,2.0871,2.0871,2.0871,2.0871,2.0871,2.0797,2.0712,2.0712,2.0391,2.012,2.0661,1.5552,0.9693,1.0161,1.0255,1.2065,2.0171,2.2298,2.2266,2.2266,2.2266,2.2266,2.2266,2.2266,2.2266,2.2266,2.2266,2.2266,2.2266,2.2266,2.2266,2.2266,2.2266,2.2266,2.2266,2.2504,2.23,2.2303,2.1473,1.9591,1.5993,1.738,1.8406,1.8638,1.8322,1.7707,1.581,0.8506,0.1304,-0.5223,-0.5228,-0.5231,-0.5231,-0.5231,-0.5234,-0.5234,-0.5234,-0.5234,0.0,0.0,0.0,0.0,0.0,0.0,0.0,0.0,0.0,0.0,0.0,0.0,0.0,0.0,0.0,0.0,0.0,0.0,0.0,0.0,0.0,0.0,0.0,0.0,0.0,0.8939,1.4956,1.4915,1.768,1.9518,1.9476,1.9392,1.9517,1.9835,1.9798,1.9701,1.9864,2.037,2.0818,2.0871,2.0871,2.0871,2.0871,2.0871,2.0871,2.0871,2.0871,2.0871,2.0871,2.0871,2.0871,2.0871,2.0871,2.0871,2.0871,2.0871,2.0871,2.0871,2.0871,2.0871,2.086,2.0702,1.8488,1.5977,1.5896,0.8523,0.0,0.0,0.0,0.3432,1.8414,2.2298,2.2266,2.2266,2.2266,2.2266,2.2266,2.2266,2.2266,2.2266,2.2266,2.2266,2.2266,2.2266,2.2266,2.2266,2.2266,2.2266,2.2266,2.2408,2.2171,2.1946,2.1378,1.9822,1.7284,1.9279,2.0305,1.9654,1.6351,1.3396,1.0782,0.0326,-0.5223,-0.5228,-0.5231,-0.5234,-0.5234,-0.5234,-0.5234,-0.5234,-0.5234,-0.5234,0.0,0.0,0.0,0.0,0.0,0.0,0.0,0.0,0.0,0.0,0.0,0.0,0.0,0.0,0.0,0.0,0.0,0.0,0.0,0.0,0.0,0.0,0.0,0.0,0.0,0.0914,0.1521,0.1517,1.2467,1.9518,1.9476,1.9392,1.9835,2.077,2.0583,2.0819,2.0841,2.0852,2.066,2.0871,2.0871,2.0871,2.0871,2.0871,2.0871,2.0871,2.0871,2.0871,2.0871,2.0871,2.0871,2.0871,2.0871,2.0871,2.0871,2.0871,2.0871,2.0871,2.0871,2.0892,2.0913,2.0903,1.2049,0.1632,0.1318,0.0668,0.0,0.0,0.0,0.347,1.8484,2.2319,2.2266,2.2266,2.2266,2.2266,2.2266,2.2266,2.2266,2.2266,2.2266,2.2266,2.2266,2.2266,2.2266,2.2266,2.2266,2.2266,2.2266,2.2408,2.1833,2.0929,2.0714,2.0817,2.0589,2.062,1.9318,1.6351,0.391,-0.3584,-0.3588,-0.457,-0.5228,-0.5234,-0.5234,-0.5234,-0.5234,-0.5234,-0.5234,-0.5234,-0.5234,-0.5234,0.0,0.0,0.0,0.0,0.0,0.0,0.0,0.0,0.0,0.0,0.0,0.0,0.0,0.0,0.0,0.0,0.0,0.0,0.0,0.0,0.0,0.0,0.0,0.0,0.0,0.0,0.0,0.0,1.2183,1.9309,1.9413,1.9312,1.9808,2.093,2.0905,2.0744,2.0744,2.0744,2.0786,2.0871,2.0871,2.0871,2.0871,2.0871,2.0871,2.0871,2.0871,2.0871,0.0,2.0871,2.0871,2.0871,2.0871,2.0871,2.0871,2.0871,2.0882,2.0903,2.0903,2.0924,1.9308,1.0755,0.4235,0.0,0.0,0.0,0.0,0.0,0.0,0.3449,1.8467,2.234,2.2298,2.2276,2.2266,2.2266,2.2266,2.2266,2.2266,2.2266,2.2266,2.2266,2.2266,2.2266,2.2266,2.2266,2.2266,2.2266,2.2266,2.229,2.2021,2.0909,2.0921,1.6384,0.5532,0.4559,0.391,0.2608,-0.2283,-0.5223,-0.5228,-0.5231,-0.5231,-0.5234,-0.5234,-0.5234,-0.5234,-0.5234,-0.5234,-0.5234,-0.5234,-0.5234,0.0,0.0,0.0,0.0,0.0,0.0,0.0,0.0,0.0,0.0,0.0,0.0,0.0,0.0,0.0,0.0,0.0,0.0,0.0,0.0,0.0,0.0,0.0,0.0,0.0,0.0,0.0,0.0,0.8256,1.5093,1.9271,1.984,2.0079,2.0905,2.0797,2.0903,2.0882,2.0882,2.0882,2.0871,2.0871,2.0871,2.0871,2.0871,2.0871,2.0871,2.0871,2.0871,2.0871,2.0871,2.0871,2.0871,2.0871,2.0882,2.0882,2.0882,2.0913,2.0274,1.566,1.4366,1.2744,0.326,0.0,0.0,0.0,0.0,0.0,0.0,0.0,0.2403,1.2457,1.8787,2.2329,2.2308,2.2287,2.2287,2.2287,2.2276,2.2266,2.2266,2.2266,2.2266,2.2266,2.2266,2.2266,2.2266,2.2266,2.2276,2.2287,2.2236,2.1946,2.0919,2.0869,1.3701,-0.391,-0.5218,-0.522,-0.5223,-0.5228,-0.5231,-0.5234,-0.5234,-0.5234,-0.5234,-0.5234,-0.5234,-0.5234,-0.5234,-0.5234,-0.5234,-0.5234,-0.5234,0.0,0.0,0.0,0.0,0.0,0.0,0.0,0.0,0.0,0.0,0.0,0.0,0.0,0.0,0.0,0.0,0.0,0.0,0.0,0.0,0.0,0.0,0.0,0.0,0.0,0.0,0.0,0.0,0.0,0.5581,1.8682,2.0016,2.0586,2.0628,2.0526,2.063,2.0599,2.0599,2.0903,2.0871,2.0871,2.0871,2.0871,2.0871,2.0871,2.0871,2.0871,2.0871,2.0871,2.0871,2.0871,2.0871,2.0871,2.0892,2.0924,2.0599,2.062,1.8657,0.4887,0.0,0.0,0.0,0.0,0.0,0.0,0.0,0.0,0.0,0.0,0.0,0.0,1.1054,2.2024,2.2024,2.1993,2.2319,2.2319,2.2298,2.2266,2.2266,2.2266,2.2266,2.2266,2.2266,2.2266,2.2266,2.2266,2.2276,2.2308,2.2268,2.1642,2.0634,2.0581,1.3396,-0.3914,-0.5228,-0.5234,-0.5234,-0.5234,-0.5234,-0.5234,-0.5234,-0.5234,-0.5234,-0.5234,-0.5234,-0.5234,-0.5234,-0.5234,-0.5234,-0.5234,-0.5234,0.0,0.0,0.0,0.0,0.0,0.0,0.0,0.0,0.0,0.0,0.0,0.0,0.0,0.0,0.0,0.0,0.0,0.0,0.0,0.0,0.0,0.0,0.0,0.0,0.0,0.0,0.0,0.0,0.0,0.1536,0.5578,0.5972,0.6045,0.6098,0.6111,0.6139,0.6186,1.6009,2.0956,2.0945,2.0924,2.0903,2.0903,2.0882,2.0871,2.0871,2.0871,2.0882,2.0903,2.0903,2.0924,2.0945,2.0945,2.0956,1.9634,0.9778,0.6196,0.5549,0.1305,0.0,0.0,0.0,0.0,0.0,0.0,0.0,0.0,0.0,0.0,0.0,0.0,0.3417,0.6539,0.6532,0.6564,0.9383,2.0238,2.235,2.2329,2.2308,2.2308,2.2298,2.2276,2.2266,2.2276,2.2298,2.2504,2.2418,2.2451,1.1137,0.3659,0.5986,0.3947,0.0327,-0.4902,-0.5231,-0.5234,-0.5234,-0.5234,-0.5234,-0.5234,-0.5234,-0.5234,-0.5234,-0.5234,-0.5234,-0.5234,-0.5234,-0.5234,-0.5234,-0.5234,-0.5234,0.0,0.0,0.0,0.0,0.0,0.0,0.0,0.0,0.0,0.0,0.0,0.0,0.0,0.0,0.0,0.0,0.0,0.0,0.0,0.0,0.0,0.0,0.0,0.0,0.0,0.0,0.0,0.0,0.0,0.0,0.0,0.0,0.0,0.0,0.0,0.0,0.0,0.8467,1.2412,1.2406,1.2393,1.5335,2.0945,2.0924,2.0913,2.0913,2.0913,2.0924,2.0284,1.4684,1.2393,1.2406,1.2406,1.2412,1.1434,0.2935,0.0,0.0,0.0,0.0,0.0,0.0,0.0,0.0,0.0,0.0,0.0,0.0,0.0,0.0,0.0,0.0,0.0,0.0,0.0,0.2419,1.1421,1.3544,1.3577,1.3564,1.8111,2.2329,2.2308,2.2308,2.2319,2.234,1.7252,1.3351,1.337,0.2352,-0.4309,-0.232,-0.3945,-0.5234,-0.5234,-0.5234,-0.5234,-0.5234,-0.5234,-0.5234,-0.5234,-0.5234,-0.5234,-0.5234,-0.5234,-0.5234,-0.5234,-0.5234,-0.5234,-0.5234,-0.5234,-0.5234,0.0,0.0,0.0,0.0,0.0,0.0,0.0,0.0,0.0,0.0,0.0,0.0,0.0,0.0,0.0,0.0,0.0,0.0,0.0,0.0,0.0,0.0,0.0,0.0,0.0,0.0,0.0,0.0,0.0,0.0,0.0,0.0,0.0,0.0,0.0,0.0,0.0,0.0,0.0,0.0,0.0,0.6521,1.8992,1.8992,1.8992,1.8992,1.8992,1.8992,1.8006,0.5215,0.0,0.0,0.0,0.0,0.0,0.0,0.0,0.0,0.0,0.0,0.0,0.0,0.0,0.0,0.0,0.0,0.0,0.0,0.0,0.0,0.0,0.0,0.0,0.0,0.0,0.0,0.0,0.0,0.0,0.0,1.1134,2.0257,2.0257,2.0257,2.0248,2.0229,0.8602,-0.0,-0.0342,-0.3356,-0.5305,-0.5313,-0.5265,-0.5234,-0.5234,-0.5234,-0.5234,-0.5234,-0.5234,-0.5234,-0.5234,-0.5234,-0.5234,-0.5234,-0.5234,-0.5234,-0.5234,-0.5234,-0.5234,-0.5234,-0.5234,-0.5234,0.0,0.0,0.0,0.0,0.0,0.0,0.0,0.0,0.0,0.0,0.0,0.0,0.0,0.0,0.0,0.0,0.0,0.0,0.0,0.0,0.0,0.0,0.0,0.0,0.0,0.0,0.0,0.0,0.0,0.0,0.0,0.0,0.0,0.0,0.0,0.0,0.0,0.0,0.0,0.0,0.0,0.1632,0.457,0.4563,0.4561,0.4561,0.4561,0.4563,0.4244,0.1305,0.0,0.0,0.0,0.0,0.0,0.0,0.0,0.0,0.0,0.0,0.0,0.0,0.0,0.0,0.0,0.0,0.0,0.0,0.0,0.0,0.0,0.0,0.0,0.0,0.0,0.0,0.0,0.0,0.0,0.0,0.2436,0.4872,0.4865,0.4865,0.4851,0.4819,0.2043,-0.1012,-0.3686,-0.4633,-0.525,-0.5252,-0.5242,-0.5234,-0.5234,-0.5234,-0.5234,-0.5234,-0.5234,-0.5234,-0.5234,-0.5234,-0.5234,-0.5234,-0.5234,-0.5234,-0.5234,-0.5234,-0.5234,-0.5234,-0.5234,-0.5234,0.0,0.0,0.0,0.0,0.0,0.0,0.0,0.0,0.0,0.0,0.0,0.0,0.0,0.0,0.0,0.0,0.0,0.0,0.0,0.0,0.0,0.0,0.0,0.0,0.0,0.0,0.0,0.0,0.0,0.0,0.0,0.0,0.0,0.0,0.0,0.0,0.0,0.0,0.0,0.0,0.0,0.0,0.0,0.0,0.0,0.0,0.0,0.0,0.0,0.0,0.0,0.0,0.0,0.0,0.0,0.0,0.0,0.0,0.0,0.0,0.0,0.0,0.0,0.0,0.0,0.0,0.0,0.0,0.0,0.0,0.0,0.0,0.0,0.0,0.0,0.0,0.0,0.0,0.0,0.0,0.0,0.0,0.0,0.0,0.0,0.0,0.0,-0.1337,-0.4659,-0.5271,-0.5234,-0.5234,-0.5234,-0.5234,-0.5234,-0.5234,-0.5234,-0.5234,-0.5234,-0.5234,-0.5234,-0.5234,-0.5234,-0.5234,-0.5234,-0.5234,-0.5234,-0.5234,-0.5234,-0.5234,-0.5234,-0.5234,0.0,0.0,0.0,0.0,0.0,0.0,0.0,0.0,0.0,0.0,0.0,0.0,0.0,0.0,0.0,0.0,0.0,0.0,0.0,0.0,0.0,0.0,0.0,0.0,0.0,0.0,0.0,0.0,0.0,0.0,0.0,0.0,0.0,0.0,0.0,0.0,0.0,0.0,0.0,0.0,0.0,0.0,0.0,0.0,0.0,0.0,0.0,0.0,0.0,0.0,0.0,0.0,0.0,0.0,0.0,0.0,0.0,0.0,0.0,0.0,0.0,0.0,0.0,0.0,0.0,0.0,0.0,0.0,0.0,0.0,0.0,0.0,0.0,0.0,0.0,0.0,0.0,0.0,0.0,0.0,0.0,0.0,0.0,0.0,-0.0341,-0.0675,-0.1003,-0.1994,-0.4976,-0.5263,-0.5234,-0.5234,-0.5234,-0.5234,-0.5234,-0.5234,-0.5234,-0.5234,-0.5234,-0.5234,-0.5234,-0.5234,-0.5234,-0.5234,-0.5234,-0.5234,-0.5234,-0.5234,-0.5234,-0.5234,-0.5234,-0.5234,0.0,0.0,0.0,0.0,0.0,0.0,0.0,0.0,0.0,0.0,0.0,0.0,0.0,0.0,0.0,0.0,0.0,0.0,0.0,0.0,0.0,0.0,0.0,0.0,0.0,0.0,0.0,0.0,0.0,0.0,0.0,0.0,0.0,0.0,0.0,0.0,0.0,0.0,0.0,0.0,0.0,0.0,0.0,0.0,0.0,0.0,0.0,0.0,0.0,0.0,0.0,0.0,0.0,0.0,0.0,0.0,0.0,0.0,0.0,0.0,0.0,0.0,0.0,0.0,0.0,0.0,0.0,0.0,0.0,0.0,0.0,0.0,0.0,0.0,0.0,0.0,0.0,0.0,0.0,0.0,0.0,0.0,0.0,0.0,-0.1012,-0.4005,-0.4661,-0.464,-0.5252,-0.5239,-0.5234,-0.5234,-0.5234,-0.5234,-0.5234,-0.5234,-0.5234,-0.5234,-0.5234,-0.5234,-0.5234,-0.5234,-0.5234,-0.5234,-0.5234,-0.5234,-0.5234,-0.5234,-0.5234,-0.5234,-0.5234,-0.5234,0.0,0.0,0.0,0.0,0.0,0.0,0.0,0.0,0.0,0.0,0.0,0.0,0.0,0.0,0.0,0.0,0.0,0.0,0.0,0.0,0.0,0.0,0.0,0.0,0.0,0.0,0.0,0.0,0.0,0.0,0.0,0.0,0.0,0.0,0.0,0.0,0.0,0.0,0.0,0.0,0.0,0.0,0.0,0.0,0.0,0.0,0.0,0.0,0.0,0.0,0.0,0.0,0.0,0.0,0.0,0.0,0.0,0.0,0.0,0.0,0.0,0.0,0.0,0.0,0.0,0.0,0.0,0.0,0.0,0.0,0.0,0.0,0.0,0.0,0.0,0.0,0.0,0.0,0.0,0.0,0.0,0.0,0.0,0.0,-0.1335,-0.4624,-0.5273,-0.5263,-0.5236,-0.5234,-0.5234,-0.5234,-0.5234,-0.5234,-0.5234,-0.5234,-0.5234,-0.5234,-0.5234,-0.5234,-0.5234,-0.5234,-0.5234,-0.5234,-0.5234,-0.5234,-0.5234,-0.5234,-0.5234,-0.5234,-0.5234,-0.5234,0.0,0.0,0.0,0.0,0.0,0.0,0.0,0.0,0.0,0.0,0.0,0.0,0.0,0.0,0.0,0.0,0.0,0.0,0.0,0.0,0.0,0.0,0.0,0.0,0.0,0.0,0.0,0.0,0.0,0.0,0.0,0.0,0.0,0.0,0.0,0.0,0.0,0.0,0.0,0.0,0.0,0.0,0.0,0.0,0.0,0.0,0.0,0.0,0.0,0.0,0.0,0.0,0.0,0.0,0.0,0.0,0.0,0.0,0.0,0.0,0.0,0.0,0.0,0.0,0.0,0.0,0.0,0.0,0.0,0.0,0.0,0.0,0.0,0.0,0.0,0.0,0.0,0.0,0.0,0.0,0.0,0.0,0.0,-0.0663,-0.2312,-0.4917,-0.5236,-0.5234,-0.5234,-0.5234,-0.5234,-0.5234,-0.5234,-0.5234,-0.5234,-0.5234,-0.5234,-0.5234,-0.5234,-0.5234,-0.5234,-0.5234,-0.5234,-0.5234,-0.5234,-0.5234,-0.5234,-0.5234,-0.5234,-0.5234,-0.5234,-0.5234,0.0,0.0,0.0,0.0,0.0,0.0,0.0,0.0,0.0,0.0,0.0,0.0,0.0,0.0,0.0,0.0,0.0,0.0,0.0,0.0,0.0,0.0,0.0,0.0,0.0,0.0,0.0,0.0,0.0,0.0,0.0,0.0,0.0,0.0,0.0,0.0,0.0,0.0,0.0,0.0,0.0,0.0,0.0,0.0,0.0,0.0,0.0,0.0,0.0,0.0,0.0,0.0,0.0,0.0,0.0,0.0,0.0,0.0,0.0,0.0,0.0,0.0,0.0,0.0,0.0,0.0,0.0,0.0,0.0,0.0,0.0,0.0,0.0,0.0,0.0,0.0,0.0,0.0,0.0,0.0,0.0,0.0,0.0,-0.262,-0.4909,-0.5234,-0.5234,-0.5234,-0.5234,-0.5234,-0.5234,-0.5234,-0.5234,-0.5234,-0.5234,-0.5234,-0.5234,-0.5234,-0.5234,-0.5234,-0.5234,-0.5234,-0.5234,-0.5234,-0.5234,-0.5234,-0.5234,-0.5234,-0.5234,-0.5234,-0.5234,-0.5234,0.0,0.0,0.0,0.0,0.0,0.0,0.0,0.0,0.0,0.0,0.0,0.0,0.0,0.0,0.0,0.0,0.0,0.0,0.0,0.0,0.0,0.0,0.0,0.0,0.0,0.0,0.0,0.0,0.0,0.0,0.0,0.0,0.0,0.0,0.0,0.0,0.0,0.0,0.0,0.0,0.0,0.0,0.0,0.0,0.0,0.0,0.0,0.0,0.0,0.0,0.0,0.0,0.0,0.0,0.0,0.0,0.0,0.0,0.0,0.0,0.0,0.0,0.0,0.0,0.0,0.0,0.0,0.0,0.0,0.0,0.0,0.0,0.0,0.0,0.0,0.0,0.0,0.0,0.0,0.0,0.0,0.0,0.0,-0.2946,-0.5236,-0.5234,-0.5234,-0.5234,-0.5234,-0.5234,-0.5234,-0.5234,-0.5234,-0.5234,-0.5234,-0.5234,-0.5234,-0.5234,-0.5234,-0.5234,-0.5234,-0.5234,-0.5234,-0.5234,-0.5234,-0.5234,-0.5234,-0.5234,-0.5234,-0.5234,-0.5234,-0.5234,0.0,0.0,0.0,0.0,0.0,0.0,0.0,0.0,0.0,0.0,0.0,0.0,0.0,0.0,0.0,0.0,0.0,0.0,0.0,0.0,0.0,0.0,0.0,0.0,0.0,0.0,0.0,0.0,0.0,0.0,0.0,0.0,0.0,0.0,0.0,0.0,0.0,0.0,0.0,0.0,0.0,0.0,0.0,0.0,0.0,0.0,0.0,0.0,0.0,0.0,0.0,0.0,0.0,0.0,0.0,0.0,0.0,0.0,0.0,0.0,0.0,0.0,0.0,0.0,0.0,0.0,0.0,0.0,0.0,0.0,0.0,0.0,0.0,0.0,0.0,0.0,0.0,0.0,0.0,0.0,0.0,-0.0327,-0.1637,-0.36,-0.5236,-0.5234,-0.5234,-0.5234,-0.5234,-0.5234,-0.5234,-0.5234,-0.5234,-0.5234,-0.5234,-0.5234,-0.5234,-0.5234,-0.5234,-0.5234,-0.5234,-0.5234,-0.5234,-0.5234,-0.5234,-0.5234,-0.5234,-0.5234,-0.5234,-0.5234,-0.5234,-0.5234,0.0,0.0,0.0,0.0,0.0,0.0,0.0,0.0,0.0,0.0,0.0,0.0,0.0,0.0,0.0,0.0,0.0,0.0,0.0,0.0,0.0,0.0,0.0,0.0,0.0,0.0,0.0,0.0,0.0,0.0,0.0,0.0,0.0,0.0,0.0,0.0,0.0,0.0,0.0,0.0,0.0,0.0,0.0,0.0,0.0,0.0,0.0,0.0,0.0,0.0,0.0,0.0,0.0,0.0,0.0,0.0,0.0,0.0,0.0,0.0,0.0,0.0,0.0,0.0,0.0,0.0,0.0,0.0,0.0,0.0,0.0,0.0,0.0,0.0,0.0,0.0,0.0,0.0,0.0,0.0,-0.0,-0.1309,-0.458,-0.5234,-0.5234,-0.5234,-0.5234,-0.5234,-0.5234,-0.5234,-0.5234,-0.5234,-0.5234,-0.5234,-0.5234,-0.5234,-0.5234,-0.5234,-0.5234,-0.5234,-0.5234,-0.5234,-0.5234,-0.5234,-0.5231,-0.5231,-0.5231,-0.5228,-0.5228,-0.5228,-0.5228,-0.5228,0.0,0.0,0.0,0.0,0.0,0.0,0.0,0.0,0.0,0.0,0.0,0.0,0.0,0.0,0.0,0.0,0.0,0.0,0.0,0.0,0.0,0.0,0.0,0.0,0.0,0.0,0.0,0.0,0.0,0.0,0.0,0.0,0.0,0.0,0.0,0.0,0.0,0.0,0.0,0.0,0.0,0.0,0.0,0.0,0.0,0.0,0.0,0.0,0.0,0.0,0.0,0.0,0.0,0.0,0.0,0.0,0.0,0.0,0.0,0.0,0.0,0.0,0.0,0.0,0.0,0.0,0.0,0.0,0.0,0.0,0.0,0.0,0.0,0.0,0.0,0.0,0.0,0.0,0.0,0.0,-0.1963,-0.4253,-0.5234,-0.5234,-0.5234,-0.5234,-0.5234,-0.5234,-0.5234,-0.5234,-0.5234,-0.5234,-0.5234,-0.5234,-0.5234,-0.5234,-0.5234,-0.5234,-0.5234,-0.5234,-0.5234,-0.5234,-0.5234,-0.5234,-0.5191,-0.517,-0.517,-0.5128,-0.5106,-0.5106,-0.5106,-0.5106,0.0,0.0,0.0,0.0,0.0,0.0,0.0,0.0,-0.0232,-0.1421,-0.1677,-0.1689,-0.1698,-0.5136,-0.6176,-0.0749,0.0,0.0,0.0,0.0,0.0,0.0,0.0,0.0,0.0,0.0,0.0,0.0,0.0,0.0,0.0,0.0,0.0,0.0,0.0,0.0,0.0,0.0,0.0,0.0,0.0,0.0,0.0,0.0,0.0,0.0,0.0,0.0,0.0,0.0,0.0,0.0,0.0,0.0,0.0,0.0,0.0,0.0,0.0,0.0,0.0,0.0,0.0,0.0,0.0,0.0,0.0,0.0,0.0,0.0,0.0,0.0,0.0,0.0,0.0,0.0,0.0,-0.1309,-0.229,-0.2289,-0.3924,-0.5234,-0.5234,-0.5234,-0.5234,-0.5234,-0.5234,-0.5234,-0.5234,-0.5234,-0.5234,-0.5234,-0.5234,-0.5234,-0.5234,-0.5234,-0.5234,-0.5234,-0.5234,-0.5234,-0.5234,-0.521,-0.5197,-0.5197,-0.5138,-0.5109,-0.5109,-0.5075,-0.5056,-0.5056,-0.5027,-0.7774,0.0,0.0,0.0,0.0,0.0,0.0,0.0,-0.1096,-0.26,-0.4922,-0.542,-0.5456,-0.5313,-1.2961,-1.5334,-0.3858,-0.2209,-0.2247,-0.2025,-0.1273,-0.0258,-0.0,0.0,0.0,0.0,0.0,0.0,0.0,0.0,0.0,0.0,0.0,0.0,0.0,0.0,0.0,0.0,0.0,0.0,0.0,0.0,0.0,0.0,0.0,0.0,0.0,0.0,0.0,0.0,0.0,0.0,0.0,0.0,0.0,0.0,0.0,0.0,0.0,0.0,0.0,0.0,0.0,0.0,0.0,0.0,0.0,-0.0,-0.0319,-0.0642,-0.0644,-0.0651,-0.0653,-0.0653,-0.0654,-0.0654,-0.0654,-0.0654,-0.2943,-0.5234,-0.5234,-0.5234,-0.5234,-0.5234,-0.5234,-0.5234,-0.5234,-0.5234,-0.5234,-0.5234,-0.5234,-0.5234,-0.5234,-0.5234,-0.5234,-0.5234,-0.5234,-0.5231,-0.5223,-0.5223,-0.522,-0.5215,-0.5165,-0.5136,-0.5136,-0.5077,-0.5048,-0.4733,-0.472,-0.4713,-0.471,-0.4958,-1.118,0.0,0.0,0.0,0.0,0.0,0.0,0.0,-0.7161,-1.4006,-1.4519,-1.4714,-1.46,-1.4796,-1.7143,-1.8309,-1.5735,-1.5432,-1.5283,-1.5356,-0.8177,-0.2265,-0.0253,0.0,0.0,0.0,0.0,0.0,0.0,0.0,0.0,0.0,0.0,0.0,0.0,0.0,0.0,0.0,0.0,0.0,0.0,0.0,0.0,0.0,0.0,0.0,0.0,0.0,0.0,0.0,0.0,0.0,0.0,0.0,0.0,0.0,0.0,0.0,0.0,0.0,0.0,0.0,0.0,0.0,0.0,0.0,0.0,-0.0622,-0.3126,-0.4098,-0.4139,-0.4186,-0.4199,-0.4207,-0.4244,-0.4253,-0.4253,-0.4253,-0.4907,-0.5234,-0.5234,-0.5234,-0.5234,-0.5234,-0.5234,-0.5234,-0.5234,-0.5234,-0.5234,-0.5234,-0.5234,-0.5234,-0.5234,-0.5234,-0.5234,-0.5234,-0.5234,-0.5212,-0.5165,-0.5162,-0.5141,-0.5093,-0.5397,-0.5075,-0.5075,-0.5019,-0.499,-0.499,-0.4894,-0.4844,-0.4831,-0.4775,-1.1344,0.0,0.0,0.0,0.0,0.0,0.0,0.0,0.0,0.0,0.0,0.0,-1.6686,-1.7113,0.0,-1.8186,-1.8234,-1.8218,-1.8414,-1.8973,-1.0192,-0.3425,-0.22,-0.0744,0.0,0.0,0.0,0.0,0.0,0.0,0.0,0.0,0.0,0.0,0.0,0.0,0.0,0.0,0.0,0.0,0.0,0.0,0.0,0.0,0.0,0.0,0.0,0.0,0.0,0.0,0.0,0.0,0.0,0.0,0.0,0.0,0.0,0.0,0.0,0.0,0.0,0.0,0.0,0.0,-0.03,-0.1799,-0.2409,-0.2727,-0.4269,-0.491,-0.4945,-0.5006,-0.5043,-0.5389,-0.5099,-0.5149,-0.5189,-0.5189,-0.5212,-0.5234,-0.5234,-0.5234,-0.5234,-0.5234,-0.5186,-0.5157,-0.5186,-0.5165,-0.5167,-0.5226,-0.5183,-0.5146,-0.5146,-0.5122,-0.5104,-0.5104,-0.5104,-0.5104,-0.5101,-0.5101,-0.5088,-0.5059,-0.503,-0.5016,-0.5016,-0.4932,-0.4873,-0.4844,-0.4749,-0.4685,-0.4938,-1.0259,-1.5935,0.0,0.0,0.0,0.0,0.0,0.0,0.0,0.0,0.0,0.0,0.0,0.0,0.0,0.0,0.0,-1.7228,-1.7228,-1.7672,-1.8622,-1.1561,-0.6619,-0.6899,-0.3127,-0.0733,-0.0747,-0.0756,-0.0512,-0.0,0.0,0.0,0.0,0.0,0.0,0.0,0.0,0.0,0.0,0.0,0.0,0.0,0.0,0.0,0.0,0.0,0.0,0.0,0.0,0.0,0.0,0.0,0.0,0.0,0.0,0.0,0.0,0.0,0.0,0.0,0.0,-0.0293,-0.088,-0.0882,-0.0883,-0.1472,-0.4121,-0.4712,0.0,-0.477,-0.4783,-0.4796,-0.4855,-0.4905,-0.5254,-0.5265,-0.503,-0.5099,-0.5109,-0.5152,-0.5186,-0.5197,-0.5199,-0.5199,-0.5199,-0.5112,-0.5059,-0.5106,-0.508,-0.5088,-0.5173,-0.5109,-0.5372,-0.5056,-0.5019,-0.4993,-0.4993,-0.5282,-0.5299,-0.5053,-0.5027,-0.5003,-0.499,-0.4947,-0.4913,-0.4892,-0.4796,-0.4725,-0.4677,-0.4896,-0.5687,-0.7871,-1.6822,-2.0705,0.0,0.0,0.0,0.0,0.0,0.0,0.0,0.0,0.0,0.0,0.0,0.0,0.0,0.0,0.0,0.0,-1.7312,-1.7424,-1.754,-1.6413,-1.6131,-1.7319,-0.9131,-0.3558,-0.3427,-0.3441,-0.249,-0.0256,0.0,0.0,0.0,0.0,0.0,0.0,0.0,0.0,0.0,0.0,0.0,0.0,0.0,0.0,0.0,0.0,0.0,0.0,0.0,0.0,0.0,0.0,0.0,0.0,0.0,0.0,0.0,0.0,0.0,0.0,0.0,0.0,0.0,-0.4107,-0.3826,-0.4121,-0.4417,-0.4417,-0.4417,-0.4425,-0.4425,-0.444,-0.4494,-0.4514,-0.4529,-0.4884,-0.4908,-0.4932,-0.5296,-0.5313,-0.5333,-0.5383,-0.5395,-0.5395,-0.5395,-0.5027,-0.4987,-0.4993,-0.503,-0.5046,-0.5008,-0.5035,-0.5056,-0.5056,-0.4735,0.0,-0.4417,-0.4646,-0.4942,-0.5051,-0.4913,-0.4804,-0.4751,-0.4743,-0.4983,-0.4874,-0.4857,-0.4845,-0.4555,-0.4486,-0.9459,-1.89,-2.023,-2.0727,0.0,0.0,0.0,0.0,0.0,0.0,0.0,0.0,0.0,0.0,0.0,0.0,0.0,0.0,0.0,0.0,-1.7216,-1.726,-1.7273,-1.728,-1.7462,-1.7971,-1.4895,-1.2504,-1.1755,-0.687,-0.3362,-0.2458,-0.2498,-0.2544,-0.2604,-0.0793,0.0,0.0,0.0,0.0,0.0,0.0,0.0,0.0,0.0,0.0,0.0,0.0,0.0,0.0,0.0,0.0,0.0,0.0,0.0,0.0,0.0,0.0,0.0,0.0,-0.2496,-0.2499,-0.2511,-0.3353,-0.4476,-0.4502,-0.451,-0.451,-0.451,-0.4534,-0.4561,-0.4561,-0.4584,-0.4614,-0.4348,-0.438,-0.441,-0.4728,-0.4487,-0.4539,-0.4868,-0.49,-0.4932,-0.4953,-0.4958,0.0,-0.4823,-0.4815,-0.4844,-0.4913,-0.4916,-0.4934,-0.47,-0.4985,-0.4958,-0.4958,-0.4619,-0.4601,-0.4601,-0.4863,0.0,0.0,0.0,-0.481,-0.4714,-0.5006,0.0,0.0,0.0,-0.451,-0.4437,-0.4215,0.0,0.0,-1.6485,-1.8105,0.0,0.0,0.0,0.0,0.0,0.0,0.0,0.0,0.0,0.0,0.0,0.0,0.0,0.0,0.0,0.0,-1.6981,-1.729,-1.729,-1.7362,-1.7254,-1.7359,-1.81,-1.8301,-1.7418,-1.1416,-0.7663,-0.7595,-0.5522,-0.4164,-0.4296,-0.23,-0.1294,-0.105,-0.1061,-0.1067,-0.1067,-0.0271,0.0,-0.0,-0.0838,-0.0845,0.0,0.0,0.0,0.0,0.0,-0.0561,-0.1123,-0.1123,-0.1125,-0.1126,-0.1092,-0.2442,-0.4375,-0.4333,-0.4306,-0.4293,-0.4311,-0.4327,-0.4343,-0.4359,-0.4364,-0.4364,-0.4364,-0.4394,-0.4428,-0.4428,-0.4457,-0.4486,-0.4486,-0.4518,-0.4553,-0.4553,-0.4328,-0.4392,-0.4407,-0.4738,-0.4773,-0.4788,-0.4765,-0.4709,-0.4595,-0.4611,-0.4675,-0.4775,-0.4781,-0.4519,-0.4945,-0.4918,-0.4887,-0.4887,-0.4849,-0.4823,-0.4823,-0.4794,-0.4807,-0.4576,-0.4826,-0.4767,-0.4714,-0.4651,-0.4574,-0.4209,-0.4227,-0.5021,0.0,0.0,0.0,0.0,0.0,0.0,0.0,0.0,0.0,0.0,0.0,0.0,0.0,0.0,0.0,0.0,0.0,0.0,0.0,0.0,0.0,0.0,0.0,0.0,-1.7256,-1.7392,-1.7271,-1.7349,-1.7433,-1.7418,-1.7254,-1.705,-1.6995,-1.6879,-0.8878,-0.3789,-0.3917,-0.417,-0.4201,-0.4017,-0.4023,-0.4023,-0.4023,-0.1293,0.0,-0.0,-0.2733,-0.2765,0.0,0.0,0.0,0.0,0.0,-0.1638,-0.4097,-0.4097,-0.4129,-0.4161,-0.4261,-0.4195,-0.4198,-0.4195,-0.4158,-0.4372,-0.4174,-0.4232,-0.4288,-0.4346,-0.4364,-0.4364,-0.4364,-0.4367,-0.4367,-0.4367,-0.437,-0.437,-0.437,-0.4372,-0.4372,-0.4372,-0.4375,-0.4394,-0.4452,-0.4465,-0.4481,-0.4534,-0.4457,-0.4396,-0.4449,-0.446,-0.4481,-0.4537,-0.4643,0.0,-0.4722,-0.4818,-0.4887,-0.4887,-0.4887,-0.4884,-0.4884,-0.4781,-0.4762,-0.4879,-0.4964,-0.4882,-0.5,-0.4494,-0.4372,-0.437,-0.4184,-0.7201,-1.3597,0.0,0.0,0.0,0.0,0.0,0.0,0.0,0.0,0.0,0.0,0.0,0.0,0.0,0.0,0.0,0.0,0.0,0.0,0.0,0.0,0.0,0.0,0.0,0.0,-1.6408,-1.7265,-1.7374,-1.5831,-1.498,-1.5013,-1.4978,-1.5606,-1.7128,-1.4541,-1.2853,-1.2825,-0.7116,-0.406,-0.413,-0.4133,-0.3911,-0.3954,-0.2993,-0.2771,-0.2799,-0.3873,-0.3891,-0.2839,-0.2853,-0.2851,-0.2839,-0.2839,-0.3355,-0.4392,-0.4174,-0.4155,-0.4347,-0.4246,-0.4206,-0.4212,-0.4249,-0.4251,-0.424,-0.4049,-0.4084,-0.4361,-0.4381,-0.4384,-0.4378,-0.4378,-0.4403,-0.4182,-0.4227,-0.4266,-0.4309,-0.4354,-0.4364,-0.4364,-0.4364,-0.4364,-0.437,-0.4391,-0.4394,-0.4399,-0.4417,-0.4317,-0.42,-0.4361,-0.4251,-0.4349,-0.4256,-0.4439,-0.4603,-0.4936,-0.4717,-0.4765,-0.477,-0.477,-0.477,-0.477,-0.4733,-0.5006,-0.4712,-0.4927,-0.4845,-0.4484,-0.4396,-0.4298,-0.4182,-0.437,-0.8951,-1.8438,0.0,0.0,0.0,0.0,0.0,0.0,0.0,0.0,0.0,0.0,0.0,0.0,0.0,0.0,0.0,0.0,0.0,0.0,0.0,0.0,0.0,0.0,0.0,0.0,0.0,0.0,-1.6688,-1.5114,0.0,-1.4061,-1.3607,-1.3733,-1.4751,-1.6318,-1.7391,-1.7207,-1.181,-0.8734,-0.8706,-0.5408,-0.3781,-0.3827,-0.3848,-0.388,-0.4164,-0.4209,-0.4229,-0.4229,-0.4251,-0.4263,-0.4263,-0.4263,-0.4263,-0.426,-0.4235,-0.4175,-0.4099,-0.4082,-0.4074,-0.4077,-0.4116,-0.4119,-0.4111,-0.3951,-0.3967,-0.4204,-0.4246,-0.4206,-0.4882,-0.8356,-0.9557,-0.955,-0.9557,-0.688,-0.4381,-0.4208,-0.4229,-0.4229,-0.4229,-0.4229,-0.4229,-0.4229,-0.4229,-0.5286,-0.8734,-0.9897,-1.0132,-1.0186,-0.8758,-0.6929,-0.454,-0.4463,-0.604,-1.0562,-0.7525,-0.4672,-0.4696,-0.4698,-0.4701,-0.4706,-0.4706,-0.468,-0.4622,-0.4579,-0.4486,-0.433,-0.4274,-0.6239,-1.0174,-0.9841,-1.3029,0.0,0.0,0.0,0.0,0.0,0.0,0.0,0.0,0.0,0.0,0.0,0.0,0.0,0.0,0.0,0.0,0.0,0.0,0.0,0.0,0.0,0.0,0.0,0.0,0.0,0.0,0.0,-1.5506,-1.5122,0.0,0.0,0.0,0.0,-1.0598,-1.4638,-1.7151,-1.7241,-1.7366,-1.7372,-1.7307,-0.884,-0.4084,-0.4102,-0.3933,-0.397,-0.3984,-0.3858,-0.3909,-0.3911,-0.397,-0.3993,-0.3993,-0.3993,-0.3993,-0.398,-0.3808,-0.3731,-0.3493,-0.4012,-0.4263,-0.4254,-0.4272,-0.4001,-0.3964,-0.3861,-0.3869,-0.384,-0.3935,-0.4331,-0.6513,-1.6117,-1.897,0.0,0.0,-1.2124,-0.5015,-0.4928,-0.4968,-0.4975,-0.4981,-0.4981,-0.4981,-0.4981,-0.4981,-0.7718,-1.7217,-2.0002,-2.0715,-2.0689,0.0,-1.173,-0.5774,-0.4915,-0.9252,-2.1002,-1.2532,-0.5472,-0.5247,-0.5253,-0.5259,-0.5273,-0.4685,-0.4365,-0.4595,-0.4764,-0.5182,-0.5038,-0.515,-0.9894,-2.0471,-1.9345,0.0,0.0,0.0,0.0,0.0,0.0,0.0,0.0,0.0,0.0,0.0,0.0,0.0,0.0,0.0,0.0,0.0,0.0,0.0,0.0,0.0,0.0,0.0,0.0,0.0,0.0,-1.2892,-1.3695,-1.4606,-1.4309,-1.3695,0.0,0.0,0.0,0.0,0.0,0.0,-1.5946,-1.6864,-1.7262,-1.7326,-1.4971,-1.3833,-1.3702,-0.6963,-0.3625,-0.3678,-0.3707,-0.3726,-0.3964,-0.3981,-0.399,-0.399,-0.399,-0.399,-0.3973,-0.3784,-0.3485,-0.4122,-1.1143,-1.3707,-1.375,-1.3674,-0.9359,-0.3587,-0.3575,-0.3835,-0.3784,-0.3989,-0.9008,-1.5632,-1.8294,0.0,0.0,0.0,0.0,-1.5327,-1.5282,-1.5158,-1.5366,-1.5204,-1.5274,-1.5274,-1.5274,-1.5274,-1.6012,-1.8604,-1.9317,-1.944,-1.9418,-1.6343,0.0,-1.1678,-1.4336,-1.7829,-2.0718,-1.9399,-1.8007,-1.7977,-1.8008,-1.8008,-1.8019,-0.9606,-0.4447,-0.4343,-1.2042,-1.6542,-1.6591,-1.5672,-1.6705,-1.9531,0.0,0.0,0.0,0.0,0.0,0.0,0.0,0.0,0.0,0.0,0.0,0.0,0.0,0.0,0.0,0.0,0.0,0.0,0.0,0.0,0.0,0.0,0.0,0.0,0.0,0.0,0.0,-1.2414,-1.3133,-1.3768,-1.3336,-1.2849,0.0,0.0,0.0,0.0,0.0,0.0,0.0,0.0,0.0,-1.5714,-1.6684,-1.732,-1.7202,-1.2227,-0.9631,-0.9534,-0.5349,-0.3617,-0.3622,-0.3652,-0.3665,-0.3665,-0.3665,-0.3815,-0.3677,-0.3542,-0.5256,-0.8471,0.0,0.0,0.0,0.0,-1.2884,-0.8678,-0.81,-0.8848,-0.9858,-0.9826,0.0,0.0,0.0,0.0,0.0,0.0,0.0,-1.6838,-1.745,-1.8361,-1.9092,-1.9169,-1.9083,-1.9134,-1.9018,-1.9022,-1.904,-1.8973,-1.749,-1.6147,-1.5976,-1.4375,0.0,0.0,0.0,-1.8997,-2.0689,-2.1906,-2.2483,-2.2532,-2.2507,-2.2573,-2.2626,-1.6189,-1.2087,-1.1759,-1.6795,-1.995,-2.0074,-1.939,-1.8213,0.0,0.0,0.0,0.0,0.0,0.0,0.0,0.0,0.0,0.0,0.0,0.0,0.0,0.0,0.0,0.0,0.0,0.0,0.0,0.0,0.0,0.0,0.0,0.0,0.0,0.0,0.0,0.0,0.0,-1.2421,-1.275,0.0,0.0,0.0,0.0,0.0,0.0,0.0,0.0,0.0,0.0,0.0,0.0,0.0,-1.6678,-1.6591,-1.6656,-1.6898,-1.718,-0.9076,-0.478,-0.3485,-0.3543,-0.3583,-0.3604,-0.3564,0.0,-0.3586,-0.4266,0.0,0.0,0.0,0.0,0.0,0.0,0.0,0.0,0.0,0.0,0.0,0.0,0.0,0.0,0.0,0.0,0.0,0.0,0.0,0.0,0.0,0.0,-1.9035,-1.9035,-1.8821,-1.8697,-1.8301,-1.8157,-1.8177,-1.82,-1.5006,-1.2234,0.0,0.0,0.0,0.0,0.0,0.0,-2.0037,-2.1434,-2.2112,-2.244,-2.2672,-2.2519,-2.2604,-2.2276,-2.1578,-2.0464,-1.9494,-1.9012,-1.9096,-1.8667,0.0,0.0,0.0,0.0,0.0,0.0,0.0,0.0,0.0,0.0,0.0,0.0,0.0,0.0,0.0,0.0,0.0,0.0,0.0,0.0,0.0,0.0,0.0,0.0,0.0,0.0,0.0,0.0,0.0,0.0,0.0,0.0,0.0,0.0,0.0,0.0,0.0,0.0,0.0,0.0,0.0,0.0,0.0,0.0,0.0,0.0,0.0,0.0,0.0,0.0,-1.5678,-1.0943,-0.3437,-0.3449,-0.3547,-0.3488,-0.3419,-0.3543,-0.3809,-0.8754,0.0,0.0,0.0,0.0,0.0,0.0,0.0,0.0,0.0,0.0,0.0,0.0,0.0,0.0,0.0,0.0,0.0,0.0,0.0,0.0,0.0,0.0,-1.9074,-1.9074,-1.8228,-1.6812,-1.3977,0.0,0.0,0.0,0.0,0.0,0.0,0.0,0.0,0.0,0.0,0.0,-1.9068,-1.9527,-2.0484,-2.2389,-2.2541,-2.2569,-2.2472,-2.0835,-1.9101,-1.8067,-1.8635,-1.9124,0.0,0.0,0.0,0.0,0.0,0.0,0.0,0.0,0.0,0.0,0.0,0.0,0.0,0.0,0.0,0.0,0.0,0.0,0.0,0.0,0.0,0.0,0.0,0.0,0.0,0.0,0.0,0.0,0.0,0.0,0.0,0.0,0.0,0.0,0.0,0.0,0.0,0.0,0.0,0.0,0.0,0.0,0.0,0.0,0.0,0.0,0.0,0.0,0.0,0.0,0.0,0.0,0.0,0.0,0.0,0.0,0.0,0.0,-0.9189,-0.875,0.0,0.0,0.0,0.0,0.0,0.0,0.0,0.0,0.0,0.0,0.0,0.0,0.0,0.0,0.0,0.0,0.0,0.0,0.0,0.0,0.0,0.0,0.0,0.0,0.0,0.0,0.0,0.0,0.0,0.0,0.0,0.0,0.0,0.0,0.0,0.0,0.0,0.0,0.0,0.0,-1.8752,-1.9,-1.9564,-2.051,-2.1224,-2.1524,-2.1633,-2.0158,-1.8723,-1.8221,-1.8736,0.0,0.0,0.0,0.0,0.0,0.0,0.0,0.0,0.0,0.0,0.0,0.0,0.0,0.0,0.0,0.0,0.0,0.0,0.0,0.0,0.0,0.0,0.0,0.0,0.0,0.0,0.0,0.0,0.0,0.0,0.0,0.0,0.0,0.0,0.0,0.0,0.0,0.0,0.0,0.0,0.0,0.0,0.0,0.0,0.0,0.0,0.0,0.0,0.0,0.0,0.0,0.0,0.0,0.0,0.0,0.0,0.0,0.0,0.0,-1.3727,-1.3016,0.0,0.0,0.0,0.0,0.0,0.0,0.0,0.0,0.0,0.0,0.0,0.0,0.0,0.0,0.0,0.0,0.0,0.0,0.0,0.0,0.0,0.0,0.0,0.0,0.0,0.0,0.0,0.0,0.0,0.0,0.0,0.0,0.0,0.0,0.0,0.0,0.0,0.0,0.0,0.0,-1.8665,-1.9038,-1.9132,-1.9149,-2.0158,-2.073,-2.049,-1.9546,-1.9155,-1.9039,-1.8214,0.0,0.0,0.0,0.0,0.0,0.0,0.0,0.0,0.0,0.0,0.0,0.0,0.0,0.0,0.0,0.0,0.0,0.0,0.0,0.0,0.0,0.0,0.0,0.0,0.0,0.0,0.0,0.0,0.0,0.0,0.0,0.0,0.0,0.0,0.0,0.0,0.0,0.0,0.0,0.0,0.0,0.0,0.0,0.0,0.0,0.0,0.0,0.0,0.0,0.0,0.0,0.0,0.0,0.0,0.0,0.0,0.0,0.0,0.0,0.0,0.0,0.0,0.0,0.0,0.0,0.0,0.0,0.0,0.0,0.0,0.0,0.0,0.0,0.0,0.0,0.0,0.0,0.0,0.0,0.0,0.0,0.0,0.0,0.0,0.0,0.0,0.0,0.0,0.0,0.0,0.0,0.0,0.0,0.0,0.0,0.0,0.0,0.0,0.0,0.0,0.0,-1.8561,-1.8999,-1.9038,-1.9083,-2.0146,-2.0402,-1.9364,-1.907,-1.9155,-1.9039,0.0,0.0,0.0,0.0,0.0,0.0,0.0,0.0,0.0,0.0,0.0,0.0,0.0,0.0,0.0,0.0,0.0,0.0,0.0,0.0,0.0,0.0,0.0,0.0,0.0,0.0,0.0,0.0,0.0,0.0,0.0,0.0,0.0,0.0,0.0,0.0,0.0,0.0,0.0,0.0,0.0,0.0,0.0,0.0,0.0,0.0,0.0,0.0,0.0,0.0,0.0,0.0,0.0,0.0,0.0,0.0,0.0,0.0,0.0,0.0,0.0,0.0,0.0,0.0,0.0,0.0,0.0,0.0,0.0,0.0,0.0,0.0,0.0,0.0,0.0,0.0,0.0,0.0,0.0,0.0,0.0,0.0,0.0,0.0,0.0,0.0,0.0,0.0,0.0,0.0,0.0,0.0,0.0,0.0,0.0,0.0,0.0,0.0,0.0,0.0,0.0,0.0,-1.8665,-1.9054,-1.896,-1.9005,-1.9382,-1.9582,-1.9031,-1.913,-1.9131,-1.8983,0.0,0.0,0.0,0.0,0.0,0.0,0.0,0.0,0.0,0.0,0.0,0.0,0.0,0.0,0.0,0.0,0.0,0.0,0.0,0.0,0.0,0.0,0.0,0.0,0.0,0.0,0.0,0.0,0.0,0.0,0.0,0.0,0.0,0.0,0.0,0.0,0.0,0.0,0.0,0.0,0.0,0.0,0.0,0.0,0.0,0.0,0.0,0.0,0.0,0.0,0.0,0.0,0.0,0.0,0.0,0.0,0.0,0.0,0.0,0.0,0.0,0.0,0.0,0.0,0.0,0.0,0.0,0.0,0.0,0.0,0.0,0.0,0.0,0.0,0.0,0.0,0.0,0.0,0.0,0.0,0.0,0.0,0.0,0.0,0.0,0.0,0.0,0.0,0.0,0.0,0.0,0.0,0.0,0.0,0.0,0.0,0.0,0.0,0.0,0.0,0.0,0.0,-1.856,-1.9148,-1.8934,-1.913,-1.8973,-1.8934,-1.9143,-1.8973,-1.9026,-1.9023,0.0,0.0,0.0,0.0,0.0,0.0,0.0,0.0,0.0,0.0,0.0,0.0,0.0,0.0,0.0,0.0,0.0,0.0,0.0,0.0,0.0,0.0,0.0,0.0,0.0,0.0,0.0,0.0,0.0,0.0,0.0,0.0,0.0,0.0,0.0,0.0,0.0,0.0,0.0,0.0,0.0,0.0,0.0,0.0,0.0,0.0,0.0,0.0,0.0,0.0,0.0,0.0,0.0,0.0,0.0,0.0,0.0,0.0,0.0,0.0,0.0,0.0,0.0,0.0,0.0,0.0,0.0,0.0,0.0,0.0,0.0,0.0,0.0,0.0,0.0,0.0,0.0,0.0,0.0,0.0,0.0,0.0,0.0,0.0,0.0,0.0,0.0,0.0,0.0,0.0,0.0,0.0,0.0,0.0,0.0,0.0,0.0,0.0,0.0,0.0,0.0,0.0,-1.8401,-1.9007,-1.9092,-1.9092,-1.9092,-1.9092,-1.9092,-1.9092,-1.9026,0.0,0.0,0.0,0.0,0.0,0.0,0.0,0.0,0.0,0.0,0.0,0.0,0.0,0.0,0.0,0.0,0.0,0.0,0.0,0.0,0.0,0.0,0.0,0.0,0.0,0.0,0.0,0.0,0.0,0.0,0.0,0.0,0.0,0.0,0.0,0.0,0.0,0.0,0.0,0.0,0.0,0.0,0.0,0.0,0.0,0.0,0.0,0.0,0.0,0.0,0.0,0.0,0.0,0.0,0.0,0.0,0.0,0.0,0.0,0.0,0.0,0.0,0.0,0.0,0.0,0.0,0.0,0.0,0.0,0.0,0.0,0.0,0.0,0.0,0.0,0.0,0.0,0.0,0.0,0.0,0.0,0.0,0.0,0.0,0.0,0.0,0.0,0.0,0.0,0.0,0.0,0.0,0.0,0.0,0.0,0.0,0.0,0.0,0.0,0.0,0.0,0.0,0.0,-1.8422,-1.9124,-1.9124,-1.8987,-1.9092,-1.9092,-1.9092,-1.8968,-1.9035,-1.8992,0.0,0.0,0.0,0.0,0.0,0.0,0.0,0.0,0.0,0.0,0.0,0.0,0.0,0.0,0.0,0.0,0.0,0.0,0.0,0.0,0.0,0.0,0.0,0.0,0.0,0.0,0.0,0.0,0.0,0.0,0.0,0.0,0.0,0.0,0.0,0.0,0.0,0.0,0.0,0.0,0.0,0.0,0.0,0.0,0.0,0.0,0.0,0.0,0.0,0.0,0.0,0.0,0.0,0.0,0.0,0.0,0.0,0.0,0.0,0.0,0.0,0.0,0.0,0.0,0.0,0.0,0.0,0.0,0.0,0.0,0.0,0.0,0.0,0.0,0.0,0.0,0.0,0.0,0.0,0.0,0.0,0.0,0.0,0.0,0.0,0.0,0.0,0.0,0.0,0.0,0.0,0.0,0.0,0.0,0.0,0.0,0.0,0.0,0.0,0.0,0.0,0.0,0.0,-1.8065,-1.9054,-1.9062,-1.9062,-1.8995,-1.8995,-1.9021,-1.8596,-1.7787,0.0,0.0,0.0,0.0,0.0,0.0,0.0,0.0,0.0,0.0,0.0,0.0,0.0,0.0,0.0,0.0,0.0,0.0,0.0,0.0,0.0,0.0,0.0,0.0,0.0,0.0,0.0,0.0,0.0,0.0,0.0,0.0,0.0,0.0,0.0,0.0,0.0,0.0,0.0,0.0,0.0,0.0,0.0,0.0,0.0,0.0,0.0,0.0,0.0,0.0,0.0,0.0,0.0,0.0,0.0,0.0,0.0,0.0,0.0,0.0,0.0,0.0,0.0,0.0,0.0,0.0,0.0,0.0,0.0,0.0,0.0,0.0,0.0,0.0,0.0,0.0,0.0,0.0,0.0,0.0,0.0,0.0,0.0,0.0,0.0,0.0,0.0,0.0,0.0,0.0,0.0,0.0,0.0,0.0,0.0,0.0,0.0,0.0,0.0,0.0,0.0,0.0,0.0,-1.6681,-1.9199,-1.9051,-1.9035,-1.9096,-1.9096,-1.9012,-1.8157,-1.6061,-1.3643,0.0,0.0,0.0,0.0,0.0,0.0,0.0,0.0,0.0,0.0,0.0,0.0,0.0,0.0,0.0,0.0,0.0,0.0,0.0,0.0,0.0,0.0,0.0,0.0,0.0,0.0,0.0,0.0,0.0,0.0,0.0,0.0,0.0,0.0,0.0,0.0,0.0,0.0,0.0,0.0,0.0,0.0,0.0,0.0,0.0,0.0,0.0,0.0,0.0,0.0,0.0,0.0,0.0,0.0,0.0,0.0,0.0,0.0,0.0,0.0,0.0,0.0,0.0,0.0,0.0,0.0,0.0,0.0,0.0,0.0,0.0,0.0,0.0,0.0,0.0,0.0,0.0,0.0,0.0,0.0,0.0,0.0,0.0,0.0,0.0,0.0,0.0,0.0,0.0,0.0,0.0,0.0,0.0,0.0,0.0,0.0,0.0,0.0,0.0,0.0,0.0,0.0,-1.9702,-1.9993,-1.9233,-1.904,-1.8998,-1.8777,-1.8709,-1.893,-1.96,-1.5004,0.0,0.0,0.0,0.0,0.0,0.0,0.0,0.0,0.0,0.0,0.0,0.0,0.0,0.0,0.0,0.0,0.0,0.0,0.0,0.0,0.0,0.0,0.0,0.0,0.0,0.0,0.0,0.0,0.0,0.0,0.0,0.0,0.0,0.0,0.0,0.0,0.0,0.0,0.0,0.0,0.0,0.0,0.0,0.0,0.0,0.0,0.0,0.0,0.0,0.0,0.0,0.0,0.0,0.0,0.0,0.0,0.0,0.0,0.0,0.0,0.0,0.0,0.0,0.0,0.0,0.0,0.0,0.0,0.0,0.0,0.0,0.0,0.0,0.0,0.0,0.0,0.0,0.0,0.0,0.0,0.0,0.0,0.0,0.0,0.0,0.0,0.0,0.0,0.0,0.0,0.0,0.0,0.0,0.0,0.0,0.0,0.0,0.0,0.0,0.0,0.0,0.0,-2.0827,-2.0591,-1.9828,-1.9327,-1.8823,-1.8695,-1.9228,-1.9936,-2.0721,-1.6667,0.0,0.0,0.0,0.0,0.0,0.0,0.0,0.0,0.0,0.0,0.0,0.0,0.0,0.0,0.0,0.0,0.0,0.0,0.0,0.0,0.0,0.0,0.0,0.0,0.0,0.0,0.0,0.0,0.0,0.0,0.0,0.0,0.0,0.0,0.0,0.0,0.0,0.0,0.0,0.0,0.0,0.0,0.0,0.0,0.0,0.0,0.0,0.0,0.0,0.0,0.0,0.0,0.0,0.0,0.0,0.0,0.0,0.0,0.0,0.0,0.0,0.0,0.0,0.0,0.0,0.0,0.0,0.0,0.0,0.0,0.0,0.0,0.0,0.0,0.0,0.0,0.0,0.0,0.0,0.0,0.0,0.0,0.0,0.0,0.0,0.0,0.0,0.0,0.0,0.0,0.0,0.0,0.0,0.0,0.0,0.0,0.0,0.0,0.0,0.0,0.0,0.0,0.0,-2.0019,-2.0815,-1.9573,-1.8652,-1.9035,-2.0031,-2.0763,-2.074,0.0,0.0,0.0,0.0,0.0,0.0,0.0,0.0,0.0,0.0,0.0,0.0,0.0,0.0,0.0,0.0,0.0,0.0,0.0,0.0,0.0,0.0,0.0,0.0,0.0,0.0,0.0,0.0,0.0,0.0,0.0,0.0,0.0,0.0,0.0,0.0,0.0,0.0,0.0,0.0,0.0,0.0,0.0,0.0,0.0,0.0,0.0,0.0,0.0,0.0,0.0,0.0,0.0,0.0,0.0,0.0,0.0,0.0,0.0,0.0,0.0,0.0,0.0,0.0,0.0,0.0,0.0,0.0,0.0,0.0,0.0,0.0,0.0,0.0,0.0,0.0,0.0,0.0,0.0,0.0,0.0,0.0,0.0,0.0,0.0,0.0,0.0,0.0,0.0,0.0,0.0,0.0,0.0,0.0,0.0,0.0,0.0,0.0,0.0,0.0,0.0,0.0,0.0,0.0,-1.689,-2.043,-1.9576,-1.905,-2.0302,-2.065,-2.076,-2.0809,0.0,0.0,0.0,0.0,0.0,0.0,0.0,0.0,0.0,0.0,0.0,0.0,0.0,0.0]}]]]